[[{"header":{"parameterUnit":"m.s-1","parameterCategory":1,"la1":31.0,"la2":29.5877,"lo1":-88.7671,"lo2":-86.6584,"dy":0.0162,"dx":0.0185,"nx":115,"ny":88,"refTime":"2026-04-08T12:00:00:Z","depth":0,"parameterNumber":2,"parameterNumberName":"U-component_of_WINDS"},"data":[0.0,0.0,0.0,0.0,0.0,0.0,0.0,0.0,0.0,0.0,0.0,0.0,0.0,0.0,0.0,0.0,0.0,0.0,0.0,0.0,0.0,0.0,0.0,0.0,0.0,0.0,0.0,0.0,0.0,0.0,0.0,0.0,0.0,0.0,0.0,0.0,0.0,0.0,0.0,0.0,0.0,0.0,0.0,0.0,0.0,0.0,0.0,0.0,0.0,0.0,0.0,0.0,0.0,0.0,0.0,0.0,0.0,0.0,0.0,0.0,0.0,0.0,0.0,0.0,0.0,0.0,0.0,0.0,0.0,0.0,0.0,0.0,0.0,0.0,0.0,0.0,0.0,0.0,0.0,0.0,0.0,0.0,0.0,0.0,0.0,0.0,0.0,0.0,0.0,0.0,0.0,0.0,0.0,0.0,0.0,0.0,0.0,0.0,0.0,0.0,0.0,0.0,0.0,0.0,0.0,0.0,0.0,0.0,0.0,0.0,0.0,0.0,0.0,0.0,0.0,0.0,0.0,0.0,0.0,0.0,0.0,0.0,0.0,0.0,0.0,0.0,0.0,0.0,0.0,0.0,0.0,0.0,0.0,0.0,0.0,0.0,0.0,0.0,0.0,0.0,0.0,0.0,0.0,0.0,0.0,0.0,0.0,0.0,0.0,0.0,0.0,0.0,0.0,0.0,0.0,0.0,0.0,0.0,0.0,0.0,0.0,0.0,0.0,0.0,0.0,0.0,0.0,0.0,0.0,0.0,0.0,0.0,0.0,0.0,0.0,0.0,0.0,0.0,0.0,0.0,0.0,0.0,0.0,0.0,0.0,0.0,0.0,0.0,0.0,0.0,0.0,0.0,0.0,0.0,0.0,0.0,0.0,0.0,0.0,0.0,0.0,0.0,0.0,0.0,0.0,0.0,0.0,0.0,0.0,0.0,0.0,0.0,0.0,0.0,0.0,0.0,0.0,0.0,0.0,0.0,0.0,0.0,0.0,0.0,0.0,0.0,0.0,0.0,0.0,0.0,0.0,0.0,0.0,0.0,0.0,0.0,0.0,0.0,0.0,0.0,0.0,0.0,0.0,0.0,0.0,0.0,0.0,0.0,0.0,0.0,0.0,0.0,0.0,0.0,0.0,0.0,0.0,0.0,0.0,0.0,0.0,0.0,0.0,0.0,0.0,0.0,0.0,0.0,0.0,0.0,0.0,0.0,0.0,0.0,0.0,0.0,0.0,0.0,0.0,0.0,0.0,0.0,0.0,0.0,0.0,0.0,0.0,0.0,0.0,0.0,0.0,0.0,0.0,0.0,0.0,0.0,0.0,0.0,0.0,0.0,0.0,0.0,0.0,0.0,0.0,0.0,0.0,0.0,0.0,0.0,0.0,0.0,0.0,0.0,0.0,0.0,0.0,0.0,0.0,0.0,0.0,0.0,0.0,0.0,0.0,0.0,0.0,0.0,0.0,0.0,0.0,0.0,0.0,0.0,0.0,0.0,0.0,0.0,0.0,0.0,0.0,0.0,0.0,0.0,0.0,0.0,0.0,0.0,0.0,0.0,0.0,0.0,0.0,0.0,0.0,0.0,0.0,0.0,0.0,0.0,0.0,0.0,0.0,0.0,0.0,0.0,0.0,0.0,0.0,0.0,0.0,0.0,0.0,0.0,0.0,0.0,0.0,0.0,0.0,0.0,0.0,0.0,0.0,0.0,0.0,0.0,0.0,0.0,0.0,0.0,0.0,0.0,0.0,0.0,0.0,0.0,0.0,0.0,0.0,0.0,0.0,0.0,0.0,0.0,0.0,0.0,0.0,0.0,0.0,0.0,0.0,0.0,0.0,0.0,0.0,0.0,0.0,0.0,0.0,0.0,0.0,0.0,0.0,0.0,0.0,0.0,0.0,0.0,0.0,0.0,0.0,0.0,0.0,0.0,0.0,0.0,0.0,0.0,0.0,0.0,0.0,0.0,0.0,0.0,0.0,0.0,0.0,0.0,0.0,0.0,0.0,0.0,0.0,0.0,0.0,0.0,0.0,0.0,0.0,0.0,0.0,0.0,0.0,0.0,0.0,0.0,0.0,0.0,0.0,0.0,0.0,0.0,0.0,0.0,0.0,0.0,0.0,0.0,0.0,0.0,0.0,0.0,0.0,0.0,0.0,0.0,0.0,0.0,0.0,0.0,0.0,0.0,0.0,0.0,0.0,0.0,0.0,0.0,0.0,0.0,0.0,0.0,0.0,0.0,0.0,0.0,0.0,0.0,0.0,0.0,0.0,0.0,0.0,0.0,0.0,0.0,0.0,0.0,0.0,0.0,0.0,0.0,0.0,0.0,0.0,0.0,0.0,0.0,0.0,0.0,0.0,0.0,0.0,0.0,0.0,0.0,0.0,0.0,0.0,0.0,0.0,0.0,0.0,0.0,0.0,0.0,0.0,0.0,0.0,0.0,0.0,0.0,0.0,0.0,0.0,0.0,0.0,0.0,0.0,0.0,0.0,0.0,0.0,0.0,0.0,0.0,0.0,0.0,0.0,0.0,0.0,0.0,0.0,0.0,0.0,0.0,0.0,0.0,0.0,0.0,0.0,0.0,0.0,0.0,0.0,0.0,0.0,0.0,0.0,0.0,0.0,0.0,0.0,0.0,0.0,0.0,0.0,0.0,0.0,0.0,0.0,0.0,0.0,0.0,0.0,0.0,0.0,0.0,0.0,0.0,0.0,0.0,0.0,0.0,0.0,0.0,0.0,0.0,0.0,0.0,0.0,0.0,0.0,0.0,0.0,0.0,0.0,0.0,0.0,0.0,0.0,0.0,0.0,0.0,0.0,0.0,0.0,0.0,0.0,0.0,0.0,0.0,0.0,0.0,0.0,0.0,0.0,0.0,0.0,0.0,0.0,0.0,0.0,0.0,0.0,0.0,0.0,0.0,0.0,0.0,0.0,0.0,0.0,0.0,0.0,0.0,0.0,0.0,0.0,0.0,0.0,0.0,0.0,0.0,0.0,0.0,0.0,0.0,0.0,0.0,0.0,0.0,0.0,0.0,0.0,0.0,0.0,0.0,0.0,0.0,0.0,0.0,0.0,0.0,0.0,0.0,0.0,0.0,0.0,0.0,0.0,0.0,0.0,0.0,0.0,0.0,0.0,0.0,0.0,0.0,0.0,0.0,0.0,0.0,0.0,0.0,0.0,0.0,0.0,0.0,0.0,0.0,0.0,0.0,0.0,0.0,0.0,0.0,0.0,0.0,0.0,0.0,0.0,0.0,0.0,0.0,0.0,0.0,0.0,0.0,0.0,0.0,0.0,0.0,0.0,0.0,0.0,0.0,0.0,0.0,0.0,0.0,0.0,0.0,0.0,0.0,0.0,0.0,0.0,0.0,0.0,0.0,0.0,0.0,0.0,0.0,0.0,0.0,0.0,0.0,0.0,0.0,0.0,0.0,0.0,0.0,0.0,0.0,0.0,0.0,0.0,0.0,0.0,0.0,0.0,0.0,0.0,0.0,0.0,0.0,0.0,0.0,0.0,0.0,0.0,0.0,0.0,0.0,0.0,0.0,0.0,0.0,0.0,0.0,0.0,0.0,0.0,0.0,0.0,0.0,0.0,0.0,0.0,0.0,0.0,0.0,0.0,0.0,0.0,0.0,0.0,0.0,0.0,0.0,0.0,0.0,0.0,0.0,0.0,0.0,0.0,0.0,0.0,0.0,0.0,0.0,0.0,0.0,0.0,0.0,0.0,0.0,0.0,0.0,0.0,0.0,0.0,0.0,0.0,0.0,0.0,0.0,0.0,0.0,0.0,0.0,0.0,0.0,0.0,0.0,0.0,0.0,0.0,0.0,0.0,0.0,0.0,0.0,0.0,0.0,0.0,0.0,0.0,0.0,0.0,0.0,0.0,0.0,0.0,0.0,0.0,0.0,0.0,0.0,0.0,0.0,0.0,0.0,0.0,0.0,0.0,0.0,0.0,0.0,0.0,0.0,0.0,0.0,0.0,0.0,0.0,0.0,0.0,0.0,0.0,0.0,0.0,0.0,0.0,0.0,0.0,0.0,0.0,0.0,0.0,0.0,0.0,0.0,0.0,0.0,0.0,0.0,0.0,0.0,0.0,0.0,0.0,0.0,0.0,0.0,0.0,0.0,0.0,0.0,0.0,0.0,0.0,0.0,0.0,0.0,0.0,0.0,0.0,0.0,0.0,0.0,0.0,0.0,0.0,0.0,0.0,0.0,0.0,0.0,0.0,0.0,0.0,0.0,0.0,0.0,0.0,0.0,0.0,0.0,0.0,0.0,-5.0765,0.0,0.0,0.0,0.0,0.0,0.0,0.0,0.0,0.0,0.0,0.0,0.0,0.0,0.0,0.0,0.0,0.0,0.0,0.0,0.0,0.0,0.0,0.0,0.0,0.0,0.0,0.0,0.0,0.0,0.0,0.0,0.0,0.0,0.0,0.0,0.0,0.0,0.0,0.0,0.0,0.0,0.0,0.0,0.0,0.0,0.0,0.0,0.0,0.0,0.0,0.0,0.0,0.0,0.0,0.0,0.0,0.0,0.0,0.0,0.0,0.0,0.0,0.0,0.0,0.0,0.0,0.0,0.0,0.0,0.0,0.0,0.0,0.0,0.0,0.0,0.0,0.0,0.0,0.0,0.0,0.0,0.0,0.0,0.0,0.0,0.0,0.0,0.0,0.0,0.0,0.0,0.0,0.0,0.0,0.0,0.0,0.0,0.0,0.0,0.0,0.0,0.0,0.0,0.0,0.0,0.0,0.0,0.0,0.0,0.0,-5.3203,-5.3167,-5.1646,-5.0802,-5.0765,0.0,0.0,0.0,0.0,0.0,0.0,0.0,0.0,0.0,0.0,0.0,0.0,0.0,0.0,0.0,0.0,0.0,0.0,0.0,0.0,0.0,0.0,0.0,0.0,0.0,0.0,0.0,0.0,0.0,0.0,0.0,0.0,0.0,0.0,0.0,0.0,0.0,0.0,0.0,0.0,0.0,0.0,0.0,0.0,0.0,0.0,0.0,0.0,0.0,0.0,0.0,0.0,0.0,0.0,0.0,0.0,0.0,0.0,0.0,0.0,0.0,0.0,0.0,0.0,0.0,0.0,0.0,0.0,0.0,0.0,0.0,0.0,0.0,0.0,0.0,0.0,0.0,0.0,0.0,0.0,0.0,0.0,0.0,0.0,0.0,0.0,0.0,0.0,0.0,0.0,0.0,0.0,0.0,0.0,0.0,0.0,0.0,0.0,0.0,0.0,0.0,0.0,0.0,0.0,0.0,0.0,0.0,0.0,0.0,0.0,0.0,0.0,-5.2013,-5.0892,-5.0468,0.0,0.0,0.0,0.0,0.0,0.0,0.0,0.0,0.0,0.0,0.0,0.0,0.0,0.0,0.0,0.0,0.0,0.0,0.0,0.0,0.0,0.0,0.0,0.0,0.0,0.0,0.0,0.0,0.0,0.0,0.0,0.0,0.0,0.0,0.0,0.0,0.0,0.0,0.0,0.0,0.0,0.0,0.0,0.0,0.0,0.0,0.0,0.0,0.0,0.0,0.0,0.0,0.0,0.0,0.0,0.0,0.0,0.0,0.0,0.0,0.0,0.0,0.0,0.0,0.0,0.0,0.0,0.0,0.0,0.0,0.0,0.0,0.0,0.0,0.0,0.0,0.0,0.0,0.0,0.0,0.0,0.0,0.0,0.0,0.0,0.0,0.0,0.0,0.0,0.0,0.0,0.0,0.0,0.0,0.0,0.0,0.0,0.0,0.0,0.0,0.0,0.0,0.0,0.0,0.0,0.0,0.0,0.0,0.0,0.0,-5.3885,-5.528,-5.3078,0.0,-4.9598,0.0,0.0,0.0,0.0,0.0,0.0,0.0,0.0,0.0,0.0,0.0,0.0,0.0,0.0,0.0,0.0,0.0,0.0,0.0,0.0,0.0,0.0,0.0,0.0,0.0,0.0,0.0,0.0,0.0,0.0,0.0,0.0,0.0,0.0,0.0,0.0,0.0,0.0,0.0,0.0,0.0,0.0,0.0,0.0,0.0,0.0,0.0,0.0,0.0,0.0,0.0,0.0,0.0,0.0,0.0,0.0,0.0,0.0,0.0,0.0,0.0,0.0,0.0,0.0,0.0,0.0,0.0,0.0,0.0,0.0,0.0,0.0,0.0,0.0,0.0,0.0,0.0,0.0,0.0,0.0,0.0,0.0,0.0,0.0,0.0,0.0,0.0,0.0,0.0,0.0,0.0,0.0,0.0,0.0,0.0,0.0,0.0,0.0,0.0,0.0,0.0,0.0,0.0,0.0,0.0,0.0,0.0,0.0,0.0,0.0,-5.517,-5.6271,-5.3959,-5.1438,0.0,0.0,0.0,0.0,0.0,0.0,0.0,0.0,0.0,0.0,0.0,0.0,0.0,0.0,0.0,0.0,0.0,0.0,0.0,0.0,0.0,0.0,0.0,0.0,0.0,0.0,0.0,0.0,0.0,0.0,0.0,0.0,0.0,0.0,0.0,0.0,0.0,0.0,0.0,0.0,0.0,0.0,0.0,0.0,0.0,0.0,0.0,0.0,0.0,0.0,0.0,0.0,0.0,0.0,0.0,0.0,0.0,0.0,0.0,0.0,0.0,0.0,0.0,0.0,0.0,0.0,0.0,0.0,0.0,0.0,0.0,0.0,0.0,0.0,0.0,0.0,0.0,0.0,0.0,0.0,0.0,0.0,0.0,0.0,0.0,0.0,0.0,0.0,0.0,0.0,0.0,0.0,0.0,0.0,0.0,0.0,0.0,0.0,0.0,0.0,0.0,0.0,0.0,0.0,0.0,0.0,0.0,0.0,0.0,0.0,-5.4876,-5.5207,-5.5684,-5.3922,-5.1454,-4.8567,0.0,0.0,0.0,0.0,0.0,0.0,0.0,0.0,0.0,0.0,0.0,0.0,0.0,0.0,0.0,0.0,0.0,0.0,0.0,0.0,0.0,0.0,0.0,0.0,0.0,0.0,0.0,0.0,0.0,0.0,0.0,0.0,0.0,0.0,0.0,0.0,0.0,0.0,0.0,0.0,0.0,0.0,0.0,0.0,0.0,0.0,0.0,0.0,0.0,0.0,0.0,0.0,0.0,0.0,0.0,0.0,0.0,0.0,0.0,0.0,0.0,0.0,0.0,0.0,0.0,0.0,0.0,0.0,0.0,0.0,0.0,0.0,0.0,0.0,0.0,0.0,0.0,0.0,0.0,0.0,0.0,0.0,0.0,0.0,0.0,0.0,0.0,0.0,0.0,0.0,0.0,0.0,0.0,0.0,0.0,0.0,0.0,0.0,0.0,0.0,0.0,0.0,0.0,0.0,0.0,0.0,0.0,0.0,-5.539,-5.4142,-5.335,-5.3424,-5.2527,-5.1119,0.0,0.0,0.0,0.0,0.0,0.0,0.0,0.0,0.0,0.0,0.0,0.0,0.0,0.0,0.0,0.0,0.0,0.0,0.0,0.0,0.0,0.0,0.0,0.0,0.0,0.0,0.0,0.0,0.0,0.0,0.0,0.0,0.0,0.0,0.0,0.0,0.0,0.0,0.0,0.0,0.0,0.0,0.0,0.0,0.0,0.0,0.0,0.0,0.0,0.0,0.0,0.0,0.0,0.0,0.0,0.0,0.0,0.0,0.0,0.0,0.0,0.0,0.0,0.0,0.0,0.0,0.0,0.0,0.0,0.0,0.0,0.0,0.0,0.0,0.0,0.0,0.0,0.0,0.0,0.0,0.0,0.0,0.0,0.0,0.0,0.0,0.0,0.0,0.0,0.0,0.0,0.0,0.0,0.0,0.0,0.0,0.0,0.0,0.0,0.0,0.0,0.0,0.0,0.0,0.0,0.0,0.0,0.0,0.0,-5.4546,-5.5021,-5.4509,-5.301,-5.2169,-5.0378,0.0,0.0,0.0,0.0,0.0,0.0,0.0,0.0,0.0,0.0,0.0,0.0,0.0,0.0,0.0,0.0,0.0,0.0,0.0,0.0,0.0,0.0,0.0,0.0,0.0,0.0,0.0,0.0,0.0,0.0,0.0,0.0,0.0,0.0,0.0,0.0,0.0,0.0,0.0,0.0,0.0,0.0,0.0,0.0,0.0,0.0,0.0,0.0,0.0,0.0,0.0,0.0,0.0,0.0,0.0,0.0,0.0,0.0,0.0,0.0,0.0,0.0,0.0,0.0,0.0,0.0,0.0,0.0,0.0,0.0,0.0,0.0,0.0,0.0,0.0,0.0,0.0,0.0,0.0,0.0,0.0,0.0,0.0,0.0,0.0,0.0,0.0,0.0,0.0,0.0,0.0,0.0,0.0,0.0,0.0,0.0,0.0,0.0,0.0,0.0,0.0,0.0,0.0,0.0,0.0,0.0,0.0,0.0,0.0,-5.3826,0.0,-5.552,-5.3212,-5.1872,-4.9813,0.0,0.0,0.0,0.0,0.0,0.0,0.0,0.0,0.0,0.0,0.0,0.0,0.0,0.0,0.0,0.0,0.0,0.0,0.0,0.0,0.0,0.0,0.0,0.0,0.0,0.0,0.0,0.0,0.0,0.0,0.0,0.0,0.0,0.0,0.0,0.0,0.0,0.0,0.0,0.0,0.0,0.0,0.0,0.0,0.0,0.0,0.0,0.0,0.0,0.0,0.0,0.0,0.0,0.0,0.0,0.0,0.0,0.0,0.0,0.0,0.0,0.0,0.0,0.0,0.0,0.0,0.0,0.0,0.0,0.0,0.0,0.0,0.0,0.0,0.0,0.0,0.0,0.0,0.0,0.0,0.0,0.0,0.0,0.0,0.0,0.0,0.0,0.0,0.0,0.0,0.0,0.0,0.0,0.0,0.0,0.0,0.0,0.0,0.0,0.0,0.0,0.0,0.0,0.0,0.0,0.0,0.0,0.0,-5.218,-5.3435,-5.5822,-5.6018,-5.3852,-5.1639,-4.9458,0.0,0.0,0.0,0.0,0.0,0.0,0.0,0.0,0.0,0.0,0.0,0.0,0.0,0.0,0.0,0.0,0.0,0.0,0.0,0.0,0.0,0.0,0.0,0.0,0.0,0.0,0.0,0.0,0.0,0.0,0.0,0.0,0.0,0.0,0.0,0.0,0.0,0.0,0.0,0.0,0.0,0.0,0.0,0.0,0.0,0.0,0.0,0.0,0.0,0.0,0.0,0.0,0.0,0.0,0.0,0.0,0.0,0.0,0.0,0.0,0.0,0.0,0.0,0.0,0.0,0.0,0.0,0.0,0.0,0.0,0.0,0.0,0.0,0.0,0.0,0.0,0.0,0.0,0.0,0.0,0.0,0.0,0.0,0.0,0.0,0.0,0.0,0.0,0.0,0.0,0.0,0.0,0.0,0.0,0.0,0.0,0.0,0.0,0.0,0.0,0.0,0.0,0.0,0.0,0.0,0.0,0.0,0.0,0.0,-5.2721,-5.4694,-5.5261,-5.4168,-5.2131,-4.9784,0.0,0.0,0.0,0.0,0.0,0.0,0.0,0.0,0.0,0.0,0.0,0.0,0.0,0.0,0.0,0.0,0.0,0.0,0.0,0.0,0.0,0.0,0.0,0.0,0.0,0.0,0.0,0.0,0.0,0.0,0.0,0.0,0.0,0.0,0.0,0.0,0.0,0.0,0.0,0.0,0.0,0.0,0.0,0.0,0.0,0.0,0.0,0.0,0.0,0.0,0.0,0.0,0.0,0.0,0.0,0.0,0.0,0.0,0.0,0.0,0.0,0.0,0.0,0.0,0.0,0.0,0.0,0.0,0.0,0.0,0.0,0.0,0.0,0.0,0.0,0.0,0.0,0.0,0.0,0.0,0.0,0.0,0.0,0.0,0.0,0.0,0.0,0.0,0.0,0.0,0.0,0.0,0.0,0.0,0.0,0.0,0.0,0.0,0.0,0.0,0.0,0.0,0.0,0.0,0.0,0.0,0.0,0.0,0.0,-5.3841,-5.5841,-5.656,-5.5803,-5.325,-5.0677,-4.8105,0.0,0.0,0.0,0.0,0.0,0.0,0.0,0.0,0.0,0.0,0.0,0.0,0.0,0.0,0.0,0.0,0.0,0.0,0.0,0.0,0.0,0.0,0.0,0.0,0.0,0.0,0.0,0.0,0.0,0.0,0.0,0.0,0.0,0.0,0.0,0.0,0.0,0.0,0.0,0.0,0.0,0.0,0.0,0.0,0.0,0.0,0.0,0.0,0.0,0.0,0.0,0.0,0.0,0.0,0.0,0.0,0.0,0.0,0.0,0.0,0.0,0.0,0.0,0.0,0.0,0.0,0.0,0.0,0.0,0.0,0.0,0.0,0.0,0.0,0.0,0.0,0.0,0.0,0.0,0.0,0.0,0.0,0.0,0.0,0.0,0.0,0.0,0.0,0.0,0.0,0.0,0.0,0.0,0.0,0.0,0.0,0.0,0.0,0.0,0.0,0.0,0.0,0.0,0.0,0.0,0.0,0.0,0.0,-5.6406,-5.9,-5.965,-5.8164,-5.4827,-5.1986,0.0,0.0,0.0,0.0,0.0,0.0,0.0,0.0,0.0,0.0,0.0,0.0,0.0,0.0,0.0,0.0,0.0,0.0,0.0,0.0,0.0,0.0,0.0,0.0,0.0,0.0,0.0,0.0,0.0,0.0,0.0,0.0,0.0,0.0,0.0,0.0,0.0,0.0,0.0,0.0,0.0,0.0,0.0,0.0,0.0,0.0,0.0,0.0,0.0,0.0,0.0,0.0,0.0,0.0,0.0,0.0,0.0,0.0,0.0,0.0,0.0,0.0,0.0,0.0,0.0,0.0,0.0,0.0,0.0,0.0,0.0,0.0,0.0,0.0,0.0,0.0,0.0,0.0,0.0,0.0,0.0,0.0,0.0,0.0,0.0,0.0,0.0,0.0,0.0,0.0,0.0,0.0,0.0,0.0,0.0,0.0,0.0,0.0,0.0,0.0,0.0,0.0,0.0,0.0,0.0,0.0,0.0,0.0,0.0,-5.923,-6.2778,-6.2845,-5.916,-5.6741,-5.357,0.0,0.0,0.0,0.0,0.0,0.0,0.0,0.0,0.0,0.0,0.0,0.0,0.0,0.0,0.0,0.0,0.0,0.0,0.0,0.0,0.0,0.0,0.0,0.0,0.0,0.0,0.0,0.0,0.0,0.0,0.0,0.0,0.0,0.0,0.0,0.0,0.0,0.0,0.0,0.0,0.0,0.0,0.0,0.0,0.0,0.0,0.0,0.0,0.0,0.0,0.0,0.0,0.0,0.0,0.0,0.0,0.0,0.0,0.0,0.0,0.0,0.0,0.0,0.0,0.0,0.0,0.0,0.0,0.0,0.0,0.0,0.0,0.0,0.0,0.0,0.0,0.0,0.0,0.0,0.0,0.0,0.0,0.0,0.0,0.0,0.0,0.0,0.0,0.0,0.0,0.0,0.0,0.0,0.0,0.0,0.0,0.0,0.0,0.0,0.0,0.0,0.0,0.0,0.0,0.0,0.0,0.0,0.0,-5.7683,-6.1219,-6.561,-6.579,-6.1244,-5.8454,-5.5073,0.0,0.0,0.0,0.0,0.0,0.0,0.0,0.0,0.0,0.0,0.0,0.0,0.0,0.0,0.0,0.0,0.0,0.0,0.0,0.0,0.0,0.0,0.0,0.0,0.0,0.0,0.0,0.0,0.0,0.0,0.0,0.0,0.0,0.0,0.0,0.0,0.0,0.0,0.0,0.0,0.0,0.0,0.0,0.0,0.0,0.0,0.0,0.0,0.0,0.0,0.0,0.0,0.0,0.0,0.0,0.0,0.0,0.0,0.0,0.0,0.0,0.0,0.0,0.0,0.0,0.0,0.0,0.0,0.0,0.0,0.0,0.0,0.0,0.0,0.0,0.0,0.0,0.0,0.0,0.0,0.0,0.0,0.0,0.0,0.0,0.0,0.0,0.0,0.0,0.0,0.0,0.0,0.0,0.0,0.0,0.0,0.0,0.0,0.0,0.0,0.0,0.0,0.0,0.0,0.0,0.0,0.0,0.0,-5.9505,-6.2584,-6.759,-6.8166,-6.3937,-6.0062,-5.6435,0.0,0.0,0.0,0.0,0.0,0.0,0.0,0.0,0.0,0.0,0.0,0.0,0.0,0.0,0.0,0.0,0.0,0.0,0.0,0.0,0.0,0.0,0.0,0.0,0.0,0.0,0.0,0.0,0.0,0.0,0.0,0.0,0.0,0.0,0.0,0.0,0.0,0.0,0.0,0.0,0.0,0.0,0.0,0.0,0.0,0.0,0.0,0.0,0.0,0.0,0.0,0.0,0.0,0.0,0.0,0.0,0.0,0.0,0.0,0.0,0.0,0.0,0.0,0.0,0.0,0.0,0.0,0.0,0.0,0.0,0.0,0.0,0.0,0.0,0.0,0.0,0.0,0.0,0.0,0.0,0.0,0.0,0.0,0.0,0.0,0.0,0.0,0.0,0.0,0.0,0.0,0.0,0.0,0.0,0.0,0.0,0.0,0.0,0.0,0.0,0.0,0.0,0.0,0.0,0.0,0.0,0.0,0.0,-6.052,-6.4072,-6.8098,-6.891,-6.617,-6.1893,-5.7386,0.0,0.0,0.0,0.0,0.0,0.0,0.0,0.0,0.0,0.0,0.0,0.0,0.0,0.0,0.0,0.0,0.0,0.0,0.0,0.0,0.0,0.0,0.0,0.0,0.0,0.0,0.0,0.0,0.0,0.0,0.0,0.0,0.0,0.0,0.0,0.0,0.0,0.0,0.0,0.0,0.0,0.0,0.0,0.0,0.0,0.0,0.0,0.0,-4.7051,0.0,0.0,0.0,0.0,0.0,0.0,0.0,0.0,0.0,0.0,0.0,0.0,0.0,0.0,0.0,0.0,0.0,0.0,0.0,0.0,0.0,0.0,0.0,0.0,0.0,0.0,0.0,0.0,0.0,0.0,0.0,0.0,0.0,0.0,0.0,0.0,0.0,0.0,0.0,0.0,0.0,0.0,0.0,0.0,0.0,0.0,0.0,0.0,0.0,0.0,0.0,0.0,0.0,0.0,0.0,0.0,0.0,0.0,0.0,-6.1896,-6.5262,-6.8594,-6.9267,-6.7012,-6.368,-5.938,0.0,0.0,0.0,0.0,0.0,0.0,0.0,0.0,0.0,0.0,0.0,0.0,0.0,0.0,0.0,0.0,0.0,0.0,0.0,0.0,0.0,0.0,0.0,0.0,0.0,0.0,0.0,0.0,0.0,0.0,0.0,0.0,0.0,0.0,0.0,0.0,0.0,0.0,0.0,0.0,0.0,0.0,0.0,0.0,0.0,0.0,0.0,0.0,0.0,0.0,0.0,0.0,0.0,0.0,0.0,0.0,0.0,0.0,0.0,0.0,0.0,0.0,0.0,0.0,0.0,0.0,0.0,0.0,0.0,0.0,0.0,0.0,0.0,0.0,0.0,0.0,0.0,0.0,0.0,0.0,0.0,0.0,0.0,0.0,0.0,0.0,0.0,0.0,0.0,0.0,0.0,0.0,0.0,0.0,0.0,0.0,0.0,0.0,0.0,0.0,0.0,0.0,0.0,0.0,0.0,0.0,0.0,-5.9126,-6.3082,-6.5885,-6.8741,-6.9176,-6.71,-6.4781,-6.1126,-5.5982,0.0,0.0,0.0,0.0,0.0,0.0,0.0,0.0,0.0,0.0,0.0,0.0,0.0,0.0,0.0,0.0,0.0,0.0,0.0,0.0,0.0,0.0,0.0,0.0,0.0,0.0,0.0,0.0,0.0,0.0,0.0,0.0,0.0,0.0,0.0,0.0,0.0,0.0,-4.4959,-4.6447,0.0,0.0,0.0,0.0,0.0,0.0,0.0,0.0,-4.8409,0.0,0.0,0.0,0.0,0.0,0.0,0.0,0.0,0.0,0.0,0.0,0.0,0.0,0.0,0.0,0.0,0.0,0.0,0.0,0.0,0.0,0.0,0.0,0.0,0.0,0.0,0.0,0.0,0.0,0.0,0.0,0.0,0.0,0.0,0.0,0.0,0.0,0.0,0.0,0.0,0.0,0.0,0.0,0.0,0.0,0.0,0.0,0.0,0.0,0.0,0.0,0.0,0.0,0.0,0.0,0.0,-5.4628,-5.9321,-6.2848,-6.5115,-6.7502,-6.7982,-6.6373,-6.3584,-6.0202,-5.6258,0.0,0.0,0.0,0.0,0.0,0.0,0.0,0.0,0.0,0.0,0.0,0.0,0.0,0.0,0.0,0.0,0.0,0.0,0.0,0.0,0.0,0.0,0.0,0.0,0.0,0.0,0.0,0.0,0.0,0.0,0.0,0.0,0.0,0.0,0.0,0.0,0.0,0.0,0.0,-4.9187,-5.0236,0.0,0.0,0.0,0.0,0.0,0.0,0.0,0.0,-4.7597,0.0,0.0,0.0,0.0,0.0,0.0,0.0,0.0,0.0,0.0,0.0,0.0,0.0,0.0,0.0,0.0,0.0,0.0,0.0,0.0,0.0,0.0,0.0,0.0,0.0,0.0,0.0,0.0,0.0,0.0,0.0,0.0,0.0,0.0,0.0,0.0,0.0,0.0,0.0,0.0,0.0,0.0,0.0,0.0,0.0,0.0,0.0,0.0,0.0,0.0,0.0,0.0,0.0,0.0,0.0,-5.501,-5.9956,-6.3415,-6.517,-6.6679,-6.6546,-6.4681,-6.1816,-5.8519,0.0,0.0,0.0,0.0,0.0,0.0,0.0,0.0,0.0,0.0,0.0,0.0,0.0,0.0,0.0,0.0,0.0,0.0,0.0,0.0,0.0,0.0,0.0,0.0,0.0,0.0,0.0,0.0,0.0,0.0,0.0,0.0,0.0,0.0,0.0,0.0,0.0,0.0,0.0,0.0,-5.0744,-5.1995,-5.0845,0.0,0.0,0.0,0.0,0.0,0.0,-4.9289,-4.8511,0.0,0.0,0.0,0.0,0.0,0.0,0.0,0.0,0.0,0.0,0.0,0.0,0.0,0.0,0.0,0.0,0.0,0.0,0.0,0.0,0.0,0.0,0.0,0.0,0.0,0.0,0.0,0.0,0.0,0.0,0.0,0.0,0.0,0.0,0.0,0.0,0.0,0.0,0.0,0.0,0.0,0.0,0.0,0.0,0.0,0.0,0.0,0.0,0.0,0.0,0.0,0.0,0.0,0.0,0.0,-5.4685,-6.0008,-6.3408,-6.4662,-6.5375,-6.486,-6.2814,-5.9812,-5.6546,0.0,0.0,0.0,0.0,0.0,0.0,0.0,0.0,0.0,0.0,0.0,0.0,0.0,0.0,0.0,0.0,0.0,0.0,0.0,0.0,0.0,0.0,0.0,0.0,0.0,0.0,0.0,0.0,0.0,0.0,0.0,0.0,0.0,0.0,0.0,0.0,0.0,0.0,0.0,0.0,0.0,-5.3112,-5.1898,-5.1763,0.0,0.0,0.0,0.0,-5.0338,-5.0439,0.0,0.0,0.0,0.0,0.0,0.0,0.0,0.0,0.0,0.0,0.0,0.0,0.0,0.0,0.0,0.0,0.0,0.0,0.0,0.0,0.0,0.0,0.0,0.0,0.0,0.0,0.0,0.0,0.0,0.0,0.0,0.0,0.0,0.0,0.0,0.0,0.0,0.0,0.0,0.0,0.0,0.0,0.0,0.0,0.0,0.0,0.0,0.0,0.0,0.0,0.0,0.0,0.0,0.0,0.0,0.0,-5.3038,-5.8249,-6.1373,-6.223,-6.2945,-6.2587,-6.1105,-5.7725,-5.4475,0.0,0.0,0.0,0.0,0.0,0.0,0.0,0.0,0.0,0.0,0.0,0.0,0.0,0.0,0.0,0.0,0.0,0.0,0.0,0.0,0.0,0.0,0.0,0.0,0.0,0.0,0.0,0.0,0.0,0.0,0.0,0.0,0.0,0.0,0.0,0.0,0.0,0.0,0.0,0.0,0.0,-5.3666,-5.3463,-5.3676,-5.3615,0.0,0.0,-5.1826,-5.1183,-5.1623,0.0,0.0,0.0,0.0,0.0,0.0,0.0,0.0,0.0,0.0,0.0,0.0,0.0,0.0,0.0,0.0,0.0,0.0,0.0,0.0,0.0,0.0,0.0,0.0,0.0,0.0,0.0,0.0,0.0,0.0,0.0,0.0,0.0,0.0,0.0,0.0,0.0,0.0,0.0,0.0,0.0,0.0,0.0,0.0,0.0,0.0,0.0,0.0,0.0,0.0,0.0,0.0,0.0,0.0,0.0,-4.9205,-5.1986,-5.7478,-6.0575,-6.0863,-6.1183,-6.048,-5.869,-5.5581,-5.2452,0.0,0.0,0.0,0.0,0.0,0.0,0.0,0.0,0.0,0.0,0.0,0.0,0.0,0.0,0.0,0.0,0.0,0.0,0.0,0.0,0.0,0.0,0.0,0.0,0.0,0.0,0.0,0.0,0.0,0.0,0.0,0.0,0.0,0.0,0.0,0.0,0.0,0.0,0.0,0.0,0.0,0.0,-5.3775,-5.4365,0.0,0.0,0.0,-5.3653,-5.3754,0.0,0.0,0.0,0.0,0.0,0.0,0.0,0.0,0.0,0.0,0.0,0.0,0.0,0.0,0.0,0.0,0.0,0.0,0.0,0.0,0.0,0.0,0.0,0.0,0.0,0.0,0.0,0.0,0.0,0.0,0.0,0.0,0.0,0.0,0.0,0.0,0.0,0.0,0.0,0.0,0.0,0.0,0.0,0.0,0.0,0.0,0.0,0.0,0.0,0.0,0.0,0.0,0.0,0.0,0.0,0.0,0.0,-5.0838,-5.6634,-5.9661,-5.9818,-5.9818,-5.8907,-5.6946,-5.4047,0.0,0.0,0.0,0.0,0.0,0.0,0.0,0.0,0.0,0.0,0.0,0.0,0.0,0.0,0.0,0.0,0.0,0.0,0.0,0.0,0.0,0.0,0.0,0.0,0.0,0.0,0.0,-3.2766,0.0,0.0,0.0,0.0,0.0,0.0,0.0,0.0,0.0,0.0,0.0,0.0,0.0,0.0,-5.3043,-5.3701,-5.4835,-5.5584,0.0,0.0,-5.5336,-5.5671,-5.581,-5.4868,0.0,0.0,0.0,0.0,0.0,0.0,0.0,0.0,0.0,0.0,0.0,0.0,0.0,0.0,0.0,0.0,0.0,0.0,0.0,0.0,0.0,0.0,0.0,0.0,0.0,0.0,0.0,0.0,0.0,0.0,0.0,0.0,0.0,0.0,0.0,0.0,0.0,0.0,0.0,0.0,0.0,0.0,0.0,0.0,0.0,0.0,0.0,0.0,0.0,0.0,0.0,0.0,0.0,0.0,-4.607,-4.9573,-5.5115,-5.8215,-5.877,-5.88,-5.8153,-5.6735,-5.3421,-5.0094,0.0,0.0,0.0,0.0,0.0,0.0,0.0,0.0,0.0,0.0,0.0,0.0,0.0,0.0,0.0,0.0,0.0,0.0,0.0,0.0,0.0,0.0,0.0,0.0,0.0,0.0,0.0,0.0,0.0,0.0,0.0,0.0,0.0,0.0,0.0,0.0,0.0,0.0,0.0,0.0,0.0,-5.2454,-5.3328,-5.5205,-5.658,0.0,-5.6873,-5.6592,-5.5921,-5.6151,-5.5398,-5.2438,0.0,0.0,0.0,0.0,0.0,0.0,0.0,0.0,0.0,0.0,0.0,0.0,0.0,0.0,0.0,0.0,0.0,0.0,0.0,0.0,0.0,0.0,0.0,0.0,0.0,0.0,0.0,0.0,0.0,0.0,0.0,0.0,0.0,0.0,0.0,0.0,0.0,0.0,0.0,0.0,0.0,0.0,0.0,0.0,0.0,0.0,0.0,0.0,0.0,0.0,0.0,0.0,0.0,-4.5191,-4.8706,-5.3663,-5.6526,-5.7162,-5.7162,-5.6526,-5.5175,-5.3118,-5.0245,0.0,0.0,0.0,0.0,0.0,0.0,0.0,0.0,0.0,0.0,0.0,0.0,0.0,0.0,0.0,0.0,0.0,0.0,0.0,0.0,0.0,0.0,0.0,0.0,0.0,0.0,0.0,0.0,-3.4377,-3.4607,-3.4747,0.0,0.0,0.0,0.0,0.0,0.0,0.0,0.0,0.0,0.0,-5.1783,-5.3308,-5.5453,0.0,0.0,-5.8012,-5.8097,-5.7895,-5.7436,-5.6054,-5.3004,-5.0316,0.0,0.0,0.0,0.0,0.0,0.0,0.0,0.0,0.0,0.0,0.0,0.0,0.0,0.0,0.0,0.0,0.0,0.0,0.0,0.0,0.0,0.0,0.0,0.0,0.0,0.0,0.0,0.0,0.0,0.0,0.0,0.0,0.0,0.0,0.0,0.0,0.0,0.0,0.0,0.0,0.0,0.0,0.0,0.0,0.0,0.0,0.0,0.0,0.0,0.0,0.0,0.0,-4.3815,-4.7273,-5.1992,-5.4751,-5.5456,-5.5582,-5.5167,-5.3989,-5.2506,-4.9957,0.0,0.0,0.0,0.0,0.0,0.0,0.0,0.0,0.0,0.0,0.0,0.0,0.0,0.0,0.0,0.0,0.0,0.0,0.0,0.0,0.0,0.0,0.0,0.0,0.0,0.0,0.0,0.0,-3.5017,-3.4902,-3.4835,0.0,0.0,0.0,0.0,0.0,0.0,0.0,0.0,0.0,0.0,-5.0546,-5.2535,-5.4468,-5.6109,-5.7178,-5.7407,-5.7504,-5.7686,-5.6759,-5.516,-5.2547,0.0,0.0,0.0,0.0,0.0,0.0,0.0,0.0,0.0,0.0,0.0,0.0,0.0,0.0,0.0,0.0,0.0,0.0,0.0,0.0,0.0,0.0,0.0,0.0,0.0,0.0,0.0,-3.5588,0.0,0.0,-3.4345,0.0,0.0,0.0,0.0,0.0,0.0,0.0,0.0,0.0,0.0,0.0,0.0,0.0,0.0,0.0,0.0,0.0,0.0,0.0,0.0,0.0,0.0,-4.1649,-4.4981,-5.0037,-5.2943,-5.3635,-5.4245,-5.4192,-5.3442,-5.1614,-4.9088,-4.5808,0.0,0.0,0.0,0.0,0.0,0.0,0.0,0.0,0.0,0.0,0.0,0.0,0.0,0.0,0.0,0.0,0.0,0.0,0.0,0.0,0.0,0.0,0.0,0.0,0.0,0.0,-3.6264,-3.5159,-3.4409,0.0,0.0,0.0,0.0,0.0,0.0,0.0,0.0,0.0,0.0,-4.6292,-4.8568,-5.0757,-5.2015,-5.339,-5.4961,-5.4656,-5.4306,-5.4518,-5.3495,-5.2128,0.0,0.0,0.0,0.0,0.0,0.0,0.0,0.0,0.0,0.0,0.0,0.0,0.0,0.0,0.0,0.0,0.0,0.0,0.0,0.0,0.0,0.0,0.0,0.0,0.0,0.0,0.0,-3.6118,-3.6366,0.0,0.0,0.0,0.0,0.0,0.0,0.0,0.0,0.0,0.0,0.0,-3.7388,-3.7646,0.0,0.0,0.0,0.0,0.0,0.0,0.0,0.0,0.0,0.0,0.0,0.0,-4.064,-4.4003,-4.8021,-5.0463,-5.1135,-5.1672,-5.1646,-5.0974,-4.9571,-4.6546,-4.1775,0.0,0.0,0.0,0.0,0.0,0.0,0.0,0.0,0.0,0.0,0.0,0.0,0.0,0.0,0.0,0.0,0.0,0.0,0.0,0.0,0.0,0.0,0.0,0.0,0.0,-3.5023,0.0,0.0,0.0,0.0,0.0,0.0,0.0,0.0,0.0,0.0,0.0,-4.1624,-4.4018,-4.6886,-4.9164,-5.0321,-5.1904,-5.3287,0.0,0.0,0.0,0.0,0.0,0.0,0.0,0.0,0.0,0.0,0.0,0.0,0.0,0.0,-4.8099,-4.8283,-4.7964,-4.7447,-4.6553,0.0,0.0,0.0,0.0,0.0,0.0,0.0,0.0,0.0,0.0,0.0,0.0,0.0,0.0,-3.7068,-3.7454,-3.6058,0.0,0.0,0.0,0.0,0.0,0.0,0.0,0.0,-3.8441,-3.9196,-3.9727,-4.0058,-4.0491,0.0,-4.1158,-4.0277,0.0,0.0,0.0,0.0,0.0,0.0,0.0,0.0,-3.9671,-4.2658,-4.6417,-4.8545,-4.8982,-4.9719,-4.9964,-4.9499,-4.7728,-4.4629,-4.0177,-3.7741,-3.5345,0.0,0.0,0.0,0.0,0.0,0.0,0.0,0.0,0.0,0.0,0.0,0.0,0.0,0.0,0.0,0.0,0.0,0.0,0.0,0.0,0.0,0.0,0.0,-3.471,0.0,0.0,0.0,0.0,0.0,0.0,0.0,0.0,0.0,-3.8733,-4.0591,-4.2495,-4.4162,-4.6569,-4.8537,-4.9596,0.0,0.0,0.0,0.0,0.0,0.0,0.0,-4.9667,-4.913,-4.9402,-4.9812,-5.0025,-5.0056,-4.9993,-4.9789,0.0,0.0,-5.035,-4.9992,-4.955,-4.9094,-4.9021,-4.8818,-4.8105,-4.8545,-4.9221,0.0,0.0,0.0,0.0,0.0,0.0,0.0,0.0,-3.8341,-3.8417,0.0,-3.7139,0.0,0.0,0.0,0.0,-3.4835,-3.6388,0.0,0.0,-4.1075,-4.2183,-4.2233,-4.2735,-4.3011,-4.3011,-4.2961,-4.2359,-4.1128,-3.8409,0.0,0.0,0.0,0.0,0.0,0.0,-3.8621,-4.1148,-4.513,-4.7232,-4.7285,-4.8376,-4.8961,-4.8828,-4.6113,-4.3433,-4.1051,-3.8773,-3.6426,-3.4096,-3.2895,0.0,0.0,0.0,0.0,0.0,0.0,0.0,0.0,0.0,0.0,0.0,0.0,0.0,0.0,0.0,0.0,0.0,0.0,0.0,0.0,-3.4357,0.0,0.0,0.0,0.0,0.0,0.0,0.0,0.0,0.0,0.0,-3.9496,-4.1479,-4.3166,-4.4402,0.0,0.0,0.0,0.0,-4.9763,-5.102,-5.0846,-5.0683,-5.0849,-5.011,-4.9627,-4.9797,0.0,0.0,-5.207,-5.2194,-5.1946,-5.1336,-5.1497,-5.1836,-5.1769,-5.1569,-5.1427,-5.1257,-5.1119,-5.0948,-5.034,-5.0544,-5.1085,-4.4401,0.0,0.0,0.0,0.0,-3.9766,-3.994,-4.0384,-3.977,-3.9625,-3.9752,-3.8097,0.0,0.0,0.0,0.0,0.0,0.0,-3.8153,-3.9904,-4.1205,-4.2201,-4.2904,-4.3284,-4.3474,-4.3474,-4.3078,-4.2337,-4.12,-3.9842,-3.801,-3.577,0.0,0.0,0.0,0.0,-3.8375,-4.0721,-4.376,-4.5342,-4.54,-4.6141,-4.6141,-4.5323,-4.4122,-4.2585,-4.0695,-3.9242,-3.7636,-3.5774,-3.3887,0.0,0.0,0.0,0.0,0.0,0.0,0.0,0.0,0.0,0.0,0.0,0.0,0.0,0.0,0.0,0.0,0.0,0.0,0.0,-3.3392,-3.4621,-3.4913,0.0,0.0,0.0,0.0,0.0,0.0,0.0,0.0,0.0,-4.0321,-4.1594,-4.2851,0.0,0.0,-4.6855,-4.7804,-4.9072,-5.0092,-5.0405,-5.0797,0.0,-5.0485,-5.0186,-5.0186,-5.0729,-5.2195,-5.3239,-5.2984,-5.2923,-5.256,-5.144,-5.1194,-5.129,-5.1706,-5.2023,-5.2141,-5.2159,-5.1797,-5.143,-5.1363,-5.1497,-5.1833,-4.6787,-4.4427,-4.3022,-4.2268,-4.2064,-4.1377,-4.1231,-4.1452,-4.0731,-4.0545,-4.0638,-3.8862,-3.7818,-3.7182,-3.5716,0.0,0.0,0.0,-3.8078,-3.9919,-4.0881,-4.1721,-4.2458,-4.2938,-4.2975,-4.2759,-4.2449,-4.1992,-4.1384,-4.0769,-3.973,-3.824,0.0,0.0,-3.6182,-3.7287,-3.8743,-4.0551,-4.3156,-4.4618,-4.4618,-4.5196,-4.4945,-4.384,-4.3062,-4.2082,-4.0877,-3.9572,-3.8291,-3.7061,-3.4926,-3.3119,0.0,0.0,0.0,0.0,0.0,0.0,0.0,0.0,0.0,0.0,0.0,-2.8905,-2.9047,0.0,0.0,0.0,-3.1468,-3.2579,-3.3692,-3.4484,0.0,0.0,0.0,0.0,0.0,0.0,0.0,-3.774,-3.8998,-4.0094,-4.083,-4.1896,-4.2956,-4.3853,-4.5595,-4.7026,-4.7707,0.0,-5.0394,-5.0632,-5.1322,-5.1715,-5.128,-5.1314,-5.1528,-5.1917,-5.2725,-5.3264,-5.2905,-5.2785,-5.2426,-5.1516,-5.1194,-5.1379,-5.1888,-5.2051,-5.2204,-5.2567,-5.2372,-5.2218,-5.2293,-5.247,-5.2817,-4.7353,-4.6816,-4.5408,-4.4296,-4.3571,-4.2404,-4.2051,-4.2149,-4.1197,-4.1107,-4.1329,-3.9431,-3.8265,-3.7528,-3.5566,0.0,-3.6274,-3.6751,-3.7754,-3.9181,-4.0287,-4.0989,-4.1285,-4.1868,-4.1845,-4.1387,-4.1319,-4.1353,-4.1439,-4.1139,-4.1006,-4.101,-3.824,-3.7036,-3.7487,-3.8492,-3.9546,-4.0676,-4.3237,-4.4543,-4.4568,-4.507,-4.4819,-4.3689,-4.274,-4.1882,-4.12,-3.9823,-3.8743,-3.8115,-3.6081,-3.4173,-3.2499,0.0,0.0,0.0,0.0,0.0,0.0,0.0,0.0,0.0,0.0,0.0,0.0,0.0,0.0,0.0,-3.0381,0.0,-3.3891,-3.4166,0.0,0.0,0.0,-3.5051,-3.6201,-3.6305,-3.6959,-3.8658,0.0,0.0,-4.1246,-4.2369,-4.3273,-4.3849,-4.5633,-4.7279,-4.8141,-4.9572,-5.07,-5.1307,-5.228,-5.2921,-5.2852,-5.3098,-5.3264,-5.3204,-5.2755,-5.2456,-5.2276,-5.2217,-5.1947,-5.1349,-5.1386,-5.1665,-5.2124,-5.186,-5.1803,-5.2472,-5.2741,-5.2953,-5.2967,-5.3278,-5.3662,-4.6255,-4.61,-4.515,-4.445,-4.3849,-4.3057,-4.2196,-4.1426,-4.119,-4.0933,-4.0721,-3.9794,-3.8723,-3.7463,-3.6271,-3.6079,-3.6734,-3.6841,-3.7522,-3.8614,-3.9447,-4.0052,-4.0533,-4.1181,-4.1437,-4.1279,-4.0558,-4.0315,-4.0609,-4.0457,-4.0344,-4.0218,-4.0147,-4.0003,-3.9772,-3.9998,-4.0676,-4.181,-4.3237,-4.3991,-4.3991,-4.4141,-4.3664,-4.264,-4.2338,-4.176,-4.0752,-4.035,-3.9873,-3.9295,-3.7563,-3.6031,-3.4756,-3.224,0.0,0.0,0.0,0.0,0.0,0.0,0.0,0.0,0.0,-2.8216,-2.9602,0.0,-3.0241,0.0,-3.2352,-3.329,-3.3759,-3.4736,0.0,0.0,-3.633,-3.6828,-3.7978,-3.8083,-3.8579,-3.986,-4.054,-4.1167,-4.1873,-4.2944,-4.3809,-4.422,-4.5885,-4.7353,-4.8093,-4.9981,-5.138,-5.165,-5.2897,-5.3896,-5.3971,-5.4399,-5.4461,-5.4042,-5.3803,-5.3384,-5.2366,-5.2187,-5.1977,-5.1379,-5.1276,-5.1369,-5.1433,-5.1544,-5.1668,-5.1846,-5.2047,-5.229,-5.2573,-5.2885,-5.3233,-4.4913,-4.4838,-4.4256,-4.3721,-4.3239,-4.2496,-4.1533,-4.0566,-4.0157,-3.99,-3.9634,-3.9114,-3.831,-3.7365,-3.6856,-3.6775,-3.7065,-3.7065,-3.7463,-3.8135,-3.835,-3.879,-3.9332,-3.9537,-3.9671,-3.9563,-3.8826,-3.8731,-3.9166,-3.9002,-3.9134,-3.9581,-4.0124,-4.0209,-3.9968,-4.0542,-4.1176,-4.1798,-4.2843,-4.3415,-4.3415,-4.3415,-4.2892,-4.1823,-4.1549,-4.0902,-3.9807,-3.9534,-3.9161,-3.8639,-3.7245,-3.6001,-3.486,-3.2673,-3.0562,0.0,0.0,0.0,0.0,0.0,0.0,0.0,0.0,0.0,0.0,0.0,-3.1737,-3.3107,-3.3766,-3.447,-3.5366,-3.614,-3.6847,-3.7479,-3.7929,-3.8515,-3.9395,-3.9705,-4.0247,-4.1279,-4.1878,-4.2398,-4.2892,-4.3702,-4.441,-4.4833,-4.6215,-4.7349,-4.7889,-4.9745,-5.1179,-5.1133,-5.2684,-5.4008,-5.4237,-5.4086,-5.3893,-5.3605,-5.3068,-5.2431,-5.184,-5.1768,-5.1648,-5.1319,-5.1229,-5.1229,-5.1229,-5.1323,-5.1433,-5.1604,-5.197,-5.2206,-5.2254,-5.2533,-5.2912,-4.331,-4.3233,-4.2927,-4.2544,-4.2156,-4.1334,-4.0599,-3.9844,-3.9023,-3.8633,-3.8555,-3.8105,-3.7695,-3.7305,-3.7246,-3.7187,-3.7129,-3.7129,-3.7269,-3.7529,-3.7243,-3.7457,-3.8051,-3.7732,-3.7545,-3.7505,-3.7053,-3.7104,-3.77,-3.7422,-3.783,-3.8835,-3.9053,-3.9098,-3.9157,-4.0269,-4.095,-4.1062,-4.1964,-4.2427,-4.2452,-4.2427,-4.194,-4.0891,-4.0379,-3.9575,-3.8505,-3.8041,-3.7529,-3.6943,-3.5941,-3.4918,-3.392,-3.2386,-3.0785,0.0,-2.867,0.0,0.0,0.0,0.0,0.0,0.0,0.0,0.0,-3.2181,-3.3139,-3.4665,-3.494,-3.5683,-3.7427,-3.7728,-3.8178,-3.8934,-3.9495,-4.0056,-4.067,-4.1106,-4.1697,-4.2447,-4.3043,-4.354,-4.3727,-4.4434,-4.5062,-4.5558,-4.663,-4.7393,-4.7539,-4.9361,-5.0763,-5.0409,-5.1954,-5.3109,-5.3483,-5.2938,-5.2414,-5.2388,-5.1765,-5.0959,-5.1242,-5.1259,-5.1229,-5.1229,-5.1229,-5.1259,-5.1319,-5.1289,-5.1306,-5.166,-5.2024,-5.2285,-5.2276,-5.2503,-5.2894,-4.1638,-4.1638,-4.156,-4.1463,-4.1346,-4.0835,-4.0347,-3.9863,-3.9316,-3.8887,-3.8535,-3.8125,-3.7695,-3.7285,-3.6934,-3.6601,-3.6269,-3.6269,-3.6269,-3.6318,-3.6561,-3.6706,-3.6841,-3.7388,-3.7575,-3.7586,-3.7068,-3.6997,-3.736,-3.7095,-3.7214,-3.7747,-3.8238,-3.8469,-3.8469,0.0,0.0,0.0,-3.9814,-3.9907,-3.9907,-3.9907,-3.9418,-3.8418,-3.8278,0.0,-3.6267,-3.6027,-3.5777,-3.5263,-3.4629,0.0,0.0,0.0,0.0,0.0,0.0,0.0,0.0,0.0,0.0,0.0,-3.1275,-3.1971,-3.2749,-3.3695,-3.4558,-3.5275,-3.6185,-3.6875,-3.7245,-3.8466,-3.9472,-4.0129,-4.0643,-4.1208,-4.1746,-4.1899,-4.2027,-4.2182,-4.2883,-4.3433,-4.3564,-4.4611,-4.5425,-4.5715,-4.6996,-4.7733,-4.7385,-4.9356,-5.0572,-5.0305,-5.0874,-5.1373,-5.1456,-5.1647,-5.1481,-5.1212,-5.1248,-5.1195,-5.1178,-5.1182,-5.1182,-5.1182,-5.1229,-5.1362,-5.1858,-5.1588,-5.1349,-5.1982,-5.1755,-5.1717,-5.2607,-5.2993,-5.3239,-4.1172,-4.1172,-4.1172,-4.1172,0.0,-4.0937,-4.0605,-4.0156,-3.9492,-3.8965,-3.8555,-3.834,-3.8008,-3.7598,-3.7168,-3.6738,-3.6328,-3.6113,-3.6133,-3.6328,-3.6298,-3.6454,-3.6856,-3.6977,-3.7159,-3.7269,-3.6811,-3.674,-3.7019,-3.6414,-3.6345,-3.6763,-3.6875,-3.6868,-3.6868,-3.6868,-3.7451,-3.8766,-3.8766,-3.8766,-3.8766,-3.8766,-3.8403,-3.762,-3.7383,0.0,0.0,0.0,0.0,0.0,0.0,0.0,0.0,0.0,0.0,-2.9959,-3.0047,-2.9933,-2.9462,-3.0289,-3.1211,-3.2099,-3.3016,-3.3635,-3.3713,-3.4473,-3.5254,-3.6034,-3.663,-3.7215,-3.782,-3.8834,-3.9755,-4.0397,-4.1207,-4.1859,-4.2138,-4.2363,-4.2624,-4.2732,-4.3125,-4.3521,-4.3818,-4.4707,-4.5549,-4.6081,-4.7519,-4.8512,-4.8381,-4.9401,-5.0278,-5.0174,-5.0008,-5.0078,-5.0319,-5.016,-5.0285,-5.0213,-5.0287,-5.0486,-5.0816,-5.0852,-5.0899,-5.0964,-5.1011,-5.113,-5.1541,-5.1439,-5.1319,-5.1618,-5.1708,-5.1815,-5.2459,-5.242,-5.2318,-4.1172,-4.1172,-4.1172,-4.1172,-4.1172,-4.1172,-4.0879,-4.0351,0.0,0.0,0.0,-3.8574,-3.8301,-3.7793,-3.7461,-3.7031,-3.6543,-3.6191,-3.6211,-3.6543,-3.6191,-3.6348,-3.6937,-3.6629,-3.6589,-3.6846,-3.655,-3.6521,-3.6758,-3.5934,-3.5728,-3.6039,-3.5645,-3.5418,-3.5418,-3.5418,-3.6197,-3.7692,-3.7752,-3.7774,-3.7752,-3.7752,-3.7531,-3.7045,-3.6647,-3.5941,-3.4869,-3.445,-3.3842,-3.284,-3.2774,-3.2421,-3.1649,-3.1995,-3.1834,-3.1036,-3.1387,-3.1622,-3.1622,-3.206,-3.277,-3.368,-3.4494,-3.4858,-3.4645,-3.51,-3.5713,-3.6622,-3.6758,-3.729,-3.8348,-3.9179,-3.9946,-4.055,-4.1706,-4.2449,-4.2399,-4.2724,-4.3006,-4.3154,-4.3134,-4.3513,-4.4138,-4.4793,-4.5585,-4.6569,-4.8015,-4.9087,-4.9139,-4.9427,-4.9823,-4.9978,-4.9469,-4.9056,-4.9173,-4.8922,-4.8621,-4.8985,-4.8966,-4.9227,-4.9844,-5.0135,-5.0298,-5.0508,-5.065,-5.0929,-5.1255,-5.1319,-5.1289,-5.1349,-5.1708,-5.2037,-5.1977,-5.1618,-5.1366,-4.1172,-4.1172,-4.1172,-4.1172,-4.1172,-4.1172,-4.0723,-3.9961,-3.9434,-3.8965,-3.8574,-3.8574,-3.8125,-3.7383,-3.7324,-3.6875,-3.6133,-3.6055,-3.6055,-3.6094,-3.6055,-3.6055,-3.6181,-3.6423,-3.6479,-3.6602,-3.6734,-3.684,-3.6803,-3.6261,-3.6059,-3.6059,-3.5645,-3.5418,-3.5418,-3.5418,-3.5541,-3.5788,-3.5788,-3.5788,-3.5849,-3.5788,-3.564,-3.52,-3.5095,-3.4446,-3.3131,-3.3006,-3.2546,-3.1701,-3.1638,-3.1575,-3.1491,-3.1814,-3.1947,-3.1863,-3.226,-3.2511,-3.2511,-3.2928,-3.3466,-3.3968,-3.4156,-3.463,-3.5569,-3.5737,-3.6061,-3.662,-3.7045,-3.7546,-3.8111,-3.9639,-4.0775,-4.129,-4.2613,-4.3308,-4.2758,-4.2782,-4.2659,-4.2298,-4.2481,-4.2906,-4.3646,-4.4769,-4.5782,-4.6772,-4.812,-4.9113,-4.9053,-4.9139,-4.9225,-4.9186,-4.872,-4.8021,-4.7539,-4.7367,-4.7379,-4.6908,-4.7395,-4.7875,-4.8424,-4.8823,-4.9219,-4.9708,-5.0154,-5.084,-5.1715,-5.1588,-5.1451,-5.172,-5.1613,-5.1391,-5.1391,-5.1242,-5.1379,-4.1172,-4.1172,-4.1172,-4.1172,-4.1172,-4.1172,-4.0684,-3.9902,-3.9668,-3.9199,-3.8594,-3.8574,-3.8223,-3.7637,-3.7402,-3.6953,-3.6348,-3.5898,-3.5801,-3.5996,-3.5781,-3.5801,-3.5996,-3.6132,-3.6336,-3.6499,-3.6656,-3.6757,-3.6896,-3.6282,-3.5963,-3.5922,-3.5394,-3.517,-3.5108,-3.5294,-3.5418,-3.5418,-3.5418,-3.5418,-3.5418,-3.5418,-3.5335,-3.5107,-3.4961,-3.4362,-3.3492,-3.3223,-3.2664,-3.1774,-3.1981,-3.2002,-3.1774,-3.2395,-3.2768,-3.2789,-3.3203,-3.3451,-3.3451,-3.3865,-3.432,-3.4755,-3.4797,-3.5016,-3.5563,-3.5425,-3.5489,-3.5939,-3.6471,-3.6932,-3.7461,-3.8847,-3.9984,-4.0494,-4.1429,-4.1898,-4.1685,-4.1638,-4.1484,-4.1011,-4.1009,-4.1455,-4.2394,-4.3853,-4.5246,-4.6408,-4.788,-4.886,-4.8635,-4.8703,-4.8752,-4.8557,-4.8094,-4.7571,-4.6996,-4.6968,-4.6939,-4.6678,-4.6968,-4.7304,-4.7545,-4.792,-4.8424,-4.9071,-4.9542,-5.0174,-5.1106,-5.1042,-5.1012,-5.1101,-5.1072,-5.0882,-5.0947,-5.1058,-5.1349,-4.1172,-4.1172,-4.1172,-4.1172,-4.1172,-4.1172,-4.0684,-3.9922,-3.9883,-3.9394,-3.8652,-3.8574,-3.832,-3.791,-3.7578,-3.7207,-3.6758,-3.6133,-3.5957,-3.6113,-3.584,-3.582,-3.5996,-3.6035,-3.6152,-3.6384,-3.6451,-3.6654,-3.6844,-3.6193,-3.565,-3.5473,-3.5017,-3.4797,-3.4922,-3.517,-3.5294,-3.5418,-3.5418,-3.5418,-3.5418,-3.5418,-3.5418,-3.5397,-3.5086,-3.4754,-3.4238,-3.3865,-3.3327,-3.2582,-3.2851,-3.2871,-3.2561,-3.3244,-3.3699,-3.3779,-3.4113,-3.4383,-3.4383,-3.4714,-3.5045,-3.5397,-3.5418,-3.5418,-3.5397,-3.5211,-3.519,-3.5562,-3.5936,-3.6373,-3.7148,-3.8161,-3.901,-3.9574,-4.031,-4.0829,-4.063,-4.0455,-4.0243,-3.9787,-3.9605,-3.9979,-4.121,-4.282,-4.4656,-4.6577,-4.7856,-4.8391,-4.8179,-4.8215,-4.8143,-4.8075,-4.7748,-4.7519,-4.7362,-4.7166,-4.6898,-4.6649,-4.6705,-4.6678,-4.6669,-4.6922,-4.7438,-4.8044,-4.8524,-4.905,-4.9717,-4.9912,-4.9863,-4.9873,-4.9941,-5.0202,-5.0632,-5.0964,-5.1182,-4.1172,-4.1172,-4.1172,-4.1172,-4.1172,-4.1152,-4.0684,-3.9941,-3.9883,-3.9394,-3.8613,-3.8574,-3.834,-3.7949,-3.7891,-3.7637,-3.7266,-3.7168,-3.6934,-3.6621,-3.6582,-3.6367,-3.6035,-3.6035,-3.6016,-3.6084,-3.6336,-3.6519,-3.6547,-3.6042,-3.5369,-3.4644,-3.4463,-3.461,-3.4859,-3.4922,-3.5108,-3.5418,-3.5418,-3.5418,-3.5418,-3.5418,-3.5418,-3.5418,-3.5376,-3.5148,-3.4733,-3.4712,-3.4443,-3.3948,-3.3886,-3.3906,-3.3986,-3.4362,-3.4691,-3.4631,-3.5045,-3.5293,-3.5293,-3.5335,-3.5376,-3.5418,-3.5438,-3.5438,-3.5459,-3.5769,-3.5997,-3.608,-3.6101,-3.6539,-3.7212,-3.8274,-3.9044,-3.9407,-4.0354,-4.1021,-4.0446,-4.0123,-3.9652,-3.9097,-3.8618,-3.9055,-4.0525,-4.2221,-4.4536,-4.7244,-4.7727,-4.7871,-4.7956,-4.7744,-4.7529,-4.7729,-4.7919,-4.7827,-4.7435,-4.731,-4.6926,-4.6091,-4.5829,-4.5757,-4.5659,-4.5715,-4.6007,-4.7007,-4.7205,-4.7717,-4.8145,-4.8245,-4.8296,-4.8546,-4.8873,-4.9317,-5.0279,-5.0852,-5.1088,-4.1172,-4.1172,-4.1172,-4.1172,-4.1152,-4.0898,-4.0449,-3.9902,-3.959,-3.9141,-3.8633,-3.8574,-3.8476,-3.832,-3.8301,-3.8203,-3.8047,-3.7793,-3.7441,-3.7051,-3.6797,-3.6445,-3.6055,-3.6035,-3.6035,-3.6016,-3.6152,-3.62,-3.6062,-3.5534,-3.4848,-3.4274,-3.4124,-3.4173,-3.4298,-3.4485,-3.4673,-3.4797,-3.4797,-3.4797,-3.4859,-3.517,-3.5418,-3.5418,-3.5418,-3.5211,-3.4878,-3.4816,-3.4608,-3.4194,-3.438,-3.4465,-3.4546,-3.49,-3.5148,-3.5169,-3.5314,-3.5418,-3.5418,-3.5666,-3.5707,-3.5438,-3.5687,-3.5832,-3.5832,-3.6018,-3.6328,-3.6825,-3.6929,-3.7076,-3.7413,-3.807,-3.8606,-3.8758,-3.9169,-3.9387,-3.915,-3.8745,-3.8231,-3.7739,-3.729,-3.7514,-3.9129,-4.1742,-4.4207,-4.6298,-4.6972,-4.7533,-4.75,-4.745,-4.735,-4.7274,-4.7409,-4.7684,-4.7742,-4.7832,-4.731,-4.6552,-4.6421,-4.6369,-4.5535,-4.5544,-4.6007,-4.6544,-4.6645,-4.6898,-4.7485,-4.7536,-4.7536,-4.7638,-4.8296,-4.9022,-4.9669,-5.0327,-5.071,-4.1172,-4.1172,-4.1172,-4.1094,-4.0957,-4.0664,-4.0215,-3.9707,-3.9355,-3.8965,-3.8594,-3.8574,-3.8574,-3.8574,-3.8574,-3.8574,-3.8535,-3.8242,-3.7812,-3.7305,-3.6973,-3.6562,-3.6074,-3.6035,-3.6035,-3.6035,-3.6035,-3.5957,-3.5781,-3.5098,-3.4492,-3.4127,-3.3887,-3.3796,-3.3922,-3.4173,-3.4298,-3.4423,-3.436,-3.436,-3.4485,-3.4859,-3.5108,-3.5108,-3.5232,-3.5149,-3.484,-3.4941,-3.4797,-3.4465,-3.4755,-3.5002,-3.4941,-3.5252,-3.5418,-3.5418,-3.5418,-3.548,-3.5604,-3.5914,-3.6039,-3.5852,-3.6142,-3.6308,-3.6328,-3.6411,-3.6784,-3.7343,-3.7612,-3.7674,-3.7715,-3.7984,-3.8171,-3.8191,-3.8191,-3.8191,-3.8217,-3.7777,-3.7366,-3.6846,-3.6539,-3.6645,-3.8295,-4.1037,-4.3655,-4.5047,-4.6133,-4.6974,-4.6811,-4.6892,-4.6824,-4.6677,-4.684,-4.7205,-4.7762,-4.7945,-4.7534,-4.6965,-4.6725,-4.6782,-4.5895,-4.5907,-4.5965,-4.6246,-4.625,-4.6115,-4.6191,-4.6374,-4.6687,-4.6895,-4.7485,-4.8274,-4.8574,-4.9297,-4.9766,-4.1172,-4.1152,-4.1172,-4.0898,-4.0547,-4.0488,-4.0019,-3.9277,-3.9199,-3.8965,-3.8594,-3.8574,-3.8574,-3.8574,-3.8574,-3.8574,-3.8574,-3.8535,-3.8066,-3.7344,-3.7266,-3.6816,-3.6055,-3.6035,-3.6035,-3.6035,-3.6035,-3.584,-3.5469,-3.4941,-3.4492,-3.4146,-3.3696,-3.3607,-3.3859,-3.3922,-3.411,-3.4298,-3.4298,-3.436,-3.436,-3.4423,-3.4423,-3.4485,-3.4735,-3.4901,-3.4943,-3.5191,-3.5355,-3.5294,-3.5355,-3.5376,-3.5376,-3.5397,-3.5418,-3.5418,-3.5438,-3.5625,-3.5997,-3.6142,-3.6308,-3.6618,-3.6722,-3.6784,-3.6804,-3.7094,-3.7363,-3.7508,-3.7902,-3.8109,-3.8109,-3.8129,-3.8191,-3.8191,-3.8191,-3.8191,-3.8191,-3.7777,-3.7322,-3.6908,-3.6494,-3.6896,-3.868,-4.0605,-4.2449,-4.3979,-4.4704,-4.5062,-4.5719,-4.5638,-4.5649,-4.6084,-4.6301,-4.6541,-4.7087,-4.7501,-4.7186,-4.6757,-4.6768,-4.6991,-4.6421,-4.595,-4.6006,-4.5931,-4.586,-4.5544,-4.5042,-4.4992,-4.5368,-4.5715,-4.6321,-4.6895,-4.7513,-4.7841,-4.8346,-4.0605,-4.0351,-4.0351,-4.0254,-4.0098,-3.9805,-3.9492,-3.918,-3.8906,-3.873,-3.8594,-3.8574,-3.8574,-3.8574,-3.8574,-3.8574,-3.8574,-3.8574,-3.8105,-3.7363,-3.7305,-3.6836,-3.6094,-3.6035,-3.6035,-3.6035,-3.6035,-3.5937,-3.5723,-3.5059,-3.4629,-3.4375,-3.375,-3.3481,-3.3544,-3.3607,-3.367,-3.3733,-3.3733,-3.3733,-3.3796,-3.3733,-3.3733,-3.3796,-3.4298,-3.4673,-3.4922,-3.5046,-3.517,-3.5356,-3.5418,-3.5418,-3.5418,-3.5418,-3.5418,-3.5459,-3.5687,-3.5935,-3.6163,-3.668,-3.6908,-3.6825,-3.7094,-3.7239,-3.726,-3.7405,-3.7612,-3.7881,-3.8067,-3.8191,-3.8191,-3.8191,-3.8191,-3.8191,-3.8191,-3.8191,-3.8109,-3.7777,-3.7425,-3.726,-3.7074,-3.7143,-3.7592,-3.9129,-4.0913,-4.1786,-4.2503,-4.3304,-4.3937,-4.4049,-4.4299,-4.489,-4.5403,-4.5914,-4.6541,-4.7087,-4.721,-4.7024,-4.7017,-4.7158,-4.6825,-4.6699,-4.673,-4.6156,-4.5839,-4.5399,-4.4983,-4.4776,-4.4964,-4.5207,-4.5768,-4.6085,-4.661,-4.6947,-4.7434,-4.0156,-3.9922,-3.9883,-3.9805,-3.9629,-3.9336,-3.9121,-3.8984,-3.8691,-3.8574,-3.8574,-3.8574,-3.8574,-3.8574,-3.8574,-3.8574,-3.8574,-3.8574,-3.8125,-3.7344,-3.7305,-3.6855,-3.6133,-3.6035,-3.6035,-3.6035,-3.6035,-3.6035,-3.5957,-3.5273,-3.4863,-3.4648,-3.3965,-3.3555,-3.3437,-3.3418,-3.3418,-3.3418,-3.3418,-3.3418,-3.3418,-3.3418,-3.3418,-3.3481,-3.3859,-3.4235,-3.4548,-3.4673,-3.4859,-3.5046,-3.517,-3.5294,-3.5356,-3.5418,-3.55,-3.5645,-3.5935,-3.6266,-3.6577,-3.7156,-3.7425,-3.7281,-3.7529,-3.7715,-3.7715,-3.7715,-3.7881,-3.8109,-3.8191,-3.8191,-3.8191,-3.8191,-3.8191,-3.8191,-3.8191,-3.8129,-3.7964,-3.7695,-3.7446,-3.7281,-3.7363,-3.7136,-3.6931,-3.8432,-3.9557,-4.004,-4.089,-4.1654,-4.2321,-4.2714,-4.3091,-4.3817,-4.446,-4.5098,-4.5732,-4.6215,-4.6561,-4.6466,-4.6978,-4.7179,-4.7224,-4.7204,-4.697,-4.643,-4.5913,-4.5422,-4.5059,-4.4772,-4.4856,-4.5018,-4.5154,-4.5475,-4.5768,-4.6033,-4.6478,-3.9863,-3.9824,-3.9883,-3.957,-3.9219,-3.9141,-3.8945,-3.8652,-3.8594,-3.8574,-3.8574,-3.8574,-3.8574,-3.8574,-3.8574,-3.8574,-3.8574,-3.8574,-3.8105,-3.7344,-3.7305,-3.6836,-3.6055,-3.6035,-3.6035,-3.6035,-3.6035,-3.6035,-3.5996,-3.5547,-3.5137,-3.4726,-3.4258,-3.3828,-3.3437,-3.3437,-3.3418,-3.3418,-3.3418,-3.3418,-3.3418,-3.3418,-3.3418,-3.3418,-3.3418,-3.3607,-3.3922,-3.4235,-3.4423,-3.4485,-3.4735,-3.5046,-3.5356,-3.5459,-3.5666,-3.6059,-3.6163,-3.6597,-3.7301,-3.7488,-3.7757,-3.7943,-3.8129,-3.8109,-3.8088,-3.8109,-3.8129,-3.8171,-3.8191,-3.8191,-3.8191,-3.8191,-3.8191,-3.8191,-3.8191,-3.8005,-3.7653,-3.7508,-3.7322,-3.7032,-3.726,-3.7488,-3.7615,-3.8232,-3.8988,-3.9494,-3.9909,-4.0388,-4.0973,-4.138,-4.2166,-4.2902,-4.3341,-4.3778,-4.4607,-4.5281,-4.5505,-4.5792,-4.6544,-4.7026,-4.6868,-4.6772,-4.6779,-4.6315,-4.587,-4.5382,-4.5054,-4.4767,-4.472,-4.4856,-4.4884,-4.4938,-4.5154,-4.5422,-4.5422,-3.8984,-3.8984,-3.8984,-3.8906,-3.8769,-3.8769,-3.8691,-3.8574,-3.8574,-3.8574,-3.8574,-3.8574,-3.8574,-3.8574,-3.8574,-3.8574,-3.8574,-3.8555,-3.8105,-3.7422,-3.7305,-3.6855,-3.6172,-3.6035,-3.6035,-3.6035,-3.6035,-3.6035,-3.5937,-3.5605,-3.5293,-3.5078,-3.4434,-3.4023,-3.3848,-3.3594,-3.3418,-3.3418,-3.3418,-3.3418,-3.3418,-3.3418,-3.3418,-3.3418,-3.3418,-3.3481,-3.3544,-3.3859,-3.4173,-3.436,-3.4485,-3.4877,-3.5496,-3.6078,-3.6432,-3.6597,-3.6908,-3.7136,-3.7467,-3.7777,-3.8005,-3.815,-3.8191,-3.8191,-3.8191,-3.8191,-3.8191,-3.8191,-3.8191,-3.8191,-3.8191,-3.8191,-3.8191,-3.8191,-3.8191,-3.8005,-3.7591,-3.7488,-3.7281,-3.7011,-3.7488,-3.7777,-3.7674,-3.8055,-3.8566,-3.8723,-3.8856,-3.912,-3.921,-3.9866,-4.0301,-4.1033,-4.161,-4.2437,-4.3216,-4.3879,-4.4242,-4.4814,-4.5685,-4.6273,-4.6229,-4.6422,-4.6397,-4.6257,-4.5819,-4.5421,-4.5041,-4.4814,-4.4713,-4.4639,-4.4668,-4.4722,-4.4694,-4.4802,-4.4856,-3.8574,-3.8574,-3.8574,-3.8574,-3.8574,-3.8574,-3.8574,-3.8574,-3.8574,-3.8574,-3.8574,-3.8574,-3.8574,-3.8574,-3.8574,-3.8574,-3.8574,-3.8574,-3.8203,-3.7578,-3.7344,-3.6914,-3.6289,-3.6074,-3.6035,-3.6035,-3.6035,-3.6035,-3.6016,-3.5762,-3.5547,-3.5293,-3.4824,-3.4375,-3.4101,-3.3809,-3.3613,-3.3476,-3.3574,-3.3672,-3.3691,-3.3809,-3.3887,-3.3906,-3.3906,-3.3887,-3.3887,-3.4079,-3.4132,-3.4084,-3.425,-3.4822,-3.5564,-3.6105,-3.648,-3.6684,-3.691,-3.7221,-3.7472,-3.7806,-3.8037,-3.8191,-3.8191,-3.8191,-3.8191,-3.8191,-3.8191,-3.8191,-3.8191,-3.8191,-3.8191,-3.8191,-3.8191,-3.8191,-3.8191,-3.7984,-3.7612,-3.7488,-3.7405,-3.7322,-3.7881,-3.815,-3.8191,-3.8398,-3.8585,-3.8502,-3.844,-3.8316,-3.8387,-3.8702,-3.9297,-3.9931,-4.0603,-4.1312,-4.1865,-4.2391,-4.295,-4.3802,-4.4707,-4.5101,-4.5262,-4.5834,-4.6095,-4.6119,-4.5783,-4.536,-4.5042,-4.4793,-4.4672,-4.46,-4.4526,-4.4367,-4.4313,-4.4313,-4.4422,-3.8574,-3.8574,-3.8574,-3.8574,-3.8574,-3.8574,-3.8574,-3.8574,-3.8574,-3.8574,-3.8574,-3.8574,-3.8574,-3.8574,-3.8574,-3.8574,-3.8574,-3.8574,-3.8379,-3.7949,-3.7578,-3.7109,-3.6621,-3.6211,-3.6035,-3.6035,-3.6035,-3.6035,-3.6016,-3.5976,-3.582,-3.5488,-3.5332,-3.498,-3.4394,-3.4141,-3.3926,-3.3711,-3.3945,-3.4101,-3.4121,-3.4434,-3.4629,-3.4609,-3.4609,-3.459,-3.457,-3.4616,-3.4258,-3.3755,-3.4349,-3.5067,-3.5561,-3.5726,-3.6158,-3.6501,-3.6455,-3.6876,-3.738,-3.7595,-3.775,-3.8037,-3.8191,-3.8191,-3.8191,-3.8191,-3.8191,-3.8191,-3.8191,-3.8191,-3.8191,-3.8191,-3.8212,-3.8233,-3.8212,-3.8005,-3.7674,-3.7653,-3.7695,-3.7777,-3.8316,-3.8807,-3.8765,-3.9137,-3.9117,-3.8951,-3.8895,-3.873,-3.8611,-3.8816,-3.9094,-3.9533,-4.008,-4.0366,-4.0935,-4.146,-4.1911,-4.2195,-4.3269,-4.399,-4.46,-4.532,-4.5764,-4.58,-4.5699,-4.5341,-4.5164,-4.4971,-4.475,-4.4656,-4.445,-4.4053,-4.4108,-4.4292,-4.43,-3.8574,-3.8574,-3.8574,-3.8574,-3.8574,-3.8574,-3.8574,-3.8574,-3.8574,-3.8574,-3.8574,-3.8574,-3.8574,-3.8574,-3.8574,-3.8574,-3.8574,-3.8574,-3.8555,-3.8359,-3.7949,-3.7344,-3.6719,-3.623,-3.6035,-3.6035,-3.6035,-3.6035,-3.6035,-3.6035,-3.5957,-3.5859,-3.5547,-3.5312,-3.5019,-3.4687,-3.4492,-3.4394,-3.4453,-3.4531,-3.4551,-3.4648,-3.4687,-3.4687,-3.4726,-3.4726,-3.4707,-3.4687,-3.4629,-3.4453,-3.5113,-3.5633,-3.5838,-3.6296,-3.665,-3.675,-3.6877,-3.6938,-3.7173,-3.7415,-3.7616,-3.777,-3.7971,-3.8191,-3.8191,-3.8191,-3.8191,-3.8191,-3.8191,-3.8212,-3.8212,-3.8233,-3.8357,-3.8564,-3.8481,-3.8357,-3.8373,-3.8414,-3.8502,-3.8497,-3.8951,-3.922,-3.9323,-3.9426,-3.9488,-3.9344,-3.9282,-3.9288,-3.9061,-3.9087,-3.9344,-3.9375,-3.9705,-3.9752,-4.0024,-4.0565,-4.0888,-4.0822,-4.1756,-4.2974,-4.3927,-4.5022,-4.5316,-4.5437,-4.54,-4.5078,-4.5287,-4.5291,-4.5049,-4.4781,-4.4812,-4.4653,-4.4791,-4.4899,-4.4566,-3.8574,-3.8574,-3.8574,-3.8574,-3.8574,-3.8574,-3.8574,-3.8574,-3.8574,-3.8574,-3.8574,-3.8574,-3.8574,-3.8574,-3.8574,-3.8574,-3.8574,-3.8574,-3.8574,-3.8496,-3.8105,-3.7461,-3.6777,-3.6367,-3.6211,-3.6035,-3.6035,-3.6035,-3.6035,-3.6035,-3.6035,-3.5976,-3.5781,-3.5586,-3.5351,-3.5156,-3.4883,-3.4766,-3.4863,-3.498,-3.498,-3.5176,-3.5254,-3.5254,-3.5254,-3.5254,-3.5254,-3.5254,-3.5195,-3.5164,-3.5434,-3.5783,-3.5981,-3.64,-3.6606,-3.6606,-3.6606,-3.6674,-3.6876,-3.7059,-3.7193,-3.7348,-3.7636,-3.7703,-3.7744,-3.7846,-3.8036,-3.8212,-3.8424,-3.8594,-3.875,-3.875,-3.8978,-3.9309,-3.9164,-3.9061,-3.9096,-3.9055,-3.9055,-3.9158,-3.9447,-3.9827,-3.9847,-3.9972,-3.9972,-3.9889,-3.9757,-3.9633,-3.9537,-3.9509,-3.953,-3.9592,-3.9571,-3.9675,-3.984,-4.0251,-4.0707,-4.058,-4.0693,-4.1942,-4.2667,-4.3931,-4.4154,-4.4291,-4.467,-4.4957,-4.5092,-4.5196,-4.5186,-4.5048,-4.5214,-4.5062,-4.491,-4.5049,-4.4744,-3.8574,-3.8574,-3.8574,-3.8574,-3.8574,-3.8574,-3.8574,-3.8574,-3.8574,-3.8574,-3.8574,-3.8574,-3.8574,-3.8574,-3.8574,-3.8574,-3.8574,-3.8574,-3.8574,-3.8476,-3.8164,-3.7637,-3.6992,-3.668,-3.6445,-3.6172,-3.6074,-3.6035,-3.6035,-3.6035,-3.6035,-3.6016,-3.5996,-3.582,-3.5586,-3.5469,-3.5234,-3.5059,-3.5293,-3.5449,-3.5488,-3.5703,-3.584,-3.5859,-3.5859,-3.5879,-3.5918,-3.5937,-3.5801,-3.5469,-3.5469,-3.5664,-3.5976,-3.6016,-3.6016,-3.6084,-3.6152,-3.6219,-3.6471,-3.6586,-3.6654,-3.7011,-3.7079,-3.7119,-3.7355,-3.7617,-3.7907,-3.8303,-3.8738,-3.9027,-3.9364,-3.9447,-3.9702,-3.9972,-4.0096,-4.0034,-3.9806,-3.9682,-3.9592,-3.9633,-4.0075,-4.0261,-4.0406,-4.0572,-4.0717,-4.0323,-4.0282,-4.0199,-4.0054,-4.0034,-3.9992,-3.993,-3.9868,-3.9716,-3.9903,-4.0111,-4.0483,-4.0639,-4.0535,-4.0979,-4.1033,-4.1856,-4.2355,-4.281,-4.364,-4.4183,-4.4524,-4.4639,-4.4917,-4.5187,-4.5212,-4.4761,-4.4418,-4.4742,-4.4731,-3.8574,-3.8574,-3.8574,-3.8574,-3.8574,-3.8574,-3.8574,-3.8574,-3.8574,-3.8574,-3.8574,-3.8574,-3.8574,-3.8574,-3.8574,-3.8574,-3.8574,-3.8574,-3.8574,-3.8574,-3.8516,-3.8144,-3.7559,-3.7031,-3.6641,-3.6445,-3.6152,-3.6035,-3.6035,-3.6035,-3.6035,-3.6035,-3.6016,-3.5976,-3.5898,-3.582,-3.584,-3.5762,-3.584,-3.584,-3.5859,-3.5937,-3.6035,-3.6035,-3.6035,-3.6035,-3.6035,-3.6035,-3.5976,-3.5918,-3.5879,-3.5898,-3.5996,-3.6035,-3.6035,-3.6035,-3.6035,-3.6084,-3.6152,-3.6355,-3.6519,-3.6694,-3.6997,-3.7219,-3.7561,-3.7634,-3.7944,-3.8324,-3.8734,-3.9134,-3.9453,-3.984,-4.0026,-4.0162,-4.0439,-4.0655,-4.0593,-4.0551,-4.051,-4.0551,-4.0613,-4.0737,-4.0717,-4.0758,-4.08,-4.0717,-4.0696,-4.0675,-4.0572,-4.0468,-4.0386,-4.0303,-4.0303,-4.0261,-4.022,-4.0256,-4.0257,-4.0324,-4.0185,-3.9963,-3.9952,-4.0256,-4.0985,-4.1902,-4.2855,-4.3301,-4.3469,-4.4402,-4.4743,-4.5009,-4.514,-4.4963,-4.4783,-4.4886,-4.4769,-3.8574,-3.8574,-3.8574,-3.8574,-3.8574,-3.8574,-3.8574,-3.8574,-3.8574,-3.8574,-3.8574,-3.8574,-3.8574,-3.8574,-3.8574,-3.8574,-3.8574,-3.8574,-3.8574,-3.8574,-3.8555,-3.8437,-3.8105,-3.7402,-3.6894,-3.666,-3.623,-3.6035,-3.6035,-3.6035,-3.6035,-3.6035,-3.6035,-3.6016,-3.6035,-3.6035,-3.6016,-3.5996,-3.6035,-3.6035,-3.6035,-3.6035,-3.6035,-3.6035,-3.6035,-3.6035,-3.6035,-3.6035,-3.6035,-3.6035,-3.6035,-3.6035,-3.6035,-3.6035,-3.6035,-3.6035,-3.6035,-3.6035,-3.6103,-3.6328,-3.6583,-3.6651,-3.6946,-3.7252,-3.751,-3.7649,-3.8027,-3.8427,-3.8859,-3.9192,-3.9545,-3.9759,-3.9942,-4.0054,-4.0361,-4.0576,-4.0668,-4.074,-4.0882,-4.0882,-4.0841,-4.0862,-4.0862,-4.0882,-4.0862,-4.08,-4.08,-4.0779,-4.0779,-4.0696,-4.0737,-4.0717,-4.0779,-4.0758,-4.0717,-4.051,-4.0116,-3.9862,-3.9526,-3.9202,-3.8961,-3.9384,-3.9844,-4.0799,-4.1659,-4.1952,-4.2282,-4.3318,-4.4247,-4.4178,-4.4414,-4.4866,-4.5179,-4.5032,-4.4869,-3.8574,-3.8574,-3.8574,-3.8574,-3.8574,-3.8574,-3.8574,-3.8574,-3.8574,-3.8574,-3.8574,-3.8574,-3.8574,-3.8574,-3.8574,-3.8574,-3.8574,-3.8574,-3.8574,-3.8574,-3.8574,-3.8555,-3.832,-3.7773,-3.7187,-3.6738,-3.625,-3.6035,-3.6035,-3.6035,-3.6035,-3.6035,-3.6035,-3.6035,-3.6035,-3.6035,-3.6035,-3.6035,-3.6035,-3.6035,-3.6035,-3.6035,-3.6035,-3.6035,-3.6035,-3.6035,-3.6035,-3.6035,-3.6035,-3.6035,-3.6035,-3.6035,-3.6035,-3.6035,-3.6035,-3.6035,-3.6035,-3.6094,-3.623,-3.6445,-3.671,-3.6738,-3.7121,-3.7285,-3.7492,-3.7779,-3.8066,-3.8517,-3.893,-3.9326,-3.9642,-3.9726,-3.9746,-3.9766,-4.0002,-4.0166,-4.0382,-4.0596,-4.074,-4.0882,-4.0882,-4.0882,-4.0882,-4.0882,-4.0882,-4.0882,-4.0882,-4.0882,-4.0882,-4.0882,-4.0882,-4.0882,-4.0882,-4.0696,-4.0613,-4.0551,-4.0199,-3.9765,-3.9137,-3.8833,-3.846,-3.8862,-3.9353,-3.9533,-4.017,-4.0671,-4.1432,-4.2453,-4.3136,-4.3238,-4.3749,-4.4443,-4.4768,-4.5077,-4.4898,-3.8574,-3.8574,-3.8574,-3.8574,-3.8574,-3.8574,-3.8574,-3.8574,-3.8574,-3.8574,-3.8574,-3.8574,-3.8574,-3.8574,-3.8574,-3.8574,-3.8574,-3.8574,-3.8574,-3.8574,-3.8574,-3.8574,-3.8457,-3.8027,-3.7559,-3.707,-3.6504,-3.6133,-3.6035,-3.6035,-3.6035,-3.6035,-3.6035,-3.6035,-3.6035,-3.6035,-3.6035,-3.6035,-3.6035,-3.6035,-3.6035,-3.6035,-3.6035,-3.6035,-3.6035,-3.6035,-3.6035,-3.6035,-3.6035,-3.6035,-3.6035,-3.6035,-3.6074,-3.6074,-3.6074,-3.6094,-3.6152,-3.6289,-3.6543,-3.666,-3.6875,-3.7109,-3.7344,-3.7539,-3.7754,-3.791,-3.8197,-3.8504,-3.8932,-3.9301,-3.9642,-3.957,-3.9642,-3.9714,-3.9775,-3.9939,-4.0248,-4.0432,-4.0669,-4.0853,-4.0935,-4.0882,-4.0882,-4.0882,-4.0882,-4.0882,-4.0882,-4.0882,-4.0882,-4.0882,-4.0882,-4.0882,-4.0882,-4.0613,-4.0365,-4.0323,-4.0116,-3.9744,-3.922,-3.8951,-3.8771,-3.8703,-3.902,-3.9441,-3.9912,-4.0492,-4.122,-4.1816,-4.2167,-4.2334,-4.3101,-4.3939,-4.3983,-4.4082,-4.4671,-3.8574,-3.8574,-3.8574,-3.8574,-3.8574,-3.8574,-3.8574,-3.8574,-3.8574,-3.8574,-3.8574,-3.8574,-3.8574,-3.8574,-3.8574,-3.8574,-3.8574,-3.8574,-3.8574,-3.8574,-3.8574,-3.8574,-3.8535,-3.8144,-3.7871,-3.75,-3.6992,-3.6406,-3.6055,-3.6035,-3.6074,-3.6035,-3.6035,-3.6035,-3.6035,-3.6035,-3.6055,-3.6055,-3.6055,-3.6055,-3.6035,-3.6035,-3.6035,-3.6035,-3.6055,-3.6035,-3.6035,-3.6035,-3.6035,-3.6035,-3.6035,-3.6133,-3.6289,-3.6367,-3.6367,-3.6406,-3.6543,-3.6738,-3.7012,-3.7168,-3.7441,-3.7617,-3.7793,-3.8027,-3.8184,-3.8281,-3.834,-3.8569,-3.872,-3.8938,-3.9083,-3.9136,-3.9235,-3.9433,-3.9619,-3.9938,-4.0265,-4.0545,-4.0724,-4.0913,-4.0884,-4.0884,-4.0882,-4.0882,-4.0882,-4.0882,-4.0903,-4.0944,-4.0986,-4.1007,-4.1069,-4.1027,-4.1027,-4.08,-4.0489,-4.0282,-4.0116,-3.9654,-3.9323,-3.9055,-3.8993,-3.8993,-3.933,-3.9765,-4.0135,-4.0418,-4.0265,-4.0601,-4.1056,-4.1505,-4.2058,-4.2529,-4.2834,-4.3222,-4.3757,-3.8574,-3.8574,-3.8574,-3.8574,-3.8574,-3.8574,-3.8574,-3.8574,-3.8574,-3.8574,-3.8574,-3.8574,-3.8574,-3.8574,-3.8574,-3.8574,-3.8574,-3.8574,-3.8574,-3.8574,-3.8574,-3.8574,-3.8476,-3.8262,-3.8008,-3.7812,-3.7578,-3.7031,-3.6523,-3.6387,-3.6309,-3.6387,-3.6309,-3.6289,-3.6348,-3.6426,-3.6289,-3.6269,-3.6269,-3.6269,-3.6269,-3.6269,-3.6269,-3.6269,-3.6269,-3.6328,-3.6387,-3.6387,-3.6387,-3.6387,-3.6387,-3.6445,-3.6738,-3.6875,-3.6914,-3.6973,-3.7187,-3.7305,-3.75,-3.7656,-3.7851,-3.8047,-3.8359,-3.8516,-3.8555,-3.8496,-3.8555,-3.8574,-3.8647,-3.8647,-3.872,-3.8647,-3.8843,-3.9136,-3.9495,-3.9855,-4.0281,-4.0529,-4.0733,-4.0881,-4.0934,-4.0976,-4.109,-4.1379,-4.1483,-4.1555,-4.1576,-4.1483,-4.1503,-4.1421,-4.1421,-4.1296,-4.1193,-4.1027,-4.0737,-4.0365,-4.0137,-3.9716,-3.9447,-3.9199,-3.922,-3.9302,-3.9702,-4.0083,-4.0236,-4.032,-3.9917,-3.9765,-4.0567,-4.1079,-4.1031,-4.1352,-4.2056,-4.235,-4.2678,-3.8574,-3.8574,-3.8574,-3.8574,-3.8574,-3.8574,-3.8574,-3.8574,-3.8574,-3.8574,-3.8574,-3.8574,-3.8574,-3.8574,-3.8574,-3.8574,-3.8574,-3.8574,-3.8574,-3.8574,-3.8574,-3.8574,-3.8574,-3.8555,-3.8242,-3.8066,-3.791,-3.7598,-3.7207,-3.709,-3.707,-3.7051,-3.6992,-3.7109,-3.6973,-3.6934,-3.7148,-3.7129,-3.7109,-3.709,-3.707,-3.707,-3.7051,-3.707,-3.707,-3.7031,-3.6992,-3.6973,-3.7012,-3.7051,-3.709,-3.7148,-3.7285,-3.7598,-3.7734,-3.7676,-3.7559,-3.7461,-3.7793,-3.7949,-3.8125,-3.834,-3.8535,-3.8574,-3.8652,-3.8652,-3.8652,-3.8574,-3.8633,-3.8711,-3.875,-3.8652,-3.8828,-3.9121,-3.9488,-3.9889,-4.0294,-4.067,-4.0877,-4.1023,-4.1096,-4.1259,-4.1407,-4.183,-4.2198,-4.2177,-4.2156,-4.2021,-4.2032,-4.1928,-4.1742,-4.1597,-4.1379,-4.1193,-4.0924,-4.0572,-4.0344,-3.9881,-3.9654,-3.9468,-3.9702,-3.9847,-3.9992,-4.0241,-4.0386,-4.053,-4.0427,-4.0456,-4.0638,-4.0759,-4.0885,-4.1198,-4.1634,-4.1728,-4.1547,-3.8574,-3.8574,-3.8574,-3.8574,-3.8574,-3.8574,-3.8574,-3.8574,-3.8574,-3.8574,-3.8574,-3.8574,-3.8574,-3.8574,-3.8574,-3.8574,-3.8574,-3.8574,-3.8574,-3.8574,-3.8574,-3.8574,-3.8574,-3.8574,-3.8418,-3.834,-3.8281,-3.8262,-3.793,-3.7519,-3.7305,-3.7344,-3.7324,-3.7266,-3.7383,-3.7324,-3.7285,-3.7285,-3.7285,-3.7285,-3.7305,-3.7305,-3.7305,-3.7305,-3.7324,-3.7344,-3.7344,-3.7305,-3.7305,-3.7305,-3.7305,-3.7422,-3.7598,-3.7832,-3.7988,-3.8262,-3.8144,-3.8144,-3.8262,-3.8281,-3.8398,-3.8496,-3.8594,-3.8672,-3.8848,-3.8926,-3.9043,-3.9316,-3.9336,-3.9297,-3.9277,-3.9316,-3.957,-3.9766,-3.9805,-4.0212,-4.06,-4.0757,-4.101,-4.1181,-4.1254,-4.1459,-4.16,-4.1793,-4.2064,-4.2225,-4.2257,-4.2216,-4.2207,-4.2198,-4.199,-4.1783,-4.1545,-4.1358,-4.1048,-4.0737,-4.0717,-4.0427,-4.0179,-4.0075,-4.0241,-4.0386,-4.0468,-4.053,-4.0655,-4.0779,-4.0882,-4.0871,-4.0796,-4.0792,-4.0857,-4.098,-4.1006,-4.0227,-4.0049,-3.8574,-3.8574,-3.8574,-3.8574,-3.8574,-3.8574,-3.8574,-3.8574,-3.8574,-3.8574,-3.8574,-3.8574,-3.8574,-3.8574,-3.8574,-3.8574,-3.8574,-3.8574,-3.8574,-3.8574,-3.8574,-3.8574,-3.8574,-3.8574,-3.8574,-3.8574,-3.8516,-3.8496,-3.834,-3.8027,-3.7715,-3.7617,-3.7754,-3.7695,-3.7656,-3.7695,-3.7734,-3.7734,-3.7715,-3.7695,-3.7695,-3.7676,-3.7676,-3.7656,-3.7617,-3.7617,-3.7617,-3.7656,-3.7656,-3.7676,-3.7695,-3.7871,-3.8066,-3.8144,-3.8262,-3.8496,-3.8555,-3.8691,-3.8672,-3.8633,-3.8594,-3.8574,-3.8613,-3.873,-3.9101,-3.9219,-3.9375,-3.9746,-3.9785,-3.9824,-3.9883,-3.9844,-4.0,-4.0195,-4.041,-4.0781,-4.1035,-4.1054,-4.1112,-4.115,-4.1284,-4.1517,-4.1626,-4.1706,-4.1901,-4.2194,-4.2303,-4.2336,-4.2336,-4.2315,-4.2171,-4.1912,-4.1656,-4.1503,-4.1276,-4.1027,-4.0986,-4.0862,-4.0613,-4.051,-4.0613,-4.0717,-4.08,-4.0882,-4.0882,-4.0882,-4.0882,-4.0882,-4.0862,-4.0859,-4.0784,-4.0485,-4.0111,-3.9364,-3.9061,-3.8574,-3.8574,-3.8574,-3.8574,-3.8574,-3.8574,-3.8574,-3.8574,-3.8574,-3.8574,-3.8574,-3.8574,-3.8574,-3.8574,-3.8574,-3.8574,-3.8574,-3.8574,-3.8574,-3.8574,-3.8574,-3.8574,-3.8574,-3.8574,-3.8574,-3.8574,-3.8574,-3.8574,-3.8555,-3.8437,-3.8379,-3.8457,-3.8262,-3.8398,-3.8379,-3.8262,-3.8281,-3.8281,-3.8301,-3.834,-3.834,-3.8359,-3.8379,-3.8398,-3.8437,-3.8476,-3.8476,-3.8379,-3.832,-3.832,-3.8301,-3.8301,-3.8398,-3.8418,-3.8496,-3.8594,-3.8906,-3.9023,-3.9004,-3.8887,-3.8672,-3.8613,-3.8711,-3.8945,-3.9394,-3.9277,-3.9473,-3.9961,-4.0137,-4.0059,-4.0,-3.9961,-4.0312,-4.0508,-4.0723,-4.0859,-4.1055,-4.1113,-4.1191,-4.1152,-4.1327,-4.1463,-4.154,-4.1589,-4.1871,-4.2267,-4.2342,-4.2322,-4.2348,-4.2327,-4.2261,-4.2112,-4.1779,-4.1559,-4.1472,-4.1296,-4.0965,-4.1027,-4.0986,-4.0862,-4.0841,-4.0965,-4.1131,-4.0924,-4.0882,-4.0882,-4.0882,-4.0882,-4.0882,-4.0882,-4.0758,-4.053,-4.0282,-3.9847,-3.9509,-3.8574,-3.8574,-3.8574,-3.8574,-3.8574,-3.8574,-3.8574,-3.8574,-3.8574,-3.8574,-3.8574,-3.8574,-3.8574,-3.8574,-3.8574,-3.8574,-3.8574,-3.8574,-3.8574,-3.8574,-3.8574,-3.8574,-3.8574,-3.8574,-3.8574,-3.8574,-3.8574,-3.8574,-3.8574,-3.8574,-3.8574,-3.8574,-3.8574,-3.8574,-3.8574,-3.8574,-3.8574,-3.8574,-3.8574,-3.8574,-3.8574,-3.8574,-3.8574,-3.8574,-3.8574,-3.8574,-3.8555,-3.8574,-3.8574,-3.8574,-3.8594,-3.8613,-3.8652,-3.8633,-3.8652,-3.8711,-3.9062,-3.9238,-3.9336,-3.9297,-3.9394,-3.9394,-3.9434,-3.9531,-3.9863,-3.998,-4.0234,-4.0527,-4.0625,-4.0566,-4.0664,-4.0684,-4.082,-4.0898,-4.0957,-4.1016,-4.1074,-4.1152,-4.1172,-4.1172,-4.125,-4.1327,-4.1327,-4.1366,-4.181,-4.2253,-4.235,-4.237,-4.2293,-4.2253,-4.2108,-4.1999,-4.165,-4.1366,-4.1284,-4.1059,-4.0903,-4.0997,-4.1204,-4.107,-4.0987,-4.1296,-4.1358,-4.111,-4.0873,-4.0843,-4.0843,-4.0903,-4.0882,-4.0882,-4.082,-4.0696,-4.0448,-4.022,-4.0013,-3.8574,-3.8574,-3.8574,-3.8574,-3.8574,-3.8574,-3.8574,-3.8574,-3.8574,-3.8574,-3.8574,-3.8574,-3.8574,-3.8574,-3.8574,-3.8574,-3.8574,-3.8574,-3.8574,-3.8574,-3.8574,-3.8574,-3.8574,-3.8574,-3.8574,-3.8574,-3.8574,-3.8574,-3.8574,-3.8501,-3.8355,-3.8375,-3.8355,-3.8282,-3.8574,-3.8574,-3.8574,-3.8574,-3.8574,-3.8574,-3.8574,-3.8574,-3.8574,-3.8574,-3.8574,-3.8574,-3.8574,-3.8574,-3.8574,-3.8633,-3.8691,-3.8769,-3.8828,-3.8887,-3.8945,-3.9101,-3.9316,-3.957,-3.9668,-3.9707,-3.9902,-3.9785,-3.9805,-4.0039,-4.0391,-4.0527,-4.0586,-4.0996,-4.1113,-4.1172,-4.1172,-4.1074,-4.1035,-4.1055,-4.1074,-4.1113,-4.1133,-4.1172,-4.1172,-4.1172,-4.125,-4.1269,-4.125,-4.1327,-4.1483,-4.1773,-4.1773,-4.185,-4.1773,-4.1771,-4.1689,-4.1639,-4.1449,-4.1151,-4.0866,-4.0768,-4.0709,-4.0514,-4.0698,-4.0934,-4.1027,-4.1316,-4.1419,-4.1118,-4.0881,-4.0874,-4.0863,-4.0881,-4.0946,-4.0903,-4.0841,-4.0779,-4.0717,-4.0489,-4.0323,-3.8574,-3.8574,-3.8574,-3.8574,-3.8574,-3.8574,-3.8574,-3.8574,-3.8574,-3.8574,-3.8574,-3.8574,-3.8574,-3.8574,-3.8574,-3.8574,-3.8574,-3.8574,-3.8574,-3.8574,-3.8574,-3.8574,-3.8574,-3.8574,-3.8574,-3.8574,-3.8574,-3.8574,-3.8574,-3.8282,-3.8082,-3.777,-3.7623,-3.777,-3.8501,-3.8574,-3.8574,-3.8574,-3.8574,-3.8574,-3.8574,-3.8574,-3.8574,-3.8574,-3.8574,-3.8574,-3.8574,-3.8574,-3.8574,-3.8613,-3.8926,-3.9043,-3.9101,-3.9492,-3.9668,-3.9726,-4.0137,-4.0391,-4.0469,-4.0137,-4.0059,-4.0098,-4.0195,-4.0293,-4.0488,-4.0605,-4.0723,-4.1152,-4.1172,-4.1172,-4.1172,-4.1172,-4.1172,-4.1172,-4.1172,-4.125,-4.125,-4.1328,-4.1348,-4.1465,-4.1328,-4.1269,-4.1172,-4.125,-4.125,-4.1327,-4.125,-4.125,-4.1405,-4.1424,-4.146,-4.1416,-4.1327,-4.1118,-4.0901,-4.0653,-4.0411,-4.025,-4.0403,-4.0853,-4.0955,-4.1089,-4.1043,-4.0955,-4.0861,-4.0643,-4.0841,-4.1002,-4.098,-4.0946,-4.0873,-4.0841,-4.082,-4.0758,-4.0572,-3.8574,-3.8574,-3.8574,-3.8574,-3.8574,-3.8574,-3.8574,-3.8574,-3.8574,-3.8574,-3.8574,-3.8574,-3.8574,-3.8574,-3.8574,-3.8574,-3.8574,-3.8574,-3.8574,-3.8574,-3.8574,-3.8574,-3.8574,-3.8574,-3.8574,-3.8574,-3.8574,-3.8574,-3.8574,-3.799,-3.7383,-3.6941,-3.6793,-3.7236,-3.799,-3.8448,-3.8574,-3.8574,-3.8574,-3.8574,-3.8594,-3.8613,-3.8633,-3.8633,-3.8652,-3.8652,-3.8672,-3.8691,-3.8691,-3.875,-3.9101,-3.9277,-3.9375,-3.9726,-3.9941,-4.0,-4.0312,-4.0664,-4.084,-4.0801,-4.0762,-4.0723,-4.0684,-4.0723,-4.0937,-4.0957,-4.1074,-4.1133,-4.1172,-4.1172,-4.1172,-4.1172,-4.1172,-4.1172,-4.1211,-4.1387,-4.1484,-4.1582,-4.168,-4.1875,-4.1855,-4.1465,-4.1289,-4.1191,-4.1172,-4.1172,-4.1172,-4.1172,-4.125,-4.125,-4.1249,-4.1266,-4.1183,-4.1039,-4.0873,-4.0629,-4.0558,-4.0418,-4.0747,-4.1237,-4.1203,-4.0933,-4.1008,-4.1013,-4.0747,-4.0519,-4.0873,-4.1078,-4.1043,-4.0983,-4.0976,-4.0935,-4.0862,-4.0841,-4.08,-3.8574,-3.8574,-3.8574,-3.8574,-3.8574,-3.8574,-3.8574,-3.8574,-3.8574,-3.8574,-3.8574,-3.8574,-3.8574,-3.8574,-3.8574,-3.8574,-3.8574,-3.8574,-3.8574,-3.8574,-3.8574,-3.8574,-3.8574,-3.8501,-3.8375,-3.8355,-3.8209,-3.8136,-3.8063,-3.7476,-3.6571,-3.5885,-3.5885,-3.6645,-3.7514,-3.8178,-3.8828,-3.8887,-3.8965,-3.9141,-3.9121,-3.9101,-3.9082,-3.9082,-3.9082,-3.9062,-3.9062,-3.9023,-3.9023,-3.9121,-3.9355,-3.9629,-3.9766,-4.0019,-4.0293,-4.0449,-4.0586,-4.0898,-4.1055,-4.1133,-4.1133,-4.1328,-4.1269,-4.1172,-4.1172,-4.1133,-4.1133,-4.1172,-4.1211,-4.1211,-4.123,-4.1211,-4.125,-4.125,-4.1269,-4.1445,-4.1523,-4.1621,-4.1836,-4.2051,-4.2246,-4.1836,-4.1465,-4.1269,-4.1172,-4.1172,-4.1172,-4.1211,-4.1211,-4.1172,-4.1172,-4.121,-4.1092,-4.101,-4.0927,-4.069,-4.0643,-4.0654,-4.0948,-4.1323,-4.1092,-4.0706,-4.0897,-4.1032,-4.0897,-4.0916,-4.1151,-4.1207,-4.1073,-4.105,-4.1008,-4.0934,-4.0914,-4.0873,-4.0935,-3.8574,-3.8574,-3.8574,-3.8574,-3.8574,-3.8574,-3.8574,-3.8574,-3.8574,-3.8574,-3.8574,-3.8574,-3.8574,-3.8574,-3.8574,-3.8574,-3.8574,-3.8574,-3.8574,-3.8574,-3.8574,-3.8574,-3.8428,-3.8228,-3.8009,-3.7789,-3.7476,-3.7015,-3.7107,-3.5662,-3.4764,-3.4799,-3.5135,-3.5994,-3.7091,-3.8435,-3.907,-3.9238,-3.9434,-3.957,-3.9609,-3.9707,-3.9573,-3.9573,-3.9498,-3.9498,-3.9518,-3.9537,-3.9576,-3.9807,-4.0176,-4.0371,-4.0605,-4.0918,-4.1074,-4.1152,-4.1113,-4.1133,-4.1152,-4.1172,-4.1308,-4.1465,-4.1387,-4.125,-4.1328,-4.1445,-4.1484,-4.1465,-4.1484,-4.1387,-4.1328,-4.1367,-4.1387,-4.1348,-4.1308,-4.1387,-4.1465,-4.1601,-4.1836,-4.209,-4.2383,-4.2207,-4.1875,-4.1641,-4.1504,-4.1543,-4.1582,-4.1562,-4.1504,-4.1211,-4.1191,-4.1172,-4.1132,-4.0957,-4.0839,-4.0835,-4.0757,-4.0752,-4.0754,-4.0951,-4.072,-4.0661,-4.0833,-4.0971,-4.1131,-4.1229,-4.1246,-4.1223,-4.1138,-4.1048,-4.1028,-4.1103,-4.1106,-4.0956,-4.0915,-3.8574,-3.8574,-3.8574,-3.8574,-3.8574,-3.8574,-3.8574,-3.8574,-3.8574,-3.8574,-3.8574,-3.8574,-3.8574,-3.8574,-3.8574,-3.8574,-3.8574,-3.8574,-3.8574,-3.8574,-3.8501,-3.8574,-3.8428,-3.8063,-3.7549,-3.6793,-3.6256,-3.5662,-3.4654,-3.339,-3.3255,-3.3592,-3.4388,-3.5459,-3.7032,-3.8993,-3.929,-3.9476,-3.9729,-3.9961,-4.0,-4.0,-3.9849,-3.9678,-3.945,-3.9394,-3.9242,-3.9355,-3.9431,-3.9546,-4.016,-4.0508,-4.0547,-4.0918,-4.1172,-4.1172,-4.1152,-4.1172,-4.1172,-4.1172,-4.1289,-4.1504,-4.1504,-4.1855,-4.1953,-4.1992,-4.1973,-4.1894,-4.1855,-4.1816,-4.1777,-4.1777,-4.1758,-4.1719,-4.1641,-4.1601,-4.166,-4.1719,-4.1973,-4.2441,-4.2715,-4.2558,-4.2226,-4.209,-4.1992,-4.2031,-4.2031,-4.1973,-4.1855,-4.1562,-4.1426,-4.1406,-4.1348,-4.1308,-4.1152,-4.1073,-4.1015,-4.0976,-4.0898,-4.0879,-4.0936,-4.0917,-4.0859,-4.0996,-4.1211,-4.1269,-4.1289,-4.117,-4.1109,-4.1121,-4.1052,-4.1234,-4.1332,-4.1096,-4.102,-3.8574,-3.8574,-3.8574,-3.8574,-3.8574,-3.8574,-3.8574,-3.8574,-3.8574,-3.8574,-3.8574,-3.8574,-3.8574,-3.8574,-3.8428,-3.8375,-3.8375,-3.8136,-3.8063,-3.8063,-3.8063,-3.8063,-3.7936,-3.7329,-3.6497,-3.5736,-3.4971,-3.4221,-3.2994,-3.2021,-3.1654,-3.2468,-3.3533,-3.4911,-3.6609,-3.8595,-3.9624,-3.9794,-3.9928,-4.0256,-4.0371,-4.0295,-4.0066,-3.9625,-3.9318,-3.8857,-3.8798,-3.9011,-3.9088,-3.951,-4.0318,-4.0762,-4.0801,-4.1055,-4.1172,-4.1172,-4.1172,-4.1289,-4.1387,-4.125,-4.1387,-4.1582,-4.1758,-4.209,-4.2344,-4.2441,-4.2383,-4.2305,-4.2324,-4.2344,-4.2305,-4.2285,-4.2207,-4.2148,-4.2031,-4.1914,-4.1894,-4.1894,-4.2305,-4.2832,-4.293,-4.2773,-4.2637,-4.2519,-4.2402,-4.2324,-4.2266,-4.2246,-4.2187,-4.2031,-4.1933,-4.1894,-4.1797,-4.1719,-4.1543,-4.1367,-4.125,-4.1152,-4.1074,-4.1074,-4.1113,-4.1172,-4.1191,-4.1269,-4.1387,-4.1426,-4.1465,-4.125,-4.119,-4.1148,-4.1146,-4.13,-4.1367,-4.1229,-4.1203,-3.8574,-3.8574,-3.8574,-3.8574,-3.8574,-3.8574,-3.8574,-3.8574,-3.8574,-3.8574,-3.8574,-3.8574,-3.8574,-3.8501,-3.8302,-3.7936,-3.7623,-3.7329,-3.6941,-3.7107,-3.6719,-3.6719,-3.6423,-3.5978,-3.4989,-3.4389,-3.3634,-3.2555,-3.2021,-3.1117,-3.067,-3.1411,-3.2862,-3.4299,-3.584,-3.8359,-3.9451,-3.9508,-3.9951,-4.0395,-4.0783,-4.0958,-4.0841,-4.0042,-3.922,-3.859,-3.8785,-3.8882,-3.898,-3.9805,-4.0588,-4.1133,-4.1133,-4.1133,-4.1172,-4.1172,-4.1172,-4.1387,-4.1523,-4.1465,-4.168,-4.1894,-4.2109,-4.2344,-4.2539,-4.2715,-4.2656,-4.2734,-4.2773,-4.2617,-4.2539,-4.2422,-4.2344,-4.2246,-4.2129,-4.207,-4.207,-4.2012,-4.209,-4.2578,-4.2851,-4.2754,-4.293,-4.2812,-4.2949,-4.2695,-4.2656,-4.2676,-4.2637,-4.2558,-4.2402,-4.2344,-4.2168,-4.2031,-4.1914,-4.1719,-4.1543,-4.1426,-4.1308,-4.1172,-4.1152,-4.1289,-4.1504,-4.1465,-4.1445,-4.166,-4.1719,-4.1406,-4.1172,-4.1171,-4.1249,-4.1387,-4.1384,-4.1274,-4.1294,-3.8574,-3.8574,-3.8574,-3.8574,-3.8574,-3.8574,-3.8574,-3.8574,-3.8574,-3.8574,-3.8574,-3.8574,-3.8574,-3.8501,-3.8009,-3.7476,-3.6645,-3.6108,-3.542,-3.5046,-3.4822,-3.4971,-3.4654,-3.4221,-3.3314,-3.2326,-3.1485,-3.0886,-3.0268,-2.9741,-2.9756,-3.0531,-3.2028,-3.3619,-3.5072,-3.7649,-3.8855,-3.8892,-3.9123,-3.9569,-3.9823,-3.9902,-3.9745,-3.884,-3.787,-3.7392,-3.7552,-3.787,-3.8524,-3.9411,-4.0607,-4.1094,-4.1172,-4.1172,-4.1172,-4.1172,-4.123,-4.1504,-4.1758,-4.1797,-4.1894,-4.2129,-4.2324,-4.2519,-4.2695,-4.2832,-4.2969,-4.3105,-4.3105,-4.2891,-4.2676,-4.2539,-4.2461,-4.2324,-4.2246,-4.2246,-4.2226,-4.2051,-4.1914,-4.2246,-4.2617,-4.2851,-4.3047,-4.3242,-4.3379,-4.3418,-4.3418,-4.3418,-4.334,-4.3242,-4.2851,-4.2715,-4.248,-4.2324,-4.2226,-4.2129,-4.1953,-4.1699,-4.1543,-4.1367,-4.123,-4.1426,-4.1641,-4.1504,-4.1484,-4.1641,-4.1641,-4.1348,-4.1172,-4.1172,-4.1191,-4.1289,-4.1289,-4.1207,-4.1424,-3.8574,-3.8574,-3.8574,-3.8574,-3.8574,-3.8574,-3.8574,-3.8574,-3.8574,-3.8574,-3.8574,-3.8428,-3.8282,-3.8063,-3.7402,-3.6571,-3.5587,-3.4839,-3.4145,-3.3466,-3.307,-3.3297,-3.2994,-3.2614,-3.2021,-3.104,-3.0191,-2.9508,-2.8964,-2.8964,-2.9383,-3.0033,-3.1401,-3.2904,-3.439,-3.6535,-3.7852,-3.7809,-3.7852,-3.795,-3.8127,-3.7968,-3.7791,-3.6912,-3.619,-3.5867,-3.6351,-3.6815,-3.7791,-3.9017,-4.0372,-4.1094,-4.1172,-4.1172,-4.1289,-4.1426,-4.1543,-4.1719,-4.209,-4.2207,-4.2168,-4.2441,-4.2441,-4.2578,-4.2793,-4.291,-4.2871,-4.2988,-4.3105,-4.293,-4.2578,-4.2383,-4.25,-4.2461,-4.25,-4.2539,-4.2148,-4.1699,-4.1875,-4.2305,-4.2637,-4.2891,-4.3125,-4.3476,-4.3574,-4.3574,-4.3672,-4.3672,-4.3691,-4.3691,-4.3359,-4.3125,-4.2891,-4.2754,-4.2695,-4.2578,-4.2402,-4.2129,-4.1836,-4.1836,-4.1816,-4.1758,-4.1738,-4.1679,-4.1581,-4.1484,-4.1426,-4.1308,-4.1211,-4.1172,-4.1172,-4.1191,-4.1191,-4.1211,-4.1347,-3.8574,-3.8574,-3.8574,-3.8574,-3.8574,-3.8574,-3.8574,-3.8574,-3.8574,-3.8574,-3.8501,-3.8155,-3.7936,-3.7255,-3.6275,-3.5306,-3.4313,-3.3331,-3.2647,-3.2016,-3.1912,-3.1618,-3.1405,-3.1223,-3.0716,-3.0191,-2.9508,-2.9197,-2.8886,-2.9037,-2.9296,-2.9748,-3.0818,-3.2077,-3.3464,-3.5105,-3.6414,-3.619,-3.6092,-3.5931,-3.577,-3.5527,-3.5527,-3.4961,-3.4164,-3.4083,-3.4977,-3.5931,-3.6895,-3.8585,-4.0216,-4.0938,-4.1172,-4.1191,-4.1426,-4.1582,-4.1699,-4.2148,-4.2676,-4.2656,-4.2773,-4.2851,-4.2656,-4.2695,-4.2949,-4.291,-4.2871,-4.2812,-4.291,-4.2793,-4.2441,-4.2285,-4.2402,-4.2695,-4.2773,-4.2754,-4.2148,-4.1621,-4.1992,-4.2402,-4.2656,-4.293,-4.3223,-4.3574,-4.3691,-4.3691,-4.3691,-4.3691,-4.3691,-4.3691,-4.3555,-4.3457,-4.3379,-4.3262,-4.3164,-4.2949,-4.2754,-4.2558,-4.2305,-4.2383,-4.2322,-4.2145,-4.2006,-4.2047,-4.1911,-4.1597,-4.1521,-4.1501,-4.1386,-4.1387,-4.1523,-4.1621,-4.1387,-4.1387,-4.1269,-3.8574,-3.8574,-3.8574,-3.8574,-3.8574,-3.8574,-3.8574,-3.8574,-3.8574,-3.8574,-3.8428,-3.777,-3.7181,-3.6479,-3.5605,-3.4313,-3.2495,-3.1577,-3.0315,-2.9395,-3.0007,-2.97,-2.9592,-2.9945,-2.9479,-2.9197,-2.9119,-2.8964,-2.8944,-2.9134,-2.936,-2.9532,-3.0167,-3.1209,-3.2081,-3.3515,-3.449,-3.449,-3.4327,-3.4164,-3.4001,-3.4001,-3.4327,-3.3838,-3.3281,-3.3624,-3.4343,-3.5447,-3.6895,-3.8505,-4.0137,-4.0938,-4.1172,-4.1211,-4.1445,-4.1777,-4.1894,-4.2383,-4.2773,-4.2988,-4.3125,-4.3144,-4.3047,-4.3183,-4.3223,-4.2988,-4.2832,-4.248,-4.25,-4.2363,-4.2109,-4.2051,-4.2168,-4.2734,-4.3027,-4.2812,-4.2402,-4.2226,-4.2305,-4.2578,-4.2793,-4.2988,-4.3183,-4.3476,-4.3691,-4.3691,-4.3691,-4.3691,-4.3691,-4.3691,-4.3691,-4.3691,-4.3691,-4.3691,-4.3555,-4.3223,-4.3008,-4.2871,-4.2773,-4.2754,-4.2612,-4.2427,-4.2268,-4.1771,-4.1709,-4.1571,-4.1579,-4.1314,-4.1851,-4.1833,-4.2069,-4.2168,-4.1855,-4.1582,-4.1484]},{"header":{"parameterUnit":"m.s-1","parameterCategory":1,"la1":31.0,"la2":29.5877,"lo1":-88.7671,"lo2":-86.6584,"dy":0.0162,"dx":0.0185,"nx":115,"ny":88,"refTime":"2026-04-08T12:00:00:Z","depth":0,"parameterNumber":3,"parameterNumberName":"V-component_of_WINDS"},"data":[0.0,0.0,0.0,0.0,0.0,0.0,0.0,0.0,0.0,0.0,0.0,0.0,0.0,0.0,0.0,0.0,0.0,0.0,0.0,0.0,0.0,0.0,0.0,0.0,0.0,0.0,0.0,0.0,0.0,0.0,0.0,0.0,0.0,0.0,0.0,0.0,0.0,0.0,0.0,0.0,0.0,0.0,0.0,0.0,0.0,0.0,0.0,0.0,0.0,0.0,0.0,0.0,0.0,0.0,0.0,0.0,0.0,0.0,0.0,0.0,0.0,0.0,0.0,0.0,0.0,0.0,0.0,0.0,0.0,0.0,0.0,0.0,0.0,0.0,0.0,0.0,0.0,0.0,0.0,0.0,0.0,0.0,0.0,0.0,0.0,0.0,0.0,0.0,0.0,0.0,0.0,0.0,0.0,0.0,0.0,0.0,0.0,0.0,0.0,0.0,0.0,0.0,0.0,0.0,0.0,0.0,0.0,0.0,0.0,0.0,0.0,0.0,0.0,0.0,0.0,0.0,0.0,0.0,0.0,0.0,0.0,0.0,0.0,0.0,0.0,0.0,0.0,0.0,0.0,0.0,0.0,0.0,0.0,0.0,0.0,0.0,0.0,0.0,0.0,0.0,0.0,0.0,0.0,0.0,0.0,0.0,0.0,0.0,0.0,0.0,0.0,0.0,0.0,0.0,0.0,0.0,0.0,0.0,0.0,0.0,0.0,0.0,0.0,0.0,0.0,0.0,0.0,0.0,0.0,0.0,0.0,0.0,0.0,0.0,0.0,0.0,0.0,0.0,0.0,0.0,0.0,0.0,0.0,0.0,0.0,0.0,0.0,0.0,0.0,0.0,0.0,0.0,0.0,0.0,0.0,0.0,0.0,0.0,0.0,0.0,0.0,0.0,0.0,0.0,0.0,0.0,0.0,0.0,0.0,0.0,0.0,0.0,0.0,0.0,0.0,0.0,0.0,0.0,0.0,0.0,0.0,0.0,0.0,0.0,0.0,0.0,0.0,0.0,0.0,0.0,0.0,0.0,0.0,0.0,0.0,0.0,0.0,0.0,0.0,0.0,0.0,0.0,0.0,0.0,0.0,0.0,0.0,0.0,0.0,0.0,0.0,0.0,0.0,0.0,0.0,0.0,0.0,0.0,0.0,0.0,0.0,0.0,0.0,0.0,0.0,0.0,0.0,0.0,0.0,0.0,0.0,0.0,0.0,0.0,0.0,0.0,0.0,0.0,0.0,0.0,0.0,0.0,0.0,0.0,0.0,0.0,0.0,0.0,0.0,0.0,0.0,0.0,0.0,0.0,0.0,0.0,0.0,0.0,0.0,0.0,0.0,0.0,0.0,0.0,0.0,0.0,0.0,0.0,0.0,0.0,0.0,0.0,0.0,0.0,0.0,0.0,0.0,0.0,0.0,0.0,0.0,0.0,0.0,0.0,0.0,0.0,0.0,0.0,0.0,0.0,0.0,0.0,0.0,0.0,0.0,0.0,0.0,0.0,0.0,0.0,0.0,0.0,0.0,0.0,0.0,0.0,0.0,0.0,0.0,0.0,0.0,0.0,0.0,0.0,0.0,0.0,0.0,0.0,0.0,0.0,0.0,0.0,0.0,0.0,0.0,0.0,0.0,0.0,0.0,0.0,0.0,0.0,0.0,0.0,0.0,0.0,0.0,0.0,0.0,0.0,0.0,0.0,0.0,0.0,0.0,0.0,0.0,0.0,0.0,0.0,0.0,0.0,0.0,0.0,0.0,0.0,0.0,0.0,0.0,0.0,0.0,0.0,0.0,0.0,0.0,0.0,0.0,0.0,0.0,0.0,0.0,0.0,0.0,0.0,0.0,0.0,0.0,0.0,0.0,0.0,0.0,0.0,0.0,0.0,0.0,0.0,0.0,0.0,0.0,0.0,0.0,0.0,0.0,0.0,0.0,0.0,0.0,0.0,0.0,0.0,0.0,0.0,0.0,0.0,0.0,0.0,0.0,0.0,0.0,0.0,0.0,0.0,0.0,0.0,0.0,0.0,0.0,0.0,0.0,0.0,0.0,0.0,0.0,0.0,0.0,0.0,0.0,0.0,0.0,0.0,0.0,0.0,0.0,0.0,0.0,0.0,0.0,0.0,0.0,0.0,0.0,0.0,0.0,0.0,0.0,0.0,0.0,0.0,0.0,0.0,0.0,0.0,0.0,0.0,0.0,0.0,0.0,0.0,0.0,0.0,0.0,0.0,0.0,0.0,0.0,0.0,0.0,0.0,0.0,0.0,0.0,0.0,0.0,0.0,0.0,0.0,0.0,0.0,0.0,0.0,0.0,0.0,0.0,0.0,0.0,0.0,0.0,0.0,0.0,0.0,0.0,0.0,0.0,0.0,0.0,0.0,0.0,0.0,0.0,0.0,0.0,0.0,0.0,0.0,0.0,0.0,0.0,0.0,0.0,0.0,0.0,0.0,0.0,0.0,0.0,0.0,0.0,0.0,0.0,0.0,0.0,0.0,0.0,0.0,0.0,0.0,0.0,0.0,0.0,0.0,0.0,0.0,0.0,0.0,0.0,0.0,0.0,0.0,0.0,0.0,0.0,0.0,0.0,0.0,0.0,0.0,0.0,0.0,0.0,0.0,0.0,0.0,0.0,0.0,0.0,0.0,0.0,0.0,0.0,0.0,0.0,0.0,0.0,0.0,0.0,0.0,0.0,0.0,0.0,0.0,0.0,0.0,0.0,0.0,0.0,0.0,0.0,0.0,0.0,0.0,0.0,0.0,0.0,0.0,0.0,0.0,0.0,0.0,0.0,0.0,0.0,0.0,0.0,0.0,0.0,0.0,0.0,0.0,0.0,0.0,0.0,0.0,0.0,0.0,0.0,0.0,0.0,0.0,0.0,0.0,0.0,0.0,0.0,0.0,0.0,0.0,0.0,0.0,0.0,0.0,0.0,0.0,0.0,0.0,0.0,0.0,0.0,0.0,0.0,0.0,0.0,0.0,0.0,0.0,0.0,0.0,0.0,0.0,0.0,0.0,0.0,0.0,0.0,0.0,0.0,0.0,0.0,0.0,0.0,0.0,0.0,0.0,0.0,0.0,0.0,0.0,0.0,0.0,0.0,0.0,0.0,0.0,0.0,0.0,0.0,0.0,0.0,0.0,0.0,0.0,0.0,0.0,0.0,0.0,0.0,0.0,0.0,0.0,0.0,0.0,0.0,0.0,0.0,0.0,0.0,0.0,0.0,0.0,0.0,0.0,0.0,0.0,0.0,0.0,0.0,0.0,0.0,0.0,0.0,0.0,0.0,0.0,0.0,0.0,0.0,0.0,0.0,0.0,0.0,0.0,0.0,0.0,0.0,0.0,0.0,0.0,0.0,0.0,0.0,0.0,0.0,0.0,0.0,0.0,0.0,0.0,0.0,0.0,0.0,0.0,0.0,0.0,0.0,0.0,0.0,0.0,0.0,0.0,0.0,0.0,0.0,0.0,0.0,0.0,0.0,0.0,0.0,0.0,0.0,0.0,0.0,0.0,0.0,0.0,0.0,0.0,0.0,0.0,0.0,0.0,0.0,0.0,0.0,0.0,0.0,0.0,0.0,0.0,0.0,0.0,0.0,0.0,0.0,0.0,0.0,0.0,0.0,0.0,0.0,0.0,0.0,0.0,0.0,0.0,0.0,0.0,0.0,0.0,0.0,0.0,0.0,0.0,0.0,0.0,0.0,0.0,0.0,0.0,0.0,0.0,0.0,0.0,0.0,0.0,0.0,0.0,0.0,0.0,0.0,0.0,0.0,0.0,0.0,0.0,0.0,0.0,0.0,0.0,0.0,0.0,0.0,0.0,0.0,0.0,0.0,0.0,0.0,0.0,0.0,0.0,0.0,0.0,0.0,0.0,0.0,0.0,0.0,0.0,0.0,0.0,0.0,0.0,0.0,0.0,0.0,0.0,0.0,0.0,0.0,0.0,0.0,0.0,0.0,0.0,0.0,0.0,0.0,0.0,0.0,0.0,0.0,0.0,0.0,0.0,0.0,0.0,0.0,0.0,0.0,0.0,0.0,0.0,0.0,0.0,0.0,0.0,0.0,0.0,0.0,0.0,0.0,0.0,0.0,0.0,0.0,0.0,0.0,0.0,0.0,0.0,0.0,0.0,0.0,0.0,0.0,0.0,0.0,0.0,0.0,0.0,0.0,0.0,0.0,0.0,0.0,0.0,0.0,0.0,0.0,0.0,0.0,0.0,0.0,0.0,0.0,0.0,0.0,0.0,0.0,0.0,0.0,0.0,0.0,0.0,0.0,0.0,1.8477,0.0,0.0,0.0,0.0,0.0,0.0,0.0,0.0,0.0,0.0,0.0,0.0,0.0,0.0,0.0,0.0,0.0,0.0,0.0,0.0,0.0,0.0,0.0,0.0,0.0,0.0,0.0,0.0,0.0,0.0,0.0,0.0,0.0,0.0,0.0,0.0,0.0,0.0,0.0,0.0,0.0,0.0,0.0,0.0,0.0,0.0,0.0,0.0,0.0,0.0,0.0,0.0,0.0,0.0,0.0,0.0,0.0,0.0,0.0,0.0,0.0,0.0,0.0,0.0,0.0,0.0,0.0,0.0,0.0,0.0,0.0,0.0,0.0,0.0,0.0,0.0,0.0,0.0,0.0,0.0,0.0,0.0,0.0,0.0,0.0,0.0,0.0,0.0,0.0,0.0,0.0,0.0,0.0,0.0,0.0,0.0,0.0,0.0,0.0,0.0,0.0,0.0,0.0,0.0,0.0,0.0,0.0,0.0,0.0,0.0,1.943,1.9417,1.8798,1.849,1.8477,0.0,0.0,0.0,0.0,0.0,0.0,0.0,0.0,0.0,0.0,0.0,0.0,0.0,0.0,0.0,0.0,0.0,0.0,0.0,0.0,0.0,0.0,0.0,0.0,0.0,0.0,0.0,0.0,0.0,0.0,0.0,0.0,0.0,0.0,0.0,0.0,0.0,0.0,0.0,0.0,0.0,0.0,0.0,0.0,0.0,0.0,0.0,0.0,0.0,0.0,0.0,0.0,0.0,0.0,0.0,0.0,0.0,0.0,0.0,0.0,0.0,0.0,0.0,0.0,0.0,0.0,0.0,0.0,0.0,0.0,0.0,0.0,0.0,0.0,0.0,0.0,0.0,0.0,0.0,0.0,0.0,0.0,0.0,0.0,0.0,0.0,0.0,0.0,0.0,0.0,0.0,0.0,0.0,0.0,0.0,0.0,0.0,0.0,0.0,0.0,0.0,0.0,0.0,0.0,0.0,0.0,0.0,0.0,0.0,0.0,0.0,0.0,1.8931,1.8586,1.8494,0.0,0.0,0.0,0.0,0.0,0.0,0.0,0.0,0.0,0.0,0.0,0.0,0.0,0.0,0.0,0.0,0.0,0.0,0.0,0.0,0.0,0.0,0.0,0.0,0.0,0.0,0.0,0.0,0.0,0.0,0.0,0.0,0.0,0.0,0.0,0.0,0.0,0.0,0.0,0.0,0.0,0.0,0.0,0.0,0.0,0.0,0.0,0.0,0.0,0.0,0.0,0.0,0.0,0.0,0.0,0.0,0.0,0.0,0.0,0.0,0.0,0.0,0.0,0.0,0.0,0.0,0.0,0.0,0.0,0.0,0.0,0.0,0.0,0.0,0.0,0.0,0.0,0.0,0.0,0.0,0.0,0.0,0.0,0.0,0.0,0.0,0.0,0.0,0.0,0.0,0.0,0.0,0.0,0.0,0.0,0.0,0.0,0.0,0.0,0.0,0.0,0.0,0.0,0.0,0.0,0.0,0.0,0.0,0.0,0.0,1.9613,2.012,1.9319,0.0,1.8482,0.0,0.0,0.0,0.0,0.0,0.0,0.0,0.0,0.0,0.0,0.0,0.0,0.0,0.0,0.0,0.0,0.0,0.0,0.0,0.0,0.0,0.0,0.0,0.0,0.0,0.0,0.0,0.0,0.0,0.0,0.0,0.0,0.0,0.0,0.0,0.0,0.0,0.0,0.0,0.0,0.0,0.0,0.0,0.0,0.0,0.0,0.0,0.0,0.0,0.0,0.0,0.0,0.0,0.0,0.0,0.0,0.0,0.0,0.0,0.0,0.0,0.0,0.0,0.0,0.0,0.0,0.0,0.0,0.0,0.0,0.0,0.0,0.0,0.0,0.0,0.0,0.0,0.0,0.0,0.0,0.0,0.0,0.0,0.0,0.0,0.0,0.0,0.0,0.0,0.0,0.0,0.0,0.0,0.0,0.0,0.0,0.0,0.0,0.0,0.0,0.0,0.0,0.0,0.0,0.0,0.0,0.0,0.0,0.0,0.0,2.008,2.0481,1.9639,1.8913,0.0,0.0,0.0,0.0,0.0,0.0,0.0,0.0,0.0,0.0,0.0,0.0,0.0,0.0,0.0,0.0,0.0,0.0,0.0,0.0,0.0,0.0,0.0,0.0,0.0,0.0,0.0,0.0,0.0,0.0,0.0,0.0,0.0,0.0,0.0,0.0,0.0,0.0,0.0,0.0,0.0,0.0,0.0,0.0,0.0,0.0,0.0,0.0,0.0,0.0,0.0,0.0,0.0,0.0,0.0,0.0,0.0,0.0,0.0,0.0,0.0,0.0,0.0,0.0,0.0,0.0,0.0,0.0,0.0,0.0,0.0,0.0,0.0,0.0,0.0,0.0,0.0,0.0,0.0,0.0,0.0,0.0,0.0,0.0,0.0,0.0,0.0,0.0,0.0,0.0,0.0,0.0,0.0,0.0,0.0,0.0,0.0,0.0,0.0,0.0,0.0,0.0,0.0,0.0,0.0,0.0,0.0,0.0,0.0,0.0,1.9973,2.0094,2.0267,1.9626,1.8982,1.834,0.0,0.0,0.0,0.0,0.0,0.0,0.0,0.0,0.0,0.0,0.0,0.0,0.0,0.0,0.0,0.0,0.0,0.0,0.0,0.0,0.0,0.0,0.0,0.0,0.0,0.0,0.0,0.0,0.0,0.0,0.0,0.0,0.0,0.0,0.0,0.0,0.0,0.0,0.0,0.0,0.0,0.0,0.0,0.0,0.0,0.0,0.0,0.0,0.0,0.0,0.0,0.0,0.0,0.0,0.0,0.0,0.0,0.0,0.0,0.0,0.0,0.0,0.0,0.0,0.0,0.0,0.0,0.0,0.0,0.0,0.0,0.0,0.0,0.0,0.0,0.0,0.0,0.0,0.0,0.0,0.0,0.0,0.0,0.0,0.0,0.0,0.0,0.0,0.0,0.0,0.0,0.0,0.0,0.0,0.0,0.0,0.0,0.0,0.0,0.0,0.0,0.0,0.0,0.0,0.0,0.0,0.0,0.0,2.016,1.9706,1.9484,1.9511,1.9118,1.8986,0.0,0.0,0.0,0.0,0.0,0.0,0.0,0.0,0.0,0.0,0.0,0.0,0.0,0.0,0.0,0.0,0.0,0.0,0.0,0.0,0.0,0.0,0.0,0.0,0.0,0.0,0.0,0.0,0.0,0.0,0.0,0.0,0.0,0.0,0.0,0.0,0.0,0.0,0.0,0.0,0.0,0.0,0.0,0.0,0.0,0.0,0.0,0.0,0.0,0.0,0.0,0.0,0.0,0.0,0.0,0.0,0.0,0.0,0.0,0.0,0.0,0.0,0.0,0.0,0.0,0.0,0.0,0.0,0.0,0.0,0.0,0.0,0.0,0.0,0.0,0.0,0.0,0.0,0.0,0.0,0.0,0.0,0.0,0.0,0.0,0.0,0.0,0.0,0.0,0.0,0.0,0.0,0.0,0.0,0.0,0.0,0.0,0.0,0.0,0.0,0.0,0.0,0.0,0.0,0.0,0.0,0.0,0.0,0.0,2.053,2.0708,2.0516,1.9952,1.9635,1.9401,0.0,0.0,0.0,0.0,0.0,0.0,0.0,0.0,0.0,0.0,0.0,0.0,0.0,0.0,0.0,0.0,0.0,0.0,0.0,0.0,0.0,0.0,0.0,0.0,0.0,0.0,0.0,0.0,0.0,0.0,0.0,0.0,0.0,0.0,0.0,0.0,0.0,0.0,0.0,0.0,0.0,0.0,0.0,0.0,0.0,0.0,0.0,0.0,0.0,0.0,0.0,0.0,0.0,0.0,0.0,0.0,0.0,0.0,0.0,0.0,0.0,0.0,0.0,0.0,0.0,0.0,0.0,0.0,0.0,0.0,0.0,0.0,0.0,0.0,0.0,0.0,0.0,0.0,0.0,0.0,0.0,0.0,0.0,0.0,0.0,0.0,0.0,0.0,0.0,0.0,0.0,0.0,0.0,0.0,0.0,0.0,0.0,0.0,0.0,0.0,0.0,0.0,0.0,0.0,0.0,0.0,0.0,0.0,0.0,2.1203,0.0,2.159,2.0626,1.9977,1.9559,0.0,0.0,0.0,0.0,0.0,0.0,0.0,0.0,0.0,0.0,0.0,0.0,0.0,0.0,0.0,0.0,0.0,0.0,0.0,0.0,0.0,0.0,0.0,0.0,0.0,0.0,0.0,0.0,0.0,0.0,0.0,0.0,0.0,0.0,0.0,0.0,0.0,0.0,0.0,0.0,0.0,0.0,0.0,0.0,0.0,0.0,0.0,0.0,0.0,0.0,0.0,0.0,0.0,0.0,0.0,0.0,0.0,0.0,0.0,0.0,0.0,0.0,0.0,0.0,0.0,0.0,0.0,0.0,0.0,0.0,0.0,0.0,0.0,0.0,0.0,0.0,0.0,0.0,0.0,0.0,0.0,0.0,0.0,0.0,0.0,0.0,0.0,0.0,0.0,0.0,0.0,0.0,0.0,0.0,0.0,0.0,0.0,0.0,0.0,0.0,0.0,0.0,0.0,0.0,0.0,0.0,0.0,0.0,2.2824,2.227,2.2837,2.2562,2.1349,2.0146,1.9607,0.0,0.0,0.0,0.0,0.0,0.0,0.0,0.0,0.0,0.0,0.0,0.0,0.0,0.0,0.0,0.0,0.0,0.0,0.0,0.0,0.0,0.0,0.0,0.0,0.0,0.0,0.0,0.0,0.0,0.0,0.0,0.0,0.0,0.0,0.0,0.0,0.0,0.0,0.0,0.0,0.0,0.0,0.0,0.0,0.0,0.0,0.0,0.0,0.0,0.0,0.0,0.0,0.0,0.0,0.0,0.0,0.0,0.0,0.0,0.0,0.0,0.0,0.0,0.0,0.0,0.0,0.0,0.0,0.0,0.0,0.0,0.0,0.0,0.0,0.0,0.0,0.0,0.0,0.0,0.0,0.0,0.0,0.0,0.0,0.0,0.0,0.0,0.0,0.0,0.0,0.0,0.0,0.0,0.0,0.0,0.0,0.0,0.0,0.0,0.0,0.0,0.0,0.0,0.0,0.0,0.0,0.0,0.0,0.0,2.3818,2.3995,2.3671,2.2645,2.1128,2.0367,0.0,0.0,0.0,0.0,0.0,0.0,0.0,0.0,0.0,0.0,0.0,0.0,0.0,0.0,0.0,0.0,0.0,0.0,0.0,0.0,0.0,0.0,0.0,0.0,0.0,0.0,0.0,0.0,0.0,0.0,0.0,0.0,0.0,0.0,0.0,0.0,0.0,0.0,0.0,0.0,0.0,0.0,0.0,0.0,0.0,0.0,0.0,0.0,0.0,0.0,0.0,0.0,0.0,0.0,0.0,0.0,0.0,0.0,0.0,0.0,0.0,0.0,0.0,0.0,0.0,0.0,0.0,0.0,0.0,0.0,0.0,0.0,0.0,0.0,0.0,0.0,0.0,0.0,0.0,0.0,0.0,0.0,0.0,0.0,0.0,0.0,0.0,0.0,0.0,0.0,0.0,0.0,0.0,0.0,0.0,0.0,0.0,0.0,0.0,0.0,0.0,0.0,0.0,0.0,0.0,0.0,0.0,0.0,0.0,2.6918,2.656,2.585,2.4772,2.2809,2.1773,2.1796,0.0,0.0,0.0,0.0,0.0,0.0,0.0,0.0,0.0,0.0,0.0,0.0,0.0,0.0,0.0,0.0,0.0,0.0,0.0,0.0,0.0,0.0,0.0,0.0,0.0,0.0,0.0,0.0,0.0,0.0,0.0,0.0,0.0,0.0,0.0,0.0,0.0,0.0,0.0,0.0,0.0,0.0,0.0,0.0,0.0,0.0,0.0,0.0,0.0,0.0,0.0,0.0,0.0,0.0,0.0,0.0,0.0,0.0,0.0,0.0,0.0,0.0,0.0,0.0,0.0,0.0,0.0,0.0,0.0,0.0,0.0,0.0,0.0,0.0,0.0,0.0,0.0,0.0,0.0,0.0,0.0,0.0,0.0,0.0,0.0,0.0,0.0,0.0,0.0,0.0,0.0,0.0,0.0,0.0,0.0,0.0,0.0,0.0,0.0,0.0,0.0,0.0,0.0,0.0,0.0,0.0,0.0,0.0,3.1266,3.0306,2.9093,2.7587,2.5131,2.3829,0.0,0.0,0.0,0.0,0.0,0.0,0.0,0.0,0.0,0.0,0.0,0.0,0.0,0.0,0.0,0.0,0.0,0.0,0.0,0.0,0.0,0.0,0.0,0.0,0.0,0.0,0.0,0.0,0.0,0.0,0.0,0.0,0.0,0.0,0.0,0.0,0.0,0.0,0.0,0.0,0.0,0.0,0.0,0.0,0.0,0.0,0.0,0.0,0.0,0.0,0.0,0.0,0.0,0.0,0.0,0.0,0.0,0.0,0.0,0.0,0.0,0.0,0.0,0.0,0.0,0.0,0.0,0.0,0.0,0.0,0.0,0.0,0.0,0.0,0.0,0.0,0.0,0.0,0.0,0.0,0.0,0.0,0.0,0.0,0.0,0.0,0.0,0.0,0.0,0.0,0.0,0.0,0.0,0.0,0.0,0.0,0.0,0.0,0.0,0.0,0.0,0.0,0.0,0.0,0.0,0.0,0.0,0.0,0.0,3.334,3.4352,3.3239,2.9819,2.7751,2.6055,0.0,0.0,0.0,0.0,0.0,0.0,0.0,0.0,0.0,0.0,0.0,0.0,0.0,0.0,0.0,0.0,0.0,0.0,0.0,0.0,0.0,0.0,0.0,0.0,0.0,0.0,0.0,0.0,0.0,0.0,0.0,0.0,0.0,0.0,0.0,0.0,0.0,0.0,0.0,0.0,0.0,0.0,0.0,0.0,0.0,0.0,0.0,0.0,0.0,0.0,0.0,0.0,0.0,0.0,0.0,0.0,0.0,0.0,0.0,0.0,0.0,0.0,0.0,0.0,0.0,0.0,0.0,0.0,0.0,0.0,0.0,0.0,0.0,0.0,0.0,0.0,0.0,0.0,0.0,0.0,0.0,0.0,0.0,0.0,0.0,0.0,0.0,0.0,0.0,0.0,0.0,0.0,0.0,0.0,0.0,0.0,0.0,0.0,0.0,0.0,0.0,0.0,0.0,0.0,0.0,0.0,0.0,0.0,3.3136,3.4901,3.7215,3.6656,3.3166,3.051,2.8289,0.0,0.0,0.0,0.0,0.0,0.0,0.0,0.0,0.0,0.0,0.0,0.0,0.0,0.0,0.0,0.0,0.0,0.0,0.0,0.0,0.0,0.0,0.0,0.0,0.0,0.0,0.0,0.0,0.0,0.0,0.0,0.0,0.0,0.0,0.0,0.0,0.0,0.0,0.0,0.0,0.0,0.0,0.0,0.0,0.0,0.0,0.0,0.0,0.0,0.0,0.0,0.0,0.0,0.0,0.0,0.0,0.0,0.0,0.0,0.0,0.0,0.0,0.0,0.0,0.0,0.0,0.0,0.0,0.0,0.0,0.0,0.0,0.0,0.0,0.0,0.0,0.0,0.0,0.0,0.0,0.0,0.0,0.0,0.0,0.0,0.0,0.0,0.0,0.0,0.0,0.0,0.0,0.0,0.0,0.0,0.0,0.0,0.0,0.0,0.0,0.0,0.0,0.0,0.0,0.0,0.0,0.0,0.0,3.4355,3.6133,3.9023,3.9355,3.6914,3.3293,3.0562,0.0,0.0,0.0,0.0,0.0,0.0,0.0,0.0,0.0,0.0,0.0,0.0,0.0,0.0,0.0,0.0,0.0,0.0,0.0,0.0,0.0,0.0,0.0,0.0,0.0,0.0,0.0,0.0,0.0,0.0,0.0,0.0,0.0,0.0,0.0,0.0,0.0,0.0,0.0,0.0,0.0,0.0,0.0,0.0,0.0,0.0,0.0,0.0,0.0,0.0,0.0,0.0,0.0,0.0,0.0,0.0,0.0,0.0,0.0,0.0,0.0,0.0,0.0,0.0,0.0,0.0,0.0,0.0,0.0,0.0,0.0,0.0,0.0,0.0,0.0,0.0,0.0,0.0,0.0,0.0,0.0,0.0,0.0,0.0,0.0,0.0,0.0,0.0,0.0,0.0,0.0,0.0,0.0,0.0,0.0,0.0,0.0,0.0,0.0,0.0,0.0,0.0,0.0,0.0,0.0,0.0,0.0,0.0,3.4941,3.6992,3.9316,3.9785,3.8203,3.5375,3.2633,0.0,0.0,0.0,0.0,0.0,0.0,0.0,0.0,0.0,0.0,0.0,0.0,0.0,0.0,0.0,0.0,0.0,0.0,0.0,0.0,0.0,0.0,0.0,0.0,0.0,0.0,0.0,0.0,0.0,0.0,0.0,0.0,0.0,0.0,0.0,0.0,0.0,0.0,0.0,0.0,0.0,0.0,0.0,0.0,0.0,0.0,0.0,0.0,2.6148,0.0,0.0,0.0,0.0,0.0,0.0,0.0,0.0,0.0,0.0,0.0,0.0,0.0,0.0,0.0,0.0,0.0,0.0,0.0,0.0,0.0,0.0,0.0,0.0,0.0,0.0,0.0,0.0,0.0,0.0,0.0,0.0,0.0,0.0,0.0,0.0,0.0,0.0,0.0,0.0,0.0,0.0,0.0,0.0,0.0,0.0,0.0,0.0,0.0,0.0,0.0,0.0,0.0,0.0,0.0,0.0,0.0,0.0,0.0,3.6459,3.8442,4.0405,4.0801,3.9473,3.751,3.4803,0.0,0.0,0.0,0.0,0.0,0.0,0.0,0.0,0.0,0.0,0.0,0.0,0.0,0.0,0.0,0.0,0.0,0.0,0.0,0.0,0.0,0.0,0.0,0.0,0.0,0.0,0.0,0.0,0.0,0.0,0.0,0.0,0.0,0.0,0.0,0.0,0.0,0.0,0.0,0.0,0.0,0.0,0.0,0.0,0.0,0.0,0.0,0.0,0.0,0.0,0.0,0.0,0.0,0.0,0.0,0.0,0.0,0.0,0.0,0.0,0.0,0.0,0.0,0.0,0.0,0.0,0.0,0.0,0.0,0.0,0.0,0.0,0.0,0.0,0.0,0.0,0.0,0.0,0.0,0.0,0.0,0.0,0.0,0.0,0.0,0.0,0.0,0.0,0.0,0.0,0.0,0.0,0.0,0.0,0.0,0.0,0.0,0.0,0.0,0.0,0.0,0.0,0.0,0.0,0.0,0.0,0.0,3.5614,3.7903,3.9685,4.1304,4.1565,4.0318,3.902,3.6456,3.2566,0.0,0.0,0.0,0.0,0.0,0.0,0.0,0.0,0.0,0.0,0.0,0.0,0.0,0.0,0.0,0.0,0.0,0.0,0.0,0.0,0.0,0.0,0.0,0.0,0.0,0.0,0.0,0.0,0.0,0.0,0.0,0.0,0.0,0.0,0.0,0.0,0.0,0.0,2.5957,2.6816,0.0,0.0,0.0,0.0,0.0,0.0,0.0,0.0,2.7949,0.0,0.0,0.0,0.0,0.0,0.0,0.0,0.0,0.0,0.0,0.0,0.0,0.0,0.0,0.0,0.0,0.0,0.0,0.0,0.0,0.0,0.0,0.0,0.0,0.0,0.0,0.0,0.0,0.0,0.0,0.0,0.0,0.0,0.0,0.0,0.0,0.0,0.0,0.0,0.0,0.0,0.0,0.0,0.0,0.0,0.0,0.0,0.0,0.0,0.0,0.0,0.0,0.0,0.0,0.0,0.0,3.3313,3.582,3.7763,3.9222,4.0559,4.0747,3.9783,3.8205,3.6173,3.3636,0.0,0.0,0.0,0.0,0.0,0.0,0.0,0.0,0.0,0.0,0.0,0.0,0.0,0.0,0.0,0.0,0.0,0.0,0.0,0.0,0.0,0.0,0.0,0.0,0.0,0.0,0.0,0.0,0.0,0.0,0.0,0.0,0.0,0.0,0.0,0.0,0.0,0.0,0.0,2.8398,2.9004,0.0,0.0,0.0,0.0,0.0,0.0,0.0,0.0,2.748,0.0,0.0,0.0,0.0,0.0,0.0,0.0,0.0,0.0,0.0,0.0,0.0,0.0,0.0,0.0,0.0,0.0,0.0,0.0,0.0,0.0,0.0,0.0,0.0,0.0,0.0,0.0,0.0,0.0,0.0,0.0,0.0,0.0,0.0,0.0,0.0,0.0,0.0,0.0,0.0,0.0,0.0,0.0,0.0,0.0,0.0,0.0,0.0,0.0,0.0,0.0,0.0,0.0,0.0,0.0,3.4625,3.7102,3.8861,4.0034,4.0861,4.0779,3.9636,3.7881,3.586,0.0,0.0,0.0,0.0,0.0,0.0,0.0,0.0,0.0,0.0,0.0,0.0,0.0,0.0,0.0,0.0,0.0,0.0,0.0,0.0,0.0,0.0,0.0,0.0,0.0,0.0,0.0,0.0,0.0,0.0,0.0,0.0,0.0,0.0,0.0,0.0,0.0,0.0,0.0,0.0,2.9297,3.0019,2.9355,0.0,0.0,0.0,0.0,0.0,0.0,2.8457,2.8008,0.0,0.0,0.0,0.0,0.0,0.0,0.0,0.0,0.0,0.0,0.0,0.0,0.0,0.0,0.0,0.0,0.0,0.0,0.0,0.0,0.0,0.0,0.0,0.0,0.0,0.0,0.0,0.0,0.0,0.0,0.0,0.0,0.0,0.0,0.0,0.0,0.0,0.0,0.0,0.0,0.0,0.0,0.0,0.0,0.0,0.0,0.0,0.0,0.0,0.0,0.0,0.0,0.0,0.0,0.0,3.5853,3.8414,4.0201,4.0996,4.1548,4.1121,3.9825,3.7921,3.5851,0.0,0.0,0.0,0.0,0.0,0.0,0.0,0.0,0.0,0.0,0.0,0.0,0.0,0.0,0.0,0.0,0.0,0.0,0.0,0.0,0.0,0.0,0.0,0.0,0.0,0.0,0.0,0.0,0.0,0.0,0.0,0.0,0.0,0.0,0.0,0.0,0.0,0.0,0.0,0.0,0.0,3.1052,3.0342,3.0187,0.0,0.0,0.0,0.0,2.9062,2.9121,0.0,0.0,0.0,0.0,0.0,0.0,0.0,0.0,0.0,0.0,0.0,0.0,0.0,0.0,0.0,0.0,0.0,0.0,0.0,0.0,0.0,0.0,0.0,0.0,0.0,0.0,0.0,0.0,0.0,0.0,0.0,0.0,0.0,0.0,0.0,0.0,0.0,0.0,0.0,0.0,0.0,0.0,0.0,0.0,0.0,0.0,0.0,0.0,0.0,0.0,0.0,0.0,0.0,0.0,0.0,0.0,3.6622,3.9382,4.1105,4.1581,4.2058,4.182,4.0733,3.848,3.6313,0.0,0.0,0.0,0.0,0.0,0.0,0.0,0.0,0.0,0.0,0.0,0.0,0.0,0.0,0.0,0.0,0.0,0.0,0.0,0.0,0.0,0.0,0.0,0.0,0.0,0.0,0.0,0.0,0.0,0.0,0.0,0.0,0.0,0.0,0.0,0.0,0.0,0.0,0.0,0.0,0.0,3.2565,3.2522,3.2093,3.1661,0.0,0.0,2.9922,2.9551,2.9805,0.0,0.0,0.0,0.0,0.0,0.0,0.0,0.0,0.0,0.0,0.0,0.0,0.0,0.0,0.0,0.0,0.0,0.0,0.0,0.0,0.0,0.0,0.0,0.0,0.0,0.0,0.0,0.0,0.0,0.0,0.0,0.0,0.0,0.0,0.0,0.0,0.0,0.0,0.0,0.0,0.0,0.0,0.0,0.0,0.0,0.0,0.0,0.0,0.0,0.0,0.0,0.0,0.0,0.0,0.0,3.641,3.777,4.0904,4.2613,4.2815,4.304,4.2545,4.1287,3.919,3.6984,0.0,0.0,0.0,0.0,0.0,0.0,0.0,0.0,0.0,0.0,0.0,0.0,0.0,0.0,0.0,0.0,0.0,0.0,0.0,0.0,0.0,0.0,0.0,0.0,0.0,0.0,0.0,0.0,0.0,0.0,0.0,0.0,0.0,0.0,0.0,0.0,0.0,0.0,0.0,0.0,0.0,0.0,3.4094,3.3889,0.0,0.0,0.0,3.0976,3.1035,0.0,0.0,0.0,0.0,0.0,0.0,0.0,0.0,0.0,0.0,0.0,0.0,0.0,0.0,0.0,0.0,0.0,0.0,0.0,0.0,0.0,0.0,0.0,0.0,0.0,0.0,0.0,0.0,0.0,0.0,0.0,0.0,0.0,0.0,0.0,0.0,0.0,0.0,0.0,0.0,0.0,0.0,0.0,0.0,0.0,0.0,0.0,0.0,0.0,0.0,0.0,0.0,0.0,0.0,0.0,0.0,0.0,3.8658,4.2195,4.4147,4.4263,4.4263,4.3589,4.2234,4.0176,0.0,0.0,0.0,0.0,0.0,0.0,0.0,0.0,0.0,0.0,0.0,0.0,0.0,0.0,0.0,0.0,0.0,0.0,0.0,0.0,0.0,0.0,0.0,0.0,0.0,0.0,0.0,2.7433,0.0,0.0,0.0,0.0,0.0,0.0,0.0,0.0,0.0,0.0,0.0,0.0,0.0,0.0,3.62,3.5713,3.5695,3.5326,0.0,0.0,3.2433,3.2711,3.2629,3.1918,0.0,0.0,0.0,0.0,0.0,0.0,0.0,0.0,0.0,0.0,0.0,0.0,0.0,0.0,0.0,0.0,0.0,0.0,0.0,0.0,0.0,0.0,0.0,0.0,0.0,0.0,0.0,0.0,0.0,0.0,0.0,0.0,0.0,0.0,0.0,0.0,0.0,0.0,0.0,0.0,0.0,0.0,0.0,0.0,0.0,0.0,0.0,0.0,0.0,0.0,0.0,0.0,0.0,0.0,3.6646,3.908,4.2964,4.5278,4.571,4.5734,4.523,4.4127,4.1643,3.9049,0.0,0.0,0.0,0.0,0.0,0.0,0.0,0.0,0.0,0.0,0.0,0.0,0.0,0.0,0.0,0.0,0.0,0.0,0.0,0.0,0.0,0.0,0.0,0.0,0.0,0.0,0.0,0.0,0.0,0.0,0.0,0.0,0.0,0.0,0.0,0.0,0.0,0.0,0.0,0.0,0.0,3.7588,3.7775,3.7676,3.745,0.0,3.5625,3.4595,3.4268,3.3739,3.2713,3.0888,0.0,0.0,0.0,0.0,0.0,0.0,0.0,0.0,0.0,0.0,0.0,0.0,0.0,0.0,0.0,0.0,0.0,0.0,0.0,0.0,0.0,0.0,0.0,0.0,0.0,0.0,0.0,0.0,0.0,0.0,0.0,0.0,0.0,0.0,0.0,0.0,0.0,0.0,0.0,0.0,0.0,0.0,0.0,0.0,0.0,0.0,0.0,0.0,0.0,0.0,0.0,0.0,0.0,3.7418,3.9972,4.3844,4.6081,4.66,4.66,4.6081,4.508,4.34,4.1052,0.0,0.0,0.0,0.0,0.0,0.0,0.0,0.0,0.0,0.0,0.0,0.0,0.0,0.0,0.0,0.0,0.0,0.0,0.0,0.0,0.0,0.0,0.0,0.0,0.0,0.0,0.0,0.0,2.9038,2.9492,2.9808,0.0,0.0,0.0,0.0,0.0,0.0,0.0,0.0,0.0,0.0,4.0185,4.0444,4.1033,0.0,0.0,3.9314,3.8272,3.715,3.5977,3.435,3.1848,2.9565,0.0,0.0,0.0,0.0,0.0,0.0,0.0,0.0,0.0,0.0,0.0,0.0,0.0,0.0,0.0,0.0,0.0,0.0,0.0,0.0,0.0,0.0,0.0,0.0,0.0,0.0,0.0,0.0,0.0,0.0,0.0,0.0,0.0,0.0,0.0,0.0,0.0,0.0,0.0,0.0,0.0,0.0,0.0,0.0,0.0,0.0,0.0,0.0,0.0,0.0,0.0,0.0,3.7836,4.0464,4.4503,4.6866,4.7364,4.7577,4.7221,4.6315,4.5043,4.2856,0.0,0.0,0.0,0.0,0.0,0.0,0.0,0.0,0.0,0.0,0.0,0.0,0.0,0.0,0.0,0.0,0.0,0.0,0.0,0.0,0.0,0.0,0.0,0.0,0.0,0.0,0.0,0.0,2.9974,3.0406,3.0482,0.0,0.0,0.0,0.0,0.0,0.0,0.0,0.0,0.0,0.0,4.1114,4.1695,4.246,4.2763,4.2117,4.1137,3.9985,3.8818,3.7036,3.4972,3.2596,0.0,0.0,0.0,0.0,0.0,0.0,0.0,0.0,0.0,0.0,0.0,0.0,0.0,0.0,0.0,0.0,0.0,0.0,0.0,0.0,0.0,0.0,0.0,0.0,0.0,0.0,0.0,3.6933,0.0,0.0,3.8144,0.0,0.0,0.0,0.0,0.0,0.0,0.0,0.0,0.0,0.0,0.0,0.0,0.0,0.0,0.0,0.0,0.0,0.0,0.0,0.0,0.0,0.0,3.7749,4.0412,4.4955,4.7565,4.8081,4.8629,4.8688,4.812,4.6473,4.4199,4.1246,0.0,0.0,0.0,0.0,0.0,0.0,0.0,0.0,0.0,0.0,0.0,0.0,0.0,0.0,0.0,0.0,0.0,0.0,0.0,0.0,0.0,0.0,0.0,0.0,0.0,0.0,3.0497,3.0765,3.0846,0.0,0.0,0.0,0.0,0.0,0.0,0.0,0.0,0.0,0.0,3.8416,3.977,4.1102,4.1282,4.1619,4.2078,4.0535,3.9094,3.8798,3.6509,3.4339,0.0,0.0,0.0,0.0,0.0,0.0,0.0,0.0,0.0,0.0,0.0,0.0,0.0,0.0,0.0,0.0,0.0,0.0,0.0,0.0,0.0,0.0,0.0,0.0,0.0,0.0,0.0,3.933,3.9686,0.0,0.0,0.0,0.0,0.0,0.0,0.0,0.0,0.0,0.0,0.0,4.3582,4.3307,0.0,0.0,0.0,0.0,0.0,0.0,0.0,0.0,0.0,0.0,0.0,0.0,3.9677,4.2493,4.6374,4.8625,4.9166,4.9791,4.9874,4.9333,4.7975,4.5146,4.0695,0.0,0.0,0.0,0.0,0.0,0.0,0.0,0.0,0.0,0.0,0.0,0.0,0.0,0.0,0.0,0.0,0.0,0.0,0.0,0.0,0.0,0.0,0.0,0.0,0.0,3.0445,0.0,0.0,0.0,0.0,0.0,0.0,0.0,0.0,0.0,0.0,0.0,3.4926,3.6935,3.9168,4.0889,4.1758,4.2786,4.344,0.0,0.0,0.0,0.0,0.0,0.0,0.0,0.0,0.0,0.0,0.0,0.0,0.0,0.0,3.0716,2.9011,2.8324,2.774,2.6945,0.0,0.0,0.0,0.0,0.0,0.0,0.0,0.0,0.0,0.0,0.0,0.0,0.0,0.0,4.2361,4.2802,4.1479,0.0,0.0,0.0,0.0,0.0,0.0,0.0,0.0,4.5711,4.6506,4.6824,4.6901,4.7096,0.0,4.7242,4.5625,0.0,0.0,0.0,0.0,0.0,0.0,0.0,0.0,4.1081,4.3789,4.7544,4.9724,5.0062,5.0926,5.1178,5.0813,4.8994,4.6013,4.1787,3.9253,3.6841,0.0,0.0,0.0,0.0,0.0,0.0,0.0,0.0,0.0,0.0,0.0,0.0,0.0,0.0,0.0,0.0,0.0,0.0,0.0,0.0,0.0,0.0,0.0,3.1736,0.0,0.0,0.0,0.0,0.0,0.0,0.0,0.0,0.0,3.3081,3.4515,3.6134,3.7551,3.9424,4.0908,4.1893,0.0,0.0,0.0,0.0,0.0,0.0,0.0,3.7939,3.6771,3.6472,3.644,3.668,3.6703,3.6656,3.634,0.0,0.0,3.1615,3.0336,2.9479,2.8559,2.8374,2.8256,2.7773,2.8027,2.8418,0.0,0.0,0.0,0.0,0.0,0.0,0.0,0.0,4.5795,4.5885,0.0,4.4458,0.0,0.0,0.0,0.0,4.17,4.3558,0.0,0.0,4.906,5.0272,5.0331,5.093,5.1259,5.1259,5.1199,5.0481,4.9015,4.399,0.0,0.0,0.0,0.0,0.0,0.0,4.1964,4.4416,4.8608,5.0761,5.0818,5.199,5.2619,5.2476,4.9667,4.6985,4.4506,4.2036,3.9578,3.7209,3.582,0.0,0.0,0.0,0.0,0.0,0.0,0.0,0.0,0.0,0.0,0.0,0.0,0.0,0.0,0.0,0.0,0.0,0.0,0.0,0.0,3.3251,0.0,0.0,0.0,0.0,0.0,0.0,0.0,0.0,0.0,0.0,3.4943,3.6296,3.7689,3.8768,0.0,0.0,0.0,0.0,4.1756,4.2811,4.2288,4.1687,4.1361,4.0038,3.8948,3.8731,0.0,0.0,3.9685,3.9779,3.959,3.9037,3.8367,3.6974,3.4103,3.2538,3.1284,2.9967,2.9662,2.9489,2.9137,2.9329,2.9643,5.3863,0.0,0.0,0.0,0.0,4.9326,4.9988,5.0883,5.0223,5.0039,5.0087,4.811,0.0,0.0,0.0,0.0,0.0,0.0,4.7965,5.0166,5.1226,5.223,5.3219,5.3213,5.3209,5.3209,5.2725,5.1818,5.0426,4.7799,4.4899,4.1882,0.0,0.0,0.0,0.0,4.4536,4.7155,5.0674,5.2507,5.2457,5.3314,5.3314,5.2368,5.098,4.9314,4.7229,4.5543,4.3678,4.1518,3.9328,0.0,0.0,0.0,0.0,0.0,0.0,0.0,0.0,0.0,0.0,0.0,0.0,0.0,0.0,0.0,0.0,0.0,0.0,0.0,3.3175,3.4321,3.4913,0.0,0.0,0.0,0.0,0.0,0.0,0.0,0.0,0.0,3.9108,3.9644,4.0134,0.0,0.0,4.1363,4.1464,4.1727,4.2032,4.2389,4.2529,0.0,4.1988,4.1554,4.137,4.1632,4.274,4.3498,4.3193,4.3144,4.2848,4.1935,4.0996,3.9802,3.8348,3.5754,3.3458,3.1885,3.1277,3.0902,3.0558,3.0561,3.0684,5.9216,5.5603,5.3725,5.3377,5.4083,5.4168,5.4965,5.6019,5.5045,5.4794,5.492,5.2638,5.1224,5.0479,4.86,0.0,0.0,0.0,5.1226,5.3215,5.4006,5.4742,5.5457,5.558,5.5503,5.5225,5.4823,5.399,5.2731,5.1025,4.8953,4.6286,0.0,0.0,4.312,4.4436,4.6172,4.8327,5.1546,5.3174,5.3174,5.3862,5.3563,5.2247,5.1319,5.0152,4.8716,4.716,4.5633,4.4167,4.1624,3.9469,0.0,0.0,0.0,0.0,0.0,0.0,0.0,0.0,0.0,0.0,0.0,3.0997,3.081,0.0,0.0,0.0,3.3306,3.4406,3.5504,3.6259,0.0,0.0,0.0,0.0,0.0,0.0,0.0,4.0383,4.1185,4.1975,4.2838,4.3385,4.3332,4.2256,4.2518,4.281,4.258,0.0,4.2946,4.3148,4.3543,4.3683,4.3411,4.3249,4.3237,4.3564,4.4242,4.4694,4.4392,4.4292,4.3991,4.3131,4.2295,4.1513,4.0813,3.8604,3.6384,3.4382,3.3606,3.3266,3.3074,3.2867,3.2605,6.3703,6.2837,5.9986,5.8916,5.9018,5.8902,5.9777,6.1184,5.9942,5.9672,5.9994,5.7506,5.5937,5.5117,5.2482,0.0,5.3276,5.385,5.4677,5.5826,5.7005,5.7465,5.7349,5.7892,5.786,5.7227,5.7132,5.6528,5.5493,5.3613,5.2133,5.0983,4.6286,4.4137,4.4676,4.5873,4.713,4.8476,5.1528,5.3084,5.3114,5.3713,5.3414,5.2067,5.0823,4.9912,4.9209,4.7459,4.6172,4.5424,4.3,4.0726,3.8816,0.0,0.0,0.0,0.0,0.0,0.0,0.0,0.0,0.0,0.0,0.0,0.0,0.0,0.0,0.0,3.5027,0.0,3.8392,3.8618,0.0,0.0,0.0,3.8928,4.0205,4.0321,4.1047,4.2934,0.0,0.0,4.5808,4.7056,4.6813,4.4041,4.4067,4.4378,4.4599,4.4537,4.4561,4.4995,4.5246,4.5399,4.524,4.4951,4.4694,4.4644,4.4267,4.4016,4.3865,4.3815,4.3589,4.3087,4.2737,4.24,4.1834,4.0975,3.984,3.7428,3.6502,3.6055,3.5895,3.5432,3.4848,6.6988,6.6763,6.6467,6.4674,6.2189,6.2503,6.2853,6.3036,6.2676,6.2285,6.1816,6.0696,5.9203,5.7413,5.5719,5.5424,5.6163,5.6326,5.7094,5.8339,5.8346,5.8549,5.8976,5.8812,5.8632,5.8409,5.7388,5.665,5.6151,5.4178,5.2697,5.1709,5.0022,4.8528,4.7399,4.7668,4.8476,4.9717,5.1528,5.2426,5.2426,5.2606,5.2037,5.0704,5.0345,4.9657,4.8566,4.8087,4.7519,4.683,4.4766,4.294,4.1512,3.8422,0.0,0.0,0.0,0.0,0.0,0.0,0.0,0.0,0.0,3.2819,3.4203,0.0,3.4942,0.0,3.7299,3.8296,3.8664,3.9522,0.0,0.0,4.0615,4.0902,4.2179,4.2295,4.2847,4.4269,4.5024,4.5721,4.6505,4.7695,4.8124,4.7213,4.7516,4.7664,4.7364,4.8056,4.8228,4.7536,4.7733,4.7788,4.6813,4.6256,4.5698,4.5347,4.5146,4.4794,4.394,4.379,4.3614,4.3112,4.293,4.2818,4.2681,4.2301,4.184,4.1056,3.9132,3.7212,3.6812,3.6432,3.5991,6.883,6.8879,6.9301,6.8298,6.6424,6.6067,6.5986,6.6035,6.537,6.4794,6.4361,6.3672,6.2516,6.1124,6.0291,6.0158,6.0484,6.0484,6.0835,6.1476,6.0928,6.0741,6.0857,6.0304,5.9794,5.935,5.8245,5.7557,5.712,5.5187,5.3988,5.3613,5.2766,5.1814,5.0813,4.9954,4.9839,5.0592,5.1857,5.255,5.255,5.255,5.1917,5.0622,5.0291,4.9508,4.8183,4.7852,4.74,4.6665,4.5081,4.3576,4.2289,3.9636,3.7074,0.0,0.0,0.0,0.0,0.0,0.0,0.0,0.0,0.0,0.0,0.0,3.7159,3.8763,3.9535,4.027,4.1045,4.1666,4.2294,4.2831,4.306,4.3533,4.4528,4.4879,4.5391,4.625,4.692,4.7398,4.7637,4.8537,4.9214,4.9357,5.0105,5.0114,4.8945,4.9636,5.0075,4.9056,4.9236,4.895,4.746,4.6501,4.5826,4.538,4.4926,4.4288,4.3595,4.3438,4.3338,4.3062,4.2986,4.2986,4.2986,4.2874,4.2681,4.2351,4.1339,4.015,3.9376,3.8873,3.8355,6.9988,7.0035,7.0223,7.0456,7.0507,6.9132,6.8751,6.9011,6.759,6.6914,6.6779,6.6,6.529,6.4613,6.4512,6.441,6.4309,6.4309,6.4228,6.4031,6.3384,6.2803,6.2399,6.1724,6.0968,6.0166,5.9297,5.8665,5.8191,5.6271,5.5431,5.5591,5.4624,5.4062,5.4019,5.2361,5.1481,5.1391,5.2521,5.31,5.3131,5.31,5.249,5.1178,5.0537,4.953,4.8084,4.7505,4.6864,4.6133,4.4983,4.38,4.2548,4.0624,3.8702,0.0,3.6043,0.0,0.0,0.0,0.0,0.0,0.0,0.0,0.0,3.8522,3.9757,4.1588,4.1918,4.262,4.4113,4.437,4.4602,4.5086,4.5634,4.6181,4.6786,4.7391,4.7861,4.819,4.8758,4.8997,4.8777,4.9349,5.0046,5.0598,5.1788,5.1834,5.0096,5.0892,5.1544,5.0299,5.0062,4.9525,4.784,4.663,4.5865,4.524,4.4407,4.3427,4.3092,4.3011,4.2986,4.2986,4.2986,4.3011,4.3062,4.3037,4.2955,4.2775,4.2885,4.2814,4.2144,4.1483,4.1047,7.1041,7.1041,7.1086,7.1098,7.1075,7.0197,6.9532,6.9045,6.8098,6.7354,6.6745,6.6034,6.529,6.458,6.3971,6.3396,6.2821,6.2821,6.2821,6.2747,6.238,6.2159,6.2078,6.1614,6.1317,6.1035,5.961,5.8779,5.8502,5.658,5.5564,5.544,5.4864,5.4559,5.4559,0.0,0.0,0.0,5.3683,5.3809,5.3809,5.3809,5.315,5.18,5.1612,0.0,4.8678,4.8467,4.802,4.7331,4.6586,0.0,0.0,0.0,0.0,0.0,0.0,0.0,0.0,0.0,0.0,0.0,4.2653,4.233,4.0532,4.1425,4.2485,4.3463,4.4486,4.5233,4.5586,4.6251,4.6937,4.7507,4.7377,4.7509,4.8129,4.8306,4.8453,4.8525,4.8899,4.9092,4.9132,4.9873,5.056,5.0772,5.2194,5.2897,5.2053,5.3744,5.4589,5.3126,5.1544,5.0155,4.883,4.8056,4.6968,4.5809,4.4944,4.4112,4.3229,4.3042,4.3042,4.3042,4.2986,4.3193,4.3514,4.3288,4.3087,4.3425,4.3332,4.3012,4.2791,4.2436,4.2064,7.1312,7.1312,7.1312,7.1312,0.0,7.0906,7.0331,6.9553,6.8402,6.7489,6.6779,6.6406,6.5831,6.5121,6.4377,6.3632,6.2922,6.255,6.2584,6.2922,6.2398,6.2352,6.2569,6.1998,6.1387,6.0817,5.9631,5.894,5.8672,5.7021,5.6369,5.661,5.5977,5.5701,5.5701,5.5701,5.5263,5.4348,5.4348,5.4348,5.4348,5.4348,5.384,5.2863,5.2409,0.0,0.0,0.0,0.0,0.0,0.0,0.0,0.0,0.0,0.0,4.2588,4.2813,4.2749,4.2174,4.3358,4.4573,4.5524,4.6933,4.6829,4.4637,4.5335,4.6361,4.7387,4.8062,4.85,4.8625,4.8821,4.8984,4.9114,4.9,4.901,4.9337,4.971,4.9796,4.9703,4.9828,4.9846,4.9637,5.0311,5.0921,5.1178,5.2775,5.3878,5.3733,5.4865,5.523,5.3571,5.1898,5.0517,4.9557,4.8545,4.751,4.6213,4.5378,4.4568,4.3593,4.3432,4.3376,4.324,4.3184,4.3285,4.3344,4.3162,4.3062,4.3313,4.3388,4.3382,4.334,4.302,4.265,7.1312,7.1312,7.1312,7.1312,7.1312,7.1312,7.0804,6.9891,0.0,0.0,0.0,6.6812,6.6339,6.5459,6.4884,6.414,6.3294,6.2685,6.2719,6.3294,6.2685,6.264,6.302,6.234,6.1501,6.0572,5.9791,5.9305,5.9112,5.7647,5.7177,5.7674,5.7044,5.668,5.668,5.668,5.6139,5.5099,5.5058,5.509,5.5058,5.5058,5.4736,5.4027,5.3447,5.2416,5.0972,5.036,4.9356,4.8006,4.7909,4.7394,4.6265,4.688,4.6754,4.569,4.6207,4.6662,4.6662,4.7308,4.8243,4.9466,5.0661,5.0601,4.8795,4.9095,4.9953,5.1224,5.1414,5.1561,5.1706,5.1522,5.1128,5.075,5.0819,5.0813,5.0753,5.1143,5.1366,5.1088,5.0952,5.0834,5.0552,5.0965,5.1412,5.1948,5.3326,5.4517,5.4575,5.4894,5.4851,5.3594,5.2358,5.1133,5.0258,4.9243,4.7885,4.6893,4.6062,4.5207,4.4585,4.4258,4.4013,4.3713,4.3547,4.3402,4.3199,4.3062,4.3037,4.3087,4.3388,4.3664,4.3614,4.3313,4.3006,7.1312,7.1312,7.1312,7.1312,7.1312,7.1312,7.0534,6.9214,6.8301,6.7489,6.6812,6.6812,6.6034,6.4749,6.4647,6.3869,6.2584,6.2448,6.2448,6.2516,6.2448,6.2448,6.251,6.2144,6.1929,6.1675,6.0685,6.0118,5.9911,5.8455,5.7707,5.7707,5.7044,5.668,5.668,5.668,5.6603,5.6447,5.6447,5.6447,5.6408,5.6447,5.6078,5.5386,5.5221,5.4199,5.2257,5.2059,5.1333,4.988,4.9781,4.9682,4.9551,5.0179,5.0511,5.0378,5.1006,5.1402,5.1402,5.2062,5.2785,5.3577,5.3874,5.3198,5.1392,5.1275,5.162,5.2421,5.3029,5.325,5.3184,5.3569,5.3743,5.3447,5.3452,5.3243,5.2684,5.2714,5.2563,5.2001,5.1649,5.1703,5.19,5.2072,5.2435,5.2866,5.3914,5.4546,5.4599,5.4575,5.455,5.4269,5.3637,5.2636,5.154,5.0795,4.9601,4.8047,4.7291,4.6637,4.5953,4.5529,4.5101,4.4561,4.4177,4.3806,4.3683,4.3288,4.3268,4.3495,4.3501,4.3218,4.3218,4.3092,4.3112,7.1312,7.1312,7.1312,7.1312,7.1312,7.1312,7.0466,6.9113,6.8707,6.7895,6.6846,6.6812,6.6203,6.5189,6.4783,6.4005,6.2956,6.2178,6.2009,6.2347,6.1975,6.2009,6.2347,6.2268,6.215,6.1963,6.1461,6.1173,6.0953,5.9498,5.8685,5.8619,5.7476,5.6834,5.6872,5.6757,5.668,5.668,5.668,5.668,5.668,5.668,5.6547,5.6183,5.5814,5.499,5.3599,5.3169,5.2274,5.085,5.1181,5.1214,5.085,5.1843,5.244,5.2473,5.3135,5.3533,5.3533,5.4195,5.4924,5.562,5.5686,5.5363,5.4502,5.4032,5.413,5.4816,5.5495,5.5799,5.5539,5.5868,5.5927,5.5607,5.5354,5.5098,5.4818,5.4756,5.4431,5.381,5.3565,5.3419,5.3177,5.3555,5.3922,5.4217,5.4959,5.5347,5.4972,5.4807,5.4502,5.4047,5.3413,5.2833,5.2194,5.1481,5.0446,4.8974,4.8425,4.7823,4.7029,4.6478,4.5953,4.5262,4.4804,4.439,4.4036,4.369,4.3665,4.3741,4.3716,4.3457,4.3321,4.3129,4.3087,7.1312,7.1312,7.1312,7.1312,7.1312,7.1312,7.0466,6.9147,6.9079,6.8233,6.6948,6.6812,6.6373,6.5662,6.5087,6.4444,6.3666,6.2584,6.2279,6.255,6.2076,6.2042,6.2347,6.2415,6.2302,6.2076,6.2037,6.1917,6.1622,6.0236,5.9332,5.8891,5.7706,5.7063,5.6987,5.6834,5.6757,5.668,5.668,5.668,5.668,5.668,5.668,5.6647,5.615,5.5483,5.4792,5.4195,5.3334,5.2142,5.2572,5.2605,5.2108,5.3202,5.393,5.3927,5.4593,5.5024,5.5024,5.5554,5.6084,5.6647,5.668,5.668,5.6647,5.6349,5.6316,5.6912,5.737,5.7648,5.7478,5.7655,5.7699,5.7313,5.7037,5.6715,5.6569,5.6455,5.603,5.5395,5.5141,5.4774,5.4688,5.493,5.5268,5.5508,5.5909,5.5913,5.5424,5.4978,5.4416,5.3745,5.3146,5.2775,5.2601,5.204,5.1069,4.9915,4.9541,4.8974,4.8116,4.7541,4.7026,4.6294,4.5847,4.5342,4.4668,4.445,4.4505,4.4611,4.4476,4.4123,4.3628,4.324,4.3042,7.1312,7.1312,7.1312,7.1312,7.1312,7.1278,7.0466,6.918,6.9079,6.8233,6.688,6.6812,6.6406,6.573,6.5628,6.5189,6.4546,6.4377,6.3971,6.3429,6.3362,6.299,6.2415,6.2415,6.2381,6.2341,6.215,6.1997,6.189,6.0281,5.8863,5.7658,5.7356,5.7176,5.7025,5.6987,5.6872,5.668,5.668,5.668,5.668,5.668,5.668,5.668,5.6614,5.6249,5.545,5.5416,5.4986,5.4328,5.4229,5.4262,5.4258,5.499,5.5383,5.5421,5.6084,5.6481,5.6481,5.6547,5.6614,5.668,5.6713,5.6713,5.6746,5.7243,5.7608,5.774,5.7773,5.8051,5.8411,5.8656,5.871,5.8561,5.8578,5.8448,5.7897,5.7169,5.6497,5.5837,5.5409,5.5006,5.5778,5.6029,5.6115,5.6428,5.6378,5.605,5.5411,5.4923,5.4436,5.3948,5.3571,5.3233,5.2798,5.2543,5.1889,5.0853,5.0564,5.0154,4.9502,4.8916,4.8481,4.7731,4.7205,4.6687,4.6189,4.6084,4.6032,4.5767,4.5475,4.4993,4.4094,4.3432,4.3154,7.1312,7.1312,7.1312,7.1312,7.1278,7.0838,7.006,6.9113,6.8571,6.7793,6.6914,6.6812,6.6643,6.6373,6.6339,6.617,6.5899,6.5459,6.485,6.4174,6.3734,6.3125,6.2448,6.2415,6.2415,6.2381,6.2302,6.2229,6.1992,6.0627,5.9309,5.8332,5.7786,5.7439,5.7364,5.7252,5.7139,5.7063,5.7063,5.7063,5.7025,5.6834,5.668,5.668,5.668,5.6349,5.5681,5.5582,5.5251,5.4589,5.4887,5.5156,5.5152,5.5852,5.6249,5.6282,5.6514,5.668,5.668,5.7077,5.7144,5.6713,5.7111,5.7342,5.7342,5.7641,5.8138,5.8933,5.9098,5.919,5.944,5.9902,6.0163,6.0112,6.0171,6.0075,5.9857,5.9095,5.8451,5.7699,5.7013,5.6678,5.7334,5.7983,5.8004,5.7557,5.7363,5.7152,5.6109,5.5434,5.4953,5.4503,5.4178,5.3779,5.3256,5.3123,5.2543,5.1701,5.1556,5.1497,5.0461,5.0031,4.9552,4.894,4.8302,4.762,4.6867,4.6816,4.6816,4.6712,4.6032,4.5315,4.4722,4.4039,4.3598,7.1312,7.1312,7.1312,7.1176,7.0939,7.0432,6.9654,6.8774,6.8166,6.7489,6.6846,6.6812,6.6812,6.6812,6.6812,6.6812,6.6745,6.6237,6.5493,6.4613,6.4038,6.3328,6.2482,6.2415,6.2415,6.2415,6.2415,6.2279,6.1975,6.0791,5.9742,5.8961,5.8106,5.7662,5.7588,5.7439,5.7364,5.7289,5.7327,5.7327,5.7252,5.7025,5.6872,5.6872,5.6796,5.6525,5.6027,5.5918,5.5686,5.5156,5.562,5.588,5.5918,5.6415,5.668,5.668,5.668,5.6779,5.6978,5.7475,5.7674,5.7376,5.7839,5.8104,5.8138,5.827,5.8866,5.9761,6.0191,6.0291,6.0357,6.0788,6.1086,6.1119,6.1119,6.1119,6.1011,6.0456,5.9654,5.8966,5.8051,5.7939,5.8409,5.9293,5.9538,5.8443,5.8388,5.8267,5.6787,5.6008,5.5556,5.5015,5.4722,5.4304,5.3867,5.36,5.3024,5.2274,5.2122,5.2071,5.1083,5.0651,5.0493,4.981,4.9165,4.8701,4.8252,4.8021,4.7717,4.7513,4.6867,4.6111,4.5794,4.5073,4.4613,7.1312,7.1278,7.1312,7.0838,7.0229,7.0128,6.9316,6.803,6.7895,6.7489,6.6846,6.6812,6.6812,6.6812,6.6812,6.6812,6.6812,6.6745,6.5933,6.4681,6.4546,6.3768,6.2448,6.2415,6.2415,6.2415,6.2415,6.2076,6.1434,6.052,5.9742,5.8994,5.8217,5.7772,5.7625,5.7588,5.7476,5.7364,5.7364,5.7327,5.7327,5.7289,5.7289,5.7252,5.7101,5.6954,5.6882,5.6729,5.6581,5.6619,5.6581,5.6614,5.6614,5.6647,5.668,5.668,5.6713,5.7011,5.7608,5.7839,5.8104,5.8601,5.8767,5.8866,5.8899,5.9363,5.9794,6.0026,6.0655,6.0986,6.0986,6.102,6.1119,6.1119,6.1119,6.1119,6.1119,6.0456,5.9728,5.9065,5.8403,5.8195,5.8717,5.9637,5.9926,5.9299,5.8656,5.7937,5.722,5.6484,5.5871,5.5411,5.5179,5.4976,5.4406,5.4045,5.3334,5.2617,5.2399,5.2304,5.1556,5.1033,5.0983,5.0788,5.0377,5.0031,4.9696,4.9424,4.9079,4.8703,4.8072,4.7513,4.6895,4.6503,4.5979,7.0331,6.9891,6.9891,6.9722,6.9451,6.8944,6.8402,6.7861,6.7387,6.7083,6.6846,6.6812,6.6812,6.6812,6.6812,6.6812,6.6812,6.6812,6.6,6.4715,6.4613,6.3802,6.2516,6.2415,6.2415,6.2415,6.2415,6.2245,6.1873,6.0723,5.9979,5.9539,5.8457,5.7845,5.7808,5.7772,5.7735,5.7698,5.7698,5.7698,5.7662,5.7698,5.7698,5.7662,5.7364,5.7139,5.6987,5.6911,5.6834,5.6719,5.668,5.668,5.668,5.668,5.668,5.6746,5.7111,5.7508,5.7873,5.8701,5.9065,5.8933,5.9363,5.9595,5.9628,5.986,6.0191,6.0622,6.092,6.1119,6.1119,6.1119,6.1119,6.1119,6.1119,6.1119,6.0986,6.0456,5.9893,5.9628,5.933,5.901,5.8725,5.9824,6.0514,5.9676,5.9312,5.8924,5.8306,5.7535,5.67,5.6183,5.5819,5.5451,5.4976,5.4406,5.3833,5.3268,5.2909,5.2836,5.2348,5.2093,5.2013,5.1374,5.1133,5.0531,4.9959,4.962,4.9502,4.9227,4.8653,4.8352,4.7847,4.7462,4.6919,6.9553,6.9147,6.9079,6.8944,6.8639,6.8132,6.776,6.7523,6.7015,6.6812,6.6812,6.6812,6.6812,6.6812,6.6812,6.6812,6.6812,6.6812,6.6034,6.4681,6.4613,6.3835,6.2584,6.2415,6.2415,6.2415,6.2415,6.2415,6.2279,6.1095,6.0385,6.0013,5.8829,5.8118,5.7915,5.7881,5.7881,5.7881,5.7881,5.7881,5.7881,5.7881,5.7881,5.7845,5.7625,5.7402,5.7214,5.7139,5.7025,5.6911,5.6834,5.6757,5.6719,5.668,5.6812,5.7044,5.7508,5.8038,5.8535,5.9463,5.9893,5.9661,6.0059,6.0357,6.0357,6.0357,6.0622,6.0986,6.1119,6.1119,6.1119,6.1119,6.1119,6.1119,6.1119,6.102,6.0755,6.0324,5.9926,5.9661,5.9794,5.9429,5.8959,6.0181,6.0478,5.9783,5.9774,5.9626,5.9058,5.8388,5.7574,5.6974,5.6524,5.6066,5.5601,5.52,5.4395,5.3807,5.3568,5.3444,5.3143,5.3004,5.2741,5.202,5.1329,5.0668,5.0153,4.9834,4.96,4.9453,4.9277,4.898,4.8653,4.8402,4.792,6.9045,6.8977,6.9079,6.8538,6.7929,6.7793,6.7455,6.6948,6.6846,6.6812,6.6812,6.6812,6.6812,6.6812,6.6812,6.6812,6.6812,6.6812,6.6,6.4681,6.4613,6.3802,6.2448,6.2415,6.2415,6.2415,6.2415,6.2415,6.2347,6.1569,6.0858,6.0148,5.9336,5.8592,5.7915,5.7915,5.7881,5.7881,5.7881,5.7881,5.7881,5.7881,5.7881,5.7881,5.7881,5.7772,5.7588,5.7402,5.7289,5.7252,5.7101,5.6911,5.6857,5.6884,5.7077,5.7707,5.7873,5.8568,5.9694,5.9993,6.0423,6.0721,6.102,6.0986,6.0953,6.0986,6.102,6.1086,6.1119,6.1119,6.1119,6.1119,6.1119,6.1119,6.1119,6.0821,6.0258,6.0026,5.9728,5.9264,5.9628,5.9993,6.0051,6.0448,6.0614,6.0239,6.0011,5.9737,5.9338,5.8959,5.8303,5.7715,5.7386,5.7053,5.6457,5.5918,5.5079,5.4331,5.4256,5.4097,5.3561,5.3334,5.3224,5.2696,5.1733,5.107,5.0368,5.0048,4.9776,4.96,4.9522,4.9473,4.9277,4.9029,4.9029,6.7523,6.7523,6.7523,6.7387,6.7151,6.7151,6.7015,6.6812,6.6812,6.6812,6.6812,6.6812,6.6812,6.6812,6.6812,6.6812,6.6812,6.6779,6.6,6.4816,6.4613,6.3835,6.2651,6.2415,6.2415,6.2415,6.2415,6.2415,6.2245,6.167,6.1129,6.0757,5.9641,5.893,5.8626,5.8186,5.7881,5.7881,5.7881,5.7881,5.7881,5.7881,5.7881,5.7881,5.7881,5.7845,5.7808,5.7625,5.7439,5.7327,5.7252,5.7334,5.7642,5.8018,5.8303,5.8568,5.9065,5.9429,5.996,6.0456,6.0821,6.1053,6.1119,6.1119,6.1119,6.1119,6.1119,6.1119,6.1119,6.1119,6.1119,6.1119,6.1119,6.1119,6.1119,6.0821,6.0158,5.9993,5.9661,5.9231,5.9993,6.0456,6.0291,6.0605,6.0976,6.0783,6.0699,6.0529,6.0378,5.9946,5.9608,5.9011,5.8605,5.8009,5.748,5.6927,5.6247,5.5341,5.493,5.4179,5.3651,5.3638,5.3609,5.3213,5.2247,5.1452,5.0798,5.032,5.0096,4.9795,4.9717,4.9669,4.9746,4.9649,4.96,6.6812,6.6812,6.6812,6.6812,6.6812,6.6812,6.6812,6.6812,6.6812,6.6812,6.6812,6.6812,6.6812,6.6812,6.6812,6.6812,6.6812,6.6812,6.617,6.5087,6.4681,6.3937,6.2854,6.2482,6.2415,6.2415,6.2415,6.2415,6.2381,6.1941,6.1569,6.1129,6.0317,5.9539,5.9066,5.8558,5.822,5.7983,5.8152,5.8321,5.8355,5.8558,5.8693,5.8727,5.8727,5.8693,5.8693,5.8582,5.8234,5.7719,5.7711,5.8098,5.8608,5.8919,5.9239,5.9571,5.9937,6.0296,6.0554,6.0945,6.1169,6.1119,6.1119,6.1119,6.1119,6.1119,6.1119,6.1119,6.1119,6.1119,6.1119,6.1119,6.1119,6.1119,6.1119,6.0788,6.0191,5.9993,5.986,5.9728,6.0622,6.1053,6.1119,6.145,6.1748,6.1616,6.1516,6.1318,6.1135,6.075,6.0368,5.9903,5.9355,5.8863,5.8423,5.7946,5.7387,5.6443,5.5579,5.4349,5.3347,5.3783,5.3971,5.3642,5.29,5.2181,5.1474,5.0965,5.0603,5.0301,5.0106,5.0038,5.0086,5.0086,4.999,6.6812,6.6812,6.6812,6.6812,6.6812,6.6812,6.6812,6.6812,6.6812,6.6812,6.6812,6.6812,6.6812,6.6812,6.6812,6.6812,6.6812,6.6812,6.6474,6.573,6.5087,6.4275,6.3429,6.2719,6.2415,6.2415,6.2415,6.2415,6.2381,6.2313,6.2042,6.1467,6.1197,6.0588,5.9573,5.9133,5.8761,5.8389,5.8795,5.9066,5.9099,5.9641,5.9979,5.9945,5.9945,5.9911,5.9877,5.9806,5.9336,5.8318,5.8605,5.9089,5.9477,5.9605,6.0029,6.0598,6.0671,6.0919,6.1298,6.135,6.1301,6.1169,6.1119,6.1119,6.1119,6.1119,6.1119,6.1119,6.1119,6.1119,6.1119,6.1119,6.1152,6.1185,6.1152,6.0821,6.0291,6.0258,6.0324,6.0456,6.1318,6.2255,6.2188,6.2785,6.2752,6.2487,6.2245,6.198,6.164,6.1372,6.0778,6.0586,6.0554,6.0411,6.0263,5.9903,5.9302,5.7944,5.6902,5.5551,5.4104,5.437,5.466,5.4221,5.3744,5.2971,5.23,5.1847,5.1366,5.1033,5.0798,5.0677,5.0629,5.0728,5.0514,6.6812,6.6812,6.6812,6.6812,6.6812,6.6812,6.6812,6.6812,6.6812,6.6812,6.6812,6.6812,6.6812,6.6812,6.6812,6.6812,6.6812,6.6812,6.6779,6.644,6.573,6.4681,6.3599,6.2753,6.2415,6.2415,6.2415,6.2415,6.2415,6.2415,6.2279,6.211,6.1569,6.1163,6.0655,6.008,5.9742,5.9573,5.9674,5.981,5.9844,6.0013,6.008,6.008,6.0148,6.0148,6.0114,6.008,5.9979,5.9674,6.0059,6.0342,6.0539,6.0857,6.1147,6.1314,6.1374,6.1475,6.1561,6.1506,6.1383,6.1334,6.121,6.1119,6.1119,6.1119,6.1119,6.1119,6.1119,6.1152,6.1152,6.1185,6.1384,6.1715,6.1583,6.1384,6.1558,6.1625,6.1616,6.1757,6.2487,6.2917,6.3083,6.3249,6.3348,6.3116,6.3017,6.2875,6.251,6.2401,6.2055,6.2405,6.2474,6.2398,6.2224,6.1872,6.1049,5.9536,5.8405,5.7418,5.6098,5.5474,5.5588,5.5489,5.4709,5.3961,5.3377,5.2912,5.2398,5.1856,5.1778,5.1708,5.164,5.165,5.1267,6.6812,6.6812,6.6812,6.6812,6.6812,6.6812,6.6812,6.6812,6.6812,6.6812,6.6812,6.6812,6.6812,6.6812,6.6812,6.6812,6.6812,6.6812,6.6812,6.6677,6.6,6.4884,6.37,6.299,6.2719,6.2415,6.2415,6.2415,6.2415,6.2415,6.2415,6.2313,6.1975,6.1637,6.1231,6.0892,6.0419,6.0216,6.0385,6.0588,6.0588,6.0926,6.1061,6.1061,6.1061,6.1061,6.1061,6.1061,6.096,6.0752,6.0912,6.1205,6.1543,6.1795,6.1991,6.1991,6.1991,6.1951,6.183,6.1676,6.1595,6.1547,6.1417,6.1375,6.1442,6.1608,6.1767,6.175,6.1941,6.2065,6.2013,6.2013,6.2378,6.2908,6.2676,6.251,6.2719,6.2652,6.2652,6.2818,6.3282,6.3736,6.3769,6.3968,6.3968,6.3835,6.3779,6.358,6.3272,6.3382,6.3415,6.3514,6.3481,6.3186,6.299,6.2727,6.2386,6.102,5.9766,5.8801,5.7792,5.6738,5.6515,5.6309,5.5658,5.5024,5.4458,5.3862,5.3258,5.2862,5.2823,5.2645,5.2466,5.2398,5.2043,6.6812,6.6812,6.6812,6.6812,6.6812,6.6812,6.6812,6.6812,6.6812,6.6812,6.6812,6.6812,6.6812,6.6812,6.6812,6.6812,6.6812,6.6812,6.6812,6.6643,6.6102,6.5189,6.4072,6.3531,6.3125,6.2651,6.2482,6.2415,6.2415,6.2415,6.2415,6.2381,6.2347,6.2042,6.1637,6.1434,6.1028,6.0723,6.1129,6.14,6.1467,6.1839,6.2076,6.211,6.211,6.2144,6.2212,6.2245,6.2009,6.1434,6.1434,6.1772,6.2313,6.2381,6.2381,6.2341,6.2302,6.2263,6.207,6.1957,6.1917,6.175,6.1709,6.1776,6.1862,6.2297,6.2623,6.2657,6.3215,6.3221,6.315,6.3282,6.3537,6.3968,6.4167,6.4067,6.3703,6.3504,6.3514,6.358,6.4133,6.4432,6.4664,6.4929,6.516,6.4531,6.4465,6.4332,6.41,6.4067,6.4001,6.3902,6.3802,6.3713,6.355,6.3419,6.3089,6.243,6.1096,6.0044,5.9011,5.8142,5.7633,5.7199,5.6617,5.6046,5.5475,5.488,5.4247,5.3972,5.4001,5.3462,5.2935,5.2968,5.2721,6.6812,6.6812,6.6812,6.6812,6.6812,6.6812,6.6812,6.6812,6.6812,6.6812,6.6812,6.6812,6.6812,6.6812,6.6812,6.6812,6.6812,6.6812,6.6812,6.6812,6.6711,6.6068,6.5053,6.414,6.3463,6.3125,6.2618,6.2415,6.2415,6.2415,6.2415,6.2415,6.2381,6.2313,6.2178,6.2042,6.2076,6.1941,6.2076,6.2076,6.211,6.2245,6.2415,6.2415,6.2415,6.2415,6.2415,6.2415,6.2313,6.2212,6.2144,6.2178,6.2347,6.2415,6.2415,6.2415,6.2415,6.2341,6.2302,6.2183,6.1997,6.1984,6.2032,6.1944,6.2513,6.2788,6.3149,6.3467,6.3675,6.3705,6.36,6.3912,6.421,6.4586,6.4873,6.5061,6.4962,6.4895,6.4829,6.4895,6.4995,6.5194,6.516,6.5227,6.5293,6.516,6.5127,6.5094,6.4929,6.4763,6.463,6.4498,6.4498,6.4432,6.4365,6.4112,6.365,6.3144,6.2027,6.1099,6.0076,5.9402,5.8806,5.8205,5.7652,5.7073,5.665,5.6072,5.55,5.5334,5.5126,5.4666,5.4206,5.3969,5.3354,6.6812,6.6812,6.6812,6.6812,6.6812,6.6812,6.6812,6.6812,6.6812,6.6812,6.6812,6.6812,6.6812,6.6812,6.6812,6.6812,6.6812,6.6812,6.6812,6.6812,6.6779,6.6576,6.6,6.4783,6.3903,6.3497,6.2753,6.2415,6.2415,6.2415,6.2415,6.2415,6.2415,6.2381,6.2415,6.2415,6.2381,6.2347,6.2415,6.2415,6.2415,6.2415,6.2415,6.2415,6.2415,6.2415,6.2415,6.2415,6.2415,6.2415,6.2415,6.2415,6.2415,6.2415,6.2415,6.2415,6.2415,6.2415,6.2375,6.2606,6.2729,6.2689,6.2879,6.3242,6.368,6.3915,6.4236,6.459,6.4832,6.4905,6.469,6.488,6.518,6.5203,6.5382,6.557,6.5559,6.5514,6.5425,6.5425,6.5359,6.5392,6.5392,6.5425,6.5392,6.5293,6.5293,6.526,6.526,6.5127,6.5194,6.516,6.526,6.5227,6.516,6.4829,6.42,6.3484,6.2494,6.1683,6.0863,6.0357,5.9914,5.9363,5.881,5.8409,5.7929,5.7355,5.6889,5.6546,5.6212,5.5902,5.5296,5.4507,5.383,6.6812,6.6812,6.6812,6.6812,6.6812,6.6812,6.6812,6.6812,6.6812,6.6812,6.6812,6.6812,6.6812,6.6812,6.6812,6.6812,6.6812,6.6812,6.6812,6.6812,6.6812,6.6779,6.6373,6.5425,6.441,6.3632,6.2787,6.2415,6.2415,6.2415,6.2415,6.2415,6.2415,6.2415,6.2415,6.2415,6.2415,6.2415,6.2415,6.2415,6.2415,6.2415,6.2415,6.2415,6.2415,6.2415,6.2415,6.2415,6.2415,6.2415,6.2415,6.2415,6.2415,6.2415,6.2415,6.2415,6.2415,6.2516,6.2753,6.3125,6.3423,6.3632,6.4133,6.458,6.4776,6.5106,6.5436,6.5716,6.5926,6.61,6.6139,6.5952,6.5985,6.6019,6.5922,6.5867,6.5736,6.5603,6.5514,6.5425,6.5425,6.5425,6.5425,6.5425,6.5425,6.5425,6.5425,6.5425,6.5425,6.5425,6.5425,6.5425,6.5425,6.5127,6.4995,6.4895,6.4332,6.3637,6.2785,6.2146,6.155,6.1297,6.0889,6.0586,6.0119,5.9734,5.9447,5.9107,5.8562,5.7903,5.7273,5.6884,5.603,5.4926,5.4466,6.6812,6.6812,6.6812,6.6812,6.6812,6.6812,6.6812,6.6812,6.6812,6.6812,6.6812,6.6812,6.6812,6.6812,6.6812,6.6812,6.6812,6.6812,6.6812,6.6812,6.6812,6.6812,6.6609,6.5865,6.5053,6.4208,6.3226,6.2584,6.2415,6.2415,6.2415,6.2415,6.2415,6.2415,6.2415,6.2415,6.2415,6.2415,6.2415,6.2415,6.2415,6.2415,6.2415,6.2415,6.2415,6.2415,6.2415,6.2415,6.2415,6.2415,6.2415,6.2415,6.2482,6.2482,6.2482,6.2516,6.2618,6.2854,6.3294,6.3497,6.3869,6.4275,6.4681,6.5019,6.5392,6.5662,6.5993,6.6356,6.6424,6.6388,6.6139,6.6182,6.6139,6.6095,6.6196,6.6142,6.6001,6.598,6.588,6.5858,6.5669,6.5425,6.5425,6.5425,6.5425,6.5425,6.5425,6.5425,6.5425,6.5425,6.5425,6.5425,6.5425,6.4995,6.4597,6.4531,6.42,6.3603,6.2917,6.2487,6.2047,6.2089,6.1844,6.1762,6.1459,6.1031,6.0825,6.0701,6.022,5.9625,5.8782,5.7913,5.7191,5.6423,5.5908,6.6812,6.6812,6.6812,6.6812,6.6812,6.6812,6.6812,6.6812,6.6812,6.6812,6.6812,6.6812,6.6812,6.6812,6.6812,6.6812,6.6812,6.6812,6.6812,6.6812,6.6812,6.6812,6.6745,6.6068,6.5595,6.4952,6.4072,6.3057,6.2448,6.2415,6.2482,6.2415,6.2415,6.2415,6.2415,6.2415,6.2448,6.2448,6.2448,6.2448,6.2415,6.2415,6.2415,6.2415,6.2448,6.2415,6.2415,6.2415,6.2415,6.2415,6.2415,6.2584,6.2854,6.299,6.299,6.3057,6.3294,6.3632,6.4106,6.4377,6.485,6.5155,6.5459,6.5865,6.6136,6.6305,6.6406,6.6635,6.6728,6.6601,6.6516,6.644,6.6608,6.6944,6.6925,6.6963,6.7177,6.7146,6.6946,6.6601,6.6068,6.5747,6.5425,6.5425,6.5425,6.5425,6.5459,6.5525,6.5591,6.5624,6.5724,6.5657,6.5657,6.5293,6.4796,6.4465,6.42,6.3614,6.3083,6.2652,6.2553,6.2553,6.2941,6.3176,6.2848,6.2387,6.23,6.2222,6.1735,6.1245,6.0344,5.9486,5.8687,5.8013,5.7414,6.6812,6.6812,6.6812,6.6812,6.6812,6.6812,6.6812,6.6812,6.6812,6.6812,6.6812,6.6812,6.6812,6.6812,6.6812,6.6812,6.6812,6.6812,6.6812,6.6812,6.6812,6.6812,6.6643,6.6271,6.5831,6.5493,6.5087,6.414,6.326,6.3024,6.2888,6.3024,6.2888,6.2854,6.2956,6.3091,6.2854,6.2821,6.2821,6.2821,6.2821,6.2821,6.2821,6.2821,6.2821,6.2922,6.3024,6.3024,6.3024,6.3024,6.3024,6.3125,6.3632,6.3869,6.3937,6.4038,6.441,6.4613,6.4952,6.5222,6.5561,6.5899,6.644,6.6711,6.6779,6.6677,6.6779,6.6812,6.677,6.677,6.6728,6.677,6.7108,6.7615,6.7723,6.7829,6.8213,6.8293,6.8127,6.7536,6.6634,6.6379,6.64,6.622,6.6386,6.6341,6.6374,6.6386,6.6419,6.6287,6.6287,6.6088,6.5922,6.5657,6.5194,6.4597,6.4233,6.3713,6.3282,6.2884,6.2917,6.305,6.3537,6.399,6.4079,6.3749,6.3726,6.3637,6.3221,6.2656,6.1845,6.1019,6.0202,5.9373,5.8607,6.6812,6.6812,6.6812,6.6812,6.6812,6.6812,6.6812,6.6812,6.6812,6.6812,6.6812,6.6812,6.6812,6.6812,6.6812,6.6812,6.6812,6.6812,6.6812,6.6812,6.6812,6.6812,6.6812,6.6779,6.6237,6.5933,6.5662,6.5121,6.4444,6.4241,6.4208,6.4174,6.4072,6.4275,6.4038,6.3971,6.4343,6.4309,6.4275,6.4241,6.4208,6.4208,6.4174,6.4208,6.4208,6.414,6.4072,6.4038,6.4106,6.4174,6.4241,6.4343,6.458,6.5121,6.5358,6.5256,6.5053,6.4884,6.5459,6.573,6.6034,6.6406,6.6745,6.6812,6.6948,6.6948,6.6948,6.6812,6.6914,6.7049,6.7117,6.6948,6.7252,6.776,6.8224,6.8398,6.8749,6.9389,6.9222,6.8954,6.8227,6.7992,6.7902,6.7596,6.7367,6.7334,6.7301,6.7247,6.7102,6.6937,6.6639,6.6407,6.622,6.5922,6.5492,6.4929,6.4564,6.3978,6.3614,6.3315,6.3537,6.3769,6.4001,6.4399,6.463,6.4862,6.4697,6.4586,6.4564,6.3979,6.3109,6.2391,6.1724,6.0857,5.989,6.6812,6.6812,6.6812,6.6812,6.6812,6.6812,6.6812,6.6812,6.6812,6.6812,6.6812,6.6812,6.6812,6.6812,6.6812,6.6812,6.6812,6.6812,6.6812,6.6812,6.6812,6.6812,6.6812,6.6812,6.6542,6.6406,6.6305,6.6271,6.5696,6.4986,6.4613,6.4681,6.4647,6.4546,6.4749,6.4647,6.458,6.458,6.458,6.458,6.4613,6.4613,6.4613,6.4613,6.4647,6.4681,6.4681,6.4613,6.4613,6.4613,6.4613,6.4816,6.5121,6.5527,6.5797,6.6271,6.6068,6.6068,6.6271,6.6305,6.6508,6.6677,6.6846,6.6981,6.7286,6.7421,6.7624,6.8098,6.8132,6.8064,6.803,6.8098,6.8538,6.8876,6.8944,6.9475,6.9792,7.0062,7.0321,7.0086,6.9861,6.9513,6.9064,6.8536,6.814,6.7903,6.779,6.7724,6.7546,6.7367,6.7036,6.6705,6.6485,6.6187,6.569,6.5194,6.516,6.4697,6.4299,6.4133,6.4399,6.463,6.4763,6.4862,6.5061,6.526,6.5425,6.5248,6.4972,6.4652,6.4287,6.3559,6.2844,6.2092,6.123,6.6812,6.6812,6.6812,6.6812,6.6812,6.6812,6.6812,6.6812,6.6812,6.6812,6.6812,6.6812,6.6812,6.6812,6.6812,6.6812,6.6812,6.6812,6.6812,6.6812,6.6812,6.6812,6.6812,6.6812,6.6812,6.6812,6.6711,6.6677,6.6406,6.5865,6.5324,6.5155,6.5392,6.529,6.5222,6.529,6.5358,6.5358,6.5324,6.529,6.529,6.5256,6.5256,6.5222,6.5155,6.5155,6.5155,6.5222,6.5222,6.5256,6.529,6.5595,6.5933,6.6068,6.6271,6.6677,6.6779,6.7015,6.6981,6.6914,6.6846,6.6812,6.688,6.7083,6.7726,6.7929,6.8199,6.8842,6.891,6.8977,6.9079,6.9011,6.9282,6.962,6.9992,7.0635,7.1075,7.0929,7.085,7.0738,7.0614,7.0658,7.0141,6.941,6.8881,6.8519,6.836,6.8248,6.8248,6.8214,6.7982,6.7729,6.7152,6.6742,6.6055,6.5657,6.5591,6.5392,6.4995,6.4829,6.4995,6.516,6.5293,6.5425,6.5425,6.5425,6.5425,6.5425,6.5392,6.5071,6.4795,6.4476,6.388,6.315,6.251,6.6812,6.6812,6.6812,6.6812,6.6812,6.6812,6.6812,6.6812,6.6812,6.6812,6.6812,6.6812,6.6812,6.6812,6.6812,6.6812,6.6812,6.6812,6.6812,6.6812,6.6812,6.6812,6.6812,6.6812,6.6812,6.6812,6.6812,6.6812,6.6779,6.6576,6.6474,6.6609,6.6271,6.6508,6.6474,6.6271,6.6305,6.6305,6.6339,6.6406,6.6406,6.644,6.6474,6.6508,6.6576,6.6643,6.6643,6.6474,6.6373,6.6373,6.6339,6.6339,6.6508,6.6542,6.6677,6.6846,6.7387,6.759,6.7557,6.7354,6.6981,6.688,6.7049,6.7455,6.8233,6.803,6.8368,6.9214,6.9519,6.9383,6.9282,6.9214,6.9823,7.0161,7.0534,7.077,7.1109,7.121,7.1165,7.1278,7.1222,7.1098,7.1052,7.0253,6.9858,6.9482,6.9436,6.9403,6.9616,6.9582,6.9303,6.889,6.8178,6.7488,6.6531,6.6088,6.5558,6.5657,6.5591,6.5392,6.5359,6.5558,6.5823,6.5492,6.5425,6.5425,6.5425,6.5425,6.5425,6.5425,6.5227,6.4862,6.4465,6.3769,6.3382,6.6812,6.6812,6.6812,6.6812,6.6812,6.6812,6.6812,6.6812,6.6812,6.6812,6.6812,6.6812,6.6812,6.6812,6.6812,6.6812,6.6812,6.6812,6.6812,6.6812,6.6812,6.6812,6.6812,6.6812,6.6812,6.6812,6.6812,6.6812,6.6812,6.6812,6.6812,6.6812,6.6812,6.6812,6.6812,6.6812,6.6812,6.6812,6.6812,6.6812,6.6812,6.6812,6.6812,6.6812,6.6812,6.6812,6.6779,6.6812,6.6812,6.6812,6.6846,6.688,6.6948,6.6914,6.6948,6.7049,6.7658,6.7963,6.8132,6.8064,6.8233,6.8233,6.8301,6.847,6.9045,6.9248,6.9688,7.0195,7.0364,7.0263,7.0432,7.0466,7.0703,7.0838,7.0939,7.1041,7.1142,7.1278,7.1312,7.1312,7.1267,7.1222,7.1222,7.1109,7.0803,7.0494,7.0482,7.0515,7.0561,7.0494,7.008,6.9553,6.8806,6.7835,6.6877,6.619,6.5459,6.5768,6.61,6.6045,6.5913,6.6088,6.6187,6.579,6.5569,6.568,6.568,6.5459,6.5425,6.5425,6.5326,6.5127,6.473,6.4365,6.4034,6.6812,6.6812,6.6812,6.6812,6.6812,6.6812,6.6812,6.6812,6.6812,6.6812,6.6812,6.6812,6.6812,6.6812,6.6812,6.6812,6.6812,6.6812,6.6812,6.6812,6.6812,6.6812,6.6812,6.6812,6.6812,6.6812,6.6812,6.6812,6.6812,6.6854,6.6938,6.6972,6.6938,6.698,6.6812,6.6812,6.6812,6.6812,6.6812,6.6812,6.6812,6.6812,6.6812,6.6812,6.6812,6.6812,6.6812,6.6812,6.6812,6.6914,6.7015,6.7151,6.7252,6.7354,6.7455,6.7726,6.8098,6.8538,6.8707,6.8774,6.9113,6.891,6.8944,6.935,6.9958,7.0195,7.0297,7.1007,7.121,7.1312,7.1312,7.1142,7.1075,7.1109,7.1142,7.121,7.1244,7.1312,7.1312,7.1312,7.1267,7.13,7.1267,7.1222,7.1131,7.0916,7.0916,7.087,7.0916,7.0736,7.0421,6.9815,6.9154,6.8149,6.7179,6.669,6.6268,6.6113,6.6413,6.6634,6.6623,6.6766,6.6932,6.6934,6.6712,6.6213,6.6357,6.6712,6.6168,6.5459,6.5359,6.526,6.516,6.4796,6.4531,6.6812,6.6812,6.6812,6.6812,6.6812,6.6812,6.6812,6.6812,6.6812,6.6812,6.6812,6.6812,6.6812,6.6812,6.6812,6.6812,6.6812,6.6812,6.6812,6.6812,6.6812,6.6812,6.6812,6.6812,6.6812,6.6812,6.6812,6.6812,6.6812,6.698,6.7139,6.727,6.7353,6.727,6.6854,6.6812,6.6812,6.6812,6.6812,6.6812,6.6812,6.6812,6.6812,6.6812,6.6812,6.6812,6.6812,6.6812,6.6812,6.688,6.7421,6.7624,6.7726,6.8402,6.8707,6.8808,6.9519,6.9958,7.0094,6.9519,6.9383,6.9451,6.962,6.9789,7.0128,7.0331,7.0534,7.1278,7.1312,7.1312,7.1312,7.1312,7.1312,7.1312,7.1312,7.1447,7.1447,7.1582,7.1616,7.1819,7.1582,7.13,7.1312,7.1267,7.1267,7.1222,7.1267,7.1267,7.1176,7.103,7.0737,7.031,6.9637,6.8943,6.8071,6.7491,6.7089,6.6822,6.6912,6.7324,6.7491,6.7547,6.7803,6.7993,6.7502,6.6812,6.7469,6.8238,6.7202,6.6168,6.5569,6.5359,6.5326,6.5227,6.4929,6.6812,6.6812,6.6812,6.6812,6.6812,6.6812,6.6812,6.6812,6.6812,6.6812,6.6812,6.6812,6.6812,6.6812,6.6812,6.6812,6.6812,6.6812,6.6812,6.6812,6.6812,6.6812,6.6812,6.6812,6.6812,6.6812,6.6812,6.6812,6.6812,6.7146,6.7441,6.7684,6.7765,6.7523,6.7146,6.693,6.6812,6.6812,6.6812,6.6812,6.6846,6.688,6.6914,6.6914,6.6948,6.6948,6.6981,6.7015,6.7015,6.7117,6.7726,6.803,6.8199,6.8808,6.918,6.9282,6.9823,7.0432,7.0737,7.0669,7.0601,7.0534,7.0466,7.0534,7.0906,7.0939,7.1142,7.1244,7.1312,7.1312,7.1312,7.1312,7.1312,7.1312,7.1379,7.1684,7.1853,7.2022,7.2191,7.2529,7.2496,7.1819,7.1515,7.1345,7.1312,7.1312,7.1312,7.1312,7.1267,7.1267,7.1086,7.076,7.0266,6.9671,6.9043,6.8461,6.8003,6.7768,6.7982,6.8461,6.8573,6.8462,6.8417,6.8596,6.7982,6.7435,6.8361,6.8875,6.7803,6.6879,6.6379,6.5669,6.5392,6.5359,6.5293,6.6812,6.6812,6.6812,6.6812,6.6812,6.6812,6.6812,6.6812,6.6812,6.6812,6.6812,6.6812,6.6812,6.6812,6.6812,6.6812,6.6812,6.6812,6.6812,6.6812,6.6812,6.6812,6.6812,6.6854,6.6972,6.6938,6.7022,6.7063,6.7105,6.7435,6.7885,6.8206,6.8206,6.7845,6.7503,6.7309,6.7252,6.7354,6.7489,6.7793,6.776,6.7726,6.7692,6.7692,6.7692,6.7658,6.7658,6.759,6.759,6.776,6.8166,6.8639,6.8876,6.9316,6.9789,7.006,7.0297,7.0838,7.1109,7.1244,7.1244,7.1582,7.1481,7.1312,7.1312,7.1244,7.1244,7.1312,7.1379,7.1379,7.1413,7.1379,7.1447,7.1447,7.1481,7.1785,7.1921,7.209,7.2462,7.2834,7.3172,7.2462,7.1819,7.1481,7.1312,7.1312,7.1312,7.1379,7.1379,7.1312,7.1312,7.1019,7.0816,7.0321,6.9827,6.9423,6.8997,6.8673,6.8998,6.9457,6.9413,6.9278,6.9256,6.9312,6.9256,6.9289,6.9514,6.9435,6.8696,6.7982,6.7413,6.6634,6.5636,6.5569,6.5669,6.6812,6.6812,6.6812,6.6812,6.6812,6.6812,6.6812,6.6812,6.6812,6.6812,6.6812,6.6812,6.6812,6.6812,6.6812,6.6812,6.6812,6.6812,6.6812,6.6812,6.6812,6.6812,6.6896,6.7056,6.718,6.7304,6.7435,6.7644,6.7638,6.8323,6.8784,6.8854,6.8771,6.8414,6.8136,6.8106,6.8014,6.7963,6.8301,6.8538,6.8605,6.8774,6.8716,6.8716,6.8759,6.8759,6.8793,6.8827,6.8895,6.9122,6.9586,6.9925,7.0331,7.0872,7.1142,7.1278,7.121,7.1244,7.1278,7.1312,7.1548,7.1819,7.1684,7.1447,7.1582,7.1785,7.1853,7.1819,7.1853,7.1684,7.1582,7.165,7.1684,7.1616,7.1548,7.1684,7.1819,7.2056,7.2462,7.2902,7.3409,7.3105,7.2529,7.2124,7.1887,7.1954,7.2022,7.1988,7.1887,7.1379,7.1345,7.1312,7.1064,7.0939,7.0557,7.0197,7.0062,6.9703,6.9883,7.022,7.0174,7.0073,7.0018,7.0254,7.0884,7.1053,7.0726,7.0333,6.9839,6.9166,6.8451,6.7903,6.7079,6.6345,6.6279,6.6812,6.6812,6.6812,6.6812,6.6812,6.6812,6.6812,6.6812,6.6812,6.6812,6.6812,6.6812,6.6812,6.6812,6.6812,6.6812,6.6812,6.6812,6.6812,6.6812,6.6854,6.6812,6.6896,6.7105,6.7394,6.7765,6.8009,6.8323,6.8752,6.9418,6.9526,6.9451,6.954,6.9219,6.9101,6.9272,6.8744,6.8547,6.8987,6.9214,6.9282,6.9282,6.9369,6.9422,6.9551,6.9628,6.9714,6.956,6.9517,6.9542,6.9911,7.0161,7.0229,7.0872,7.1312,7.1312,7.1278,7.1312,7.1312,7.1312,7.1515,7.1887,7.1887,7.2496,7.2665,7.2732,7.2699,7.2563,7.2496,7.2428,7.236,7.236,7.2326,7.2259,7.2124,7.2056,7.2157,7.2259,7.2699,7.351,7.3984,7.3713,7.3138,7.2902,7.2732,7.28,7.28,7.2699,7.2496,7.1988,7.1751,7.1718,7.1616,7.1548,7.1278,7.0962,7.0861,7.0793,7.0838,7.0804,7.0726,7.0692,7.077,7.1007,7.1379,7.1481,7.1334,7.0951,7.049,6.9985,6.9346,6.8965,6.845,6.7725,6.7268,6.6812,6.6812,6.6812,6.6812,6.6812,6.6812,6.6812,6.6812,6.6812,6.6812,6.6812,6.6812,6.6812,6.6812,6.6896,6.6972,6.6972,6.7063,6.7105,6.7105,6.7105,6.7105,6.7222,6.7516,6.7925,6.8284,6.8635,6.9013,6.9564,7.006,7.027,7.0026,7.0303,7.0021,6.9767,6.9807,6.9857,6.9625,6.9684,6.9901,6.9925,6.9969,7.01,7.0216,7.0388,7.0644,7.072,7.0559,7.0516,7.037,7.0721,7.0601,7.0669,7.1109,7.1312,7.1312,7.1312,7.1515,7.1684,7.1447,7.1684,7.2022,7.2326,7.2902,7.3341,7.351,7.3409,7.3274,7.3308,7.3341,7.3274,7.324,7.3105,7.3003,7.28,7.2597,7.2563,7.2563,7.3274,7.4187,7.4356,7.4086,7.3849,7.3646,7.3443,7.3308,7.3206,7.3172,7.3071,7.28,7.2631,7.2563,7.2394,7.2259,7.1954,7.165,7.1447,7.1278,7.1142,7.1142,7.121,7.1312,7.1345,7.1481,7.1684,7.1751,7.1819,7.1447,7.0985,7.0558,7.0378,7.0288,6.9704,6.8786,6.8573,6.6812,6.6812,6.6812,6.6812,6.6812,6.6812,6.6812,6.6812,6.6812,6.6812,6.6812,6.6812,6.6812,6.6854,6.7014,6.7222,6.7353,6.7516,6.7684,6.7638,6.7805,6.7805,6.7965,6.8201,6.867,6.8973,6.9344,6.9814,7.006,7.0509,7.0747,7.055,7.0877,7.0714,7.0341,7.0648,7.0806,7.0908,7.0974,7.1216,7.1175,7.13,7.1457,7.1684,7.2048,7.2387,7.2372,7.2364,7.2356,7.1994,7.1556,7.1244,7.1244,7.1244,7.1312,7.1312,7.1312,7.1684,7.1921,7.1819,7.2191,7.2563,7.2935,7.3341,7.368,7.3984,7.3883,7.4018,7.4086,7.3815,7.368,7.3477,7.3341,7.3172,7.2969,7.2868,7.2868,7.2766,7.2902,7.3747,7.4221,7.4052,7.4356,7.4153,7.439,7.395,7.3883,7.3916,7.3849,7.3713,7.3443,7.3341,7.3037,7.28,7.2597,7.2259,7.1954,7.1751,7.1548,7.1312,7.1278,7.1515,7.1887,7.1819,7.1785,7.2157,7.2259,7.1718,7.1312,7.1131,7.1086,7.1503,7.0963,6.9895,6.9929,6.6812,6.6812,6.6812,6.6812,6.6812,6.6812,6.6812,6.6812,6.6812,6.6812,6.6812,6.6812,6.6812,6.6854,6.718,6.7435,6.7845,6.8088,6.8405,6.8597,6.8711,6.8635,6.8752,6.9013,6.9455,6.992,7.0303,7.0611,7.0878,7.1143,7.1179,7.1063,7.1515,7.1688,7.1119,7.1559,7.1935,7.2004,7.2056,7.2124,7.2029,7.1985,7.2072,7.2475,7.2942,7.3189,7.3107,7.2942,7.2644,7.221,7.159,7.1356,7.1312,7.1312,7.1312,7.1312,7.1413,7.1887,7.2326,7.2394,7.2563,7.2969,7.3308,7.3646,7.395,7.4187,7.4424,7.4661,7.4661,7.4289,7.3916,7.368,7.3544,7.3308,7.3172,7.3172,7.3138,7.2834,7.2597,7.3172,7.3815,7.4221,7.4559,7.4897,7.5134,7.5202,7.5202,7.5202,7.5067,7.4897,7.4221,7.3984,7.3578,7.3308,7.3138,7.2969,7.2665,7.2225,7.1954,7.165,7.1413,7.1751,7.2124,7.1887,7.1853,7.2124,7.2124,7.1616,7.1312,7.1312,7.1345,7.1515,7.1515,7.0659,7.103,6.6812,6.6812,6.6812,6.6812,6.6812,6.6812,6.6812,6.6812,6.6812,6.6812,6.6812,6.6896,6.698,6.7105,6.7475,6.7885,6.8362,6.8746,6.905,6.9382,6.9528,6.9419,6.9564,6.9743,7.006,7.0543,7.0911,7.124,7.1463,7.1463,7.1376,7.1402,7.2218,7.262,7.2101,7.2485,7.2908,7.3018,7.2908,7.2901,7.2853,7.2936,7.2984,7.3432,7.3791,7.3948,7.3712,7.3437,7.2984,7.2424,7.1722,7.1356,7.1312,7.1312,7.1515,7.1751,7.1954,7.2259,7.2902,7.3105,7.3037,7.351,7.351,7.3747,7.4119,7.4322,7.4255,7.4458,7.4661,7.4356,7.3747,7.3409,7.3612,7.3544,7.3612,7.368,7.3003,7.2225,7.2529,7.3274,7.3849,7.4289,7.4695,7.5303,7.5473,7.5473,7.5642,7.5642,7.5676,7.5676,7.51,7.4695,7.4289,7.4052,7.395,7.3747,7.3443,7.2969,7.2462,7.2462,7.2428,7.2326,7.2293,7.2372,7.2203,7.1853,7.1751,7.1729,7.1379,7.1312,7.1312,7.1345,7.1345,7.1379,7.1436,6.6812,6.6812,6.6812,6.6812,6.6812,6.6812,6.6812,6.6812,6.6812,6.6812,6.6854,6.7097,6.7222,6.7557,6.8044,6.8551,6.901,6.949,6.9814,6.9848,7.0024,6.9986,7.0125,7.0334,7.0642,7.0911,7.124,7.1368,7.1494,7.1644,7.1834,7.1817,7.2384,7.3117,7.3008,7.3188,7.3637,7.3791,7.3795,7.3874,7.3952,7.4068,7.4068,7.4338,7.475,7.4787,7.4373,7.3874,7.3397,7.2567,7.181,7.1446,7.1312,7.1345,7.1751,7.2022,7.2225,7.3003,7.3916,7.3883,7.4086,7.4221,7.3883,7.395,7.439,7.4322,7.4255,7.4153,7.4322,7.4119,7.351,7.324,7.3443,7.395,7.4086,7.4052,7.3003,7.209,7.2732,7.3443,7.3883,7.4356,7.4864,7.5473,7.5676,7.5676,7.5676,7.5676,7.5676,7.5676,7.5439,7.527,7.5134,7.4931,7.4762,7.439,7.4052,7.3713,7.3274,7.3409,7.3489,7.3366,7.331,7.3196,7.2959,7.2779,7.2463,7.2429,7.2045,7.1684,7.1921,7.209,7.1684,7.1684,7.1481,6.6812,6.6812,6.6812,6.6812,6.6812,6.6812,6.6812,6.6812,6.6812,6.6812,6.6896,6.727,6.7597,6.789,6.8397,6.901,6.9885,7.0304,7.0348,7.0314,7.0692,7.061,7.057,7.076,7.1167,7.1368,7.1399,7.1463,7.1639,7.211,7.244,7.2412,7.3968,7.4424,7.4223,7.4401,7.46,7.46,7.4675,7.475,7.4824,7.4824,7.4675,7.4898,7.519,7.508,7.4711,7.4107,7.3397,7.2609,7.1854,7.1446,7.1312,7.1379,7.1785,7.236,7.2563,7.3409,7.4086,7.4458,7.4695,7.4728,7.4559,7.4796,7.4864,7.4458,7.4187,7.3578,7.3612,7.3375,7.2935,7.2834,7.3037,7.4018,7.4525,7.4153,7.3443,7.3138,7.3274,7.3747,7.4119,7.4458,7.4796,7.5303,7.5676,7.5676,7.5676,7.5676,7.5676,7.5676,7.5676,7.5676,7.5676,7.5676,7.5439,7.4864,7.4492,7.4255,7.4086,7.4052,7.4179,7.442,7.433,7.4207,7.4287,7.423,7.3867,7.3209,7.3039,7.2824,7.3049,7.3037,7.2496,7.2022,7.1853]}]]